     2              OBSERVATION DATA    GPS                 RINEX VERSION / TYPE
teqc 2002Apr3 20051206 01:26:01UTC                          PGM / RUN BY / DATE
                                                            COMMENT
L2: 1 -> 1; 150 -> 5; 250 -> 9                              COMMENT
L2: 1 -> 1; 150 -> 5; 250 -> 9                              COMMENT
L2: 1 -> 1; 150 -> 5; 250 -> 9                              COMMENT
L2: 1 -> 1; 150 -> 5; 250 -> 9                              COMMENT
L2: 1 -> 1; 150 -> 5; 250 -> 9                              COMMENT
Original Marker Name: KELL                                  COMMENT
Campaign Name: CSUSB 2005                                   COMMENT
4-Character Station Name: KELL                              COMMENT
6-Character Antenna Code: DMRCHT                            COMMENT
Vertical Measurement Point: BCR                             COMMENT
Vertical Offset to Rinex Ref. Point: 0.0348                 COMMENT
Radial Measurement Point: ECF                               COMMENT
Radial Offset to Rinex Ref. Point: 0.1897                   COMMENT
Antenna Height from Field Measurement: 1.5010 m             COMMENT
Additional Antenna Identification Info.:                    COMMENT
Turborogue and Ashtech Choke Ring                           COMMENT
Original XYZ: -2402518.8200 -4705153.0700 3565779.5600      COMMENT
New XYZ position is based on association with SCEC monument COMMENT
E1D0T0M9+0011. Position of that monument is believed to be  COMMENT
valid to within 1 m horizontally; vertical accuracy         COMMENT
should be no worse than 3-times this value.                 COMMENT
                                                            COMMENT
Revised Rinex header created by UCSD GPS archive for        COMMENT
GSAC on 01-Apr-2006 (2006:091) 00:16:34 GMT                 COMMENT
For assistance contact dagnew@ucsd.edu                      COMMENT
or anderson@python.ucsd.edu                                 COMMENT
                                                            COMMENT
KELL                                                        MARKER NAME
___ CSUSB                                                   OBSERVER / AGENCY
1224 ASHTECH Z-X ZB00                                       REC # / TYPE / VERS
1401 DORNE-MARGOL. TYPE T                                   ANT # / TYPE
 -2402515.0000 -4705146.0000  3565771.0000                  APPROX POSITION XYZ
        1.4542        0.0000        0.0000                  ANTENNA: DELTA H/E/N
     1     1     0                                          WAVELENGTH FACT L1/2
     7    C1    L1    L2    P1    P2    S1    S2            # / TYPES OF OBSERV
     0                                                      INTERVAL
  2005     6    24    16     6   30.000000                  TIME OF FIRST OBS
  2005     6    25     0     2   30.000000                  TIME OF LAST OBS
                                                            END OF HEADER
 05  6 24 16  6 30.0000000  0  4G22G21G 3G14
  20902566.7814    9168335.42254   7149556.83352  20902567.4284   20902559.5014
        57.0004         50.0004
  20829386.5154    9288148.20654   7236378.73252  20829387.9554   20829381.2384
        58.0004         50.0004
  22663330.5824    9081421.04553   7088313.03452  22663332.0944   22663325.9604
        50.0004         42.0004
  23184559.6414    9002788.35953   7027225.19052  23184560.9714   23184556.9214
        50.0004         43.0004
 05  6 24 16  7  0.0000000  0  6G22G21G 3G 6G14G26
  20898261.7774    9145719.34343   7131933.91642  20898262.6494   20898255.6984
        56.0004         50.0004
  20834973.8454    9317507.28744   7259255.91142  20834975.4284   20834967.4704
        59.0004         50.0004
  22652100.0574    9022404.35743   7042326.02542  22652100.9074   22652095.8724
        50.0004         43.0004
  23817501.7134      96762.98153     27045.06452  23817505.4934   23817499.9154
        45.0004         39.0004
  23164215.0134    8895882.59343   6943922.00642  23164216.1344   23164211.2264
        49.0004         41.0004
  23813911.0574      44282.52453     22239.79552  23813913.6044   23813909.3664
        41.0004         37.0004
 05  6 24 16  7 30.0000000  0  6G22G21G 3G 6G14G26
  20894014.6574    9123395.17843   7114538.45942  20894014.6454   20894007.5164
        56.0004         50.0004
  20840620.1494    9347180.69644   7282378.01942  20840622.0634   20840614.1484
        58.0004         50.0004
  22640954.9424    8963835.36543   6996687.85742  22640956.4594   22640950.9244
        49.0004         43.0004
  23838312.8314     206121.36443    112259.31442  23838315.9474   23838310.4344
        47.0004         40.0004
  23143902.9954    8789155.65343   6860758.18342  23143903.6194   23143898.1524
        47.0004         40.0004
  23834005.1394     149857.45143    104505.90342  23834007.3104   23834001.8734
        45.0004         38.0004
 05  6 24 16  8  0.0000000  0  5G22G21G 3G14G26
  20889828.3084    9101396.98244   7097397.00242  20889828.9264   20889821.2354
        57.0004         50.0004
  20846333.0494    9377203.55444   7305772.43042  20846334.5454   20846327.8194
        58.0004         50.0004
  22629902.2264    8905750.68243   6951427.06642  22629904.1244   22629899.8064
        50.0004         43.0004
  23123636.3534    8682644.72643   6777762.68642  23123638.1514   23123630.2554
        48.0004         41.0004
  23854153.7554     255745.33543    187015.98042  23854156.9334   23854150.2754
        44.0004         38.0004
 05  6 24 16  8 30.0000000  0  5G22G21G 3G14G26
  20885695.5944    9079677.28744   7080472.57142  20885695.8234   20885688.0324
        57.0004         51.0004
  20852104.1994    9407529.94844   7329403.37242  20852105.3644   20852099.0244
        57.0004         50.0004
  22618931.6924    8848105.69043   6906508.90942  22618933.9134   22618929.1864
        49.0004         43.0004
  23103402.4244    8576305.58143   6694901.06442  23103405.3864   23103396.8624
        50.0004         42.0004
  23874350.9914     361896.51243    269731.18442  23874354.0494   23874349.1854
        43.0004         37.0004
 05  6 24 16  9  0.0000000  0  5G22G21G 3G18G14
  20881622.1674    9058268.08044   7063790.07542  20881622.5664   20881613.7104
        58.0004         51.0004
  20857939.5774    9438193.43543   7353296.98442  20857940.3774   20857934.1804
        56.0004         50.0004
  22608052.3964    8790934.69343   6861960.09342  22608054.3554   22608050.1334
        49.0004         43.0004
  20773958.1254     -99842.11153    -83669.55252  20773958.7054   20773950.9984
        46.0004         39.0004
  23083206.1144    8470173.84343   6612201.05942  23083208.2944   23083202.0644
        51.0004         43.0004
 05  6 24 16  9 30.0000000  0  5G22G21G 3G18G14
  20877603.9784    9037156.96044   7047339.85842  20877605.0024   20877597.0054
        58.0004         51.0004
  20863836.2214    9469182.47043   7377444.28942  20863836.9514   20863831.2694
        56.0004         49.0004
  22597262.4514    8734227.86343   6817772.95342  22597263.1714   22597258.6814
        49.0004         43.0004
  20779234.6324     -72113.27343    -62062.66942  20779237.5264   20779226.2514
        49.0004         40.0004
  23063047.7844    8364240.24743   6529655.45342  23063049.5894   23063043.9884
        51.0004         44.0004
 05  6 24 16 10  0.0000000  0  5G22G21G 3G18G14
  20873642.9624    9016341.61144   7031120.11042  20873643.9624   20873635.7514
        58.0004         51.0004
  20869794.6324    9500496.62543   7401844.93742  20869795.5694   20869790.2114
        56.0004         49.0004
  22586559.5894    8677985.65343   6773947.86242  22586561.3584   22586556.3664
        49.0004         43.0004
  20784555.2184     -44145.36843    -40269.51042  20784558.7334   20784547.8814
        48.0004         40.0004
  23042926.0064    8258505.98043   6447265.16742  23042928.3154   23042923.6524
        50.0004         43.0004
 05  6 24 16 10 30.0000000  0  6G22G21G 3G18G15G14
  20869740.4964    8995831.38444   7015138.11542  20869741.1154   20869732.7534
        58.0004         51.0004
  20875818.0544    9532146.03044   7426506.79442  20875819.0104   20875812.4174
        57.0004         49.0004
  22575948.1294    8622219.64943   6730493.82342  22575949.0784   22575945.4144
        49.0004         42.0004
  20789923.5554     -15929.60743    -18283.22542  20789926.0454   20789917.0234
        47.0004         40.0004
  20322376.4164    -194150.55353   -131907.46152  20322378.7444   20322373.3434
        42.0004         36.0004
  23022842.6554    8152983.90443   6365040.19242  23022844.9234   23022844.4374
        46.0004         41.0004
 05  6 24 16 11  0.0000000  0  6G22G21G 3G18G15G14
  20865893.7024    8975618.84044   6999388.09342  20865894.5594   20865886.3044
        58.0004         51.0004
  20881904.0054    9564125.06744   7451425.50542  20881905.2204   20881897.3944
        58.0004         49.0004
  22565424.7294    8566925.27443   6687407.31342  22565427.0534   22565420.9454
        48.0004         42.0004
  20795339.6054      12526.01443      3889.97242  20795340.3594   20795332.7144
        49.0004         40.0004
  20316299.0094    -226085.02743   -156791.48842  20316301.3854   20316296.1004
        41.0004         36.0004
  23002801.4384    8047670.15643   6282977.48642  23002803.4624   23002802.4464
        44.0004         41.0004
 05  6 24 16 11 30.0000000  0  6G22G21G 3G18G15G14
  20862103.2664    8955699.21344   6983866.31942  20862103.8244   20862095.8404
        59.0004         51.0004
  20888051.2194    9596430.21444   7476598.32142  20888052.7464   20888045.4324
        58.0004         50.0004
  22554990.2944    8512100.13743   6644686.41942  22554992.3184   22554988.4764
        48.0004         42.0004
  20800797.8164      41216.26243     26245.99042  20800799.2914   20800790.7274
        48.0004         41.0004
  20310274.8754    -257747.86043   -181463.84642  20310274.7714   20310267.8634
        40.0004         34.0004
  22982804.2244    7942562.71843   6201075.61642  22982805.0804   22982800.6744
        47.0004         42.0004
 05  6 24 16 12  0.0000000  0  6G22G21G 3G18G15G14
  20858365.9644    8936059.35444   6968562.54542  20858366.5934   20858358.5244
        58.0004         51.0004
  20894258.3344    9629049.95544   7502016.28042  20894259.8964   20894252.9714
        58.0004         50.0004
  22544646.0654    8457733.69643   6602322.95742  22544648.5524   22544642.1754
        48.0004         42.0004
  20806299.6064      70127.72243     48774.36842  20806301.5424   20806293.9224
        48.0004         41.0004
  20304301.3374    -289149.64853   -205932.75252  20304298.0394   20304295.2444
        40.0004         34.0004
  22962842.0394    7837652.15443   6119327.19542  22962843.0284   22962836.5234
        50.0004         43.0004
 05  6 24 16 12 30.0000000  0  6G22G21G 3G18G15G14
  20854686.6764    8916727.61744   6953498.86742  20854687.4844   20854679.9544
        58.0004         51.0004
  20900530.6784    9662013.68944   7527702.29042  20900532.2764   20900525.8684
        58.0004         50.0004
  22534393.8934    8403857.04043   6560341.14942  22534395.3204   22534389.5374
        48.0004         42.0004
  20811848.1534      99288.03243     71496.67142  20811847.8454   20811843.8084
        48.0004         42.0004
  20298379.2744    -320260.00953   -230174.62152  20298379.4194   20298378.1794
        40.0004         34.0004
  22942920.1804    7732970.54343   6037757.18542  22942922.9294   22942916.1464
        50.0004         43.0004
 05  6 24 16 13  0.0000000  0  6G22G21G 3G18G15G14
  20851065.5664    8897696.49844   6938669.43342  20851066.1084   20851058.2854
        59.0004         51.0004
  20906867.8334    9695315.12044   7553651.44642  20906869.0544   20906862.8564
        57.0004         49.0004
  22524234.1754    8350464.86043   6518736.84642  22524235.2124   22524229.8114
        49.0004         42.0004
  20817444.2404     128689.11743     94406.57042  20817444.4184   20817438.9244
        48.0004         43.0004
  20292514.2344    -351084.16343   -254193.36042  20292514.3934   20292513.5104
        41.0004         35.0004
  22923041.0484    7628513.36443   5956362.02642  22923043.2544   22923039.5514
        49.0004         43.0004
 05  6 24 16 13 30.0000000  0  6G22G21G 3G18G15G14
  20847499.4324    8878957.50944   6924067.63742  20847500.2454   20847492.3764
        59.0004         51.0004
  20913268.1914    9728947.35444   7579858.36942  20913269.2324   20913262.7814
        57.0004         49.0004
  22514165.0544    8297551.59843   6477505.72842  22514166.5844   22514160.2954
        49.0004         42.0004
  20823082.3664     158322.32043    117497.35642  20823083.3204   20823077.6144
        49.0004         43.0004
  20286702.1564    -381628.10643   -277993.89042  20286704.4864   20286693.1424
        43.0004         35.0004
  22903205.5334    7524275.73043   5875137.91442  22903207.6634   22903205.7114
        48.0004         43.0004
 05  6 24 16 14  0.0000000  0  6G22G21G 3G18G15G14
  20843989.3494    8860509.39144   6909692.50142  20843989.8844   20843981.6014
        59.0004         51.0004
  20919730.7914    9762910.09044   7606322.81942  20919732.0664   20919725.4094
        57.0004         49.0004
  22504186.9964    8245118.00743   6436648.40142  22504188.5304   22504183.2374
        48.0004         42.0004
  20828766.5194     188185.58543    140767.45742  20828767.7634   20828761.9064
        49.0004         43.0004
  20280942.5864    -411891.06443   -301575.41042  20280944.6104   20280933.8324
        44.0004         36.0004
  22883413.0554    7420259.52643   5794086.35142  22883413.9434   22883410.9274
        48.0004         43.0004
 05  6 24 16 14 30.0000000  0  6G22G21G 3G18G15G14
  20840534.2694    8842354.60144   6895545.93642  20840534.8564   20840526.7214
        59.0004         50.0004
  20926257.8234    9797207.52544   7633048.06942  20926259.1204   20926251.4414
        57.0004         49.0004
  22494301.0434    8193169.29743   6396168.91242  22494301.3874   22494296.8814
        48.0004         41.0004
  20834493.6324     218281.19543    164218.56242  20834494.7724   20834488.5324
        48.0004         43.0004
  20275237.5224    -441868.01643   -324934.13242  20275238.7844   20275231.8114
        43.0004         35.0004
  22863663.2234    7316471.15843   5713212.34242  22863663.8294   22863659.8674
        50.0004         43.0004
 05  6 24 16 15  0.0000000  0  6G22G21G 3G18G15G14
  20837133.4374    8824484.15244   6881620.93042  20837134.1814   20837126.4204
        59.0004         51.0004
  20932846.4854    9831831.73644   7660027.97242  20932848.0234   20932840.6524
        57.0004         49.0004
  22484506.3124    8141698.83443   6356062.07342  22484508.7054   22484503.0614
        48.0004         41.0004
  20840261.7874     248599.77543    187843.44142  20840263.6044   20840257.6564
        47.0004         42.0004
  20269587.3324    -471565.91543   -348075.38242  20269587.0064   20269586.9854
        42.0004         36.0004
  22843955.5014    7212904.41243   5632511.05442  22843957.3634   22843950.7954
        52.0004         43.0004
 05  6 24 16 15 30.0000000  0  6G22G21G 3G18G15G14
  20833791.8144    8806922.54144   6867936.57442  20833792.5124   20833784.6134
        59.0004         51.0004
  20939501.5594    9866808.59543   7687282.67542  20939502.9344   20939496.6894
        56.0004         49.0004
  22474807.2104    8090733.72943   6316349.03042  22474809.1674   22474804.2174
        47.0004         42.0004
  20846078.9964     279165.20443    211660.67742  20846080.7294   20846072.0884
        48.0004         42.0004
  20263997.0904    -500957.80243   -370978.14142  20263994.0714   20263993.0054
        41.0004         36.0004
  22824293.7054    7109587.23543   5552004.23642  22824295.6884   22824289.7224
        51.0004         43.0004
 05  6 24 16 16  0.0000000  0  6G22G21G 3G18G15G14
  20830505.8474    8789655.04144   6854481.39242  20830506.3504   20830498.6724
        59.0004         51.0004
  20946222.5264    9902124.60243   7714801.64242  20946223.5054   20946217.3274
        56.0004         50.0004
  22465203.4484    8040261.59343   6277020.10242  22465204.9774   22465199.9554
        48.0004         42.0004
  20851938.5954     309962.35643    235658.45442  20851940.4034   20851934.4124
        48.0004         42.0004
  20258457.2654   -2105476.35143  -1621252.28442  20258458.5084   20258453.9904
        40.0004         35.0004
  22804678.7404    7006508.46443   5471683.17342  22804681.5314   22804675.2284
        50.0004         43.0004
 05  6 24 16 16 30.0000000  0  6G22G21G 3G18G15G14
  20827272.8054    8772666.35244   6841243.45642  20827273.4664   20827265.4894
        59.0004         51.0004
  20953004.3684    9937765.75944   7742573.95542  20953005.8254   20952999.6554
        57.0004         50.0004
  22455690.5314    7990269.39343   6238065.15342  22455691.6484   22455686.5824
        47.0004         42.0004
  20857840.6394     340975.61543    259824.64742  20857841.5344   20857833.9494
        49.0004         42.0004
  20252981.1104   -2134294.37153  -1643707.83952  20252977.4884   20252969.1544
        41.0004         35.0004
  22785106.1104    6903655.83743   5391538.29842  22785107.9114   22785104.0234
        50.0004         44.0004
 05  6 24 16 17  0.0000000  0  6G22G21G 3G18G15G14
  20824093.9734    8755962.22244   6828227.25742  20824094.8024   20824086.9514
        58.0004         51.0004
  20959850.2094    9973739.52544   7770605.43942  20959851.8264   20959845.6094
        57.0004         50.0004
  22446270.5594    7940765.76143   6199490.92342  22446269.8034   22446267.8944
        48.0004         42.0004
  20863785.0194     372210.41743    284163.44442  20863786.5914   20863778.8494
        50.0004         42.0004
  20247553.2054   -2162823.37643  -1665938.31142  20247552.6254   20247541.6354
        38.0004         33.0004
  22765576.7474    6801039.00743   5311577.13642  22765579.5204   22765576.7414
        49.0004         44.0004
 05  6 24 16 17 30.0000000  0  5G22G21G 3G18G14
  20820968.9474    8739537.77744   6815428.99442  20820969.6594   20820961.4554
        59.0004         51.0004
  20966758.8874   10010041.92144   7798892.99442  20966760.0664   20966753.5174
        58.0004         50.0004
  22436942.6784    7891747.88543   6161295.19242  22436944.0194   22436939.6964
        48.0004         42.0004
  20869769.9204     403660.80443    308670.23142  20869770.8254   20869762.5084
        51.0004         42.0004
  22746096.3554    6698656.25643   5231798.37242  22746096.8364   22746093.6824
        49.0004         44.0004
 05  6 24 16 18  0.0000000  0  5G22G21G 3G18G14
  20817898.6384    8723403.75944   6802857.04342  20817899.2754   20817890.8224
        58.0004         51.0004
  20973731.7744   10046685.44744   7827446.37242  20973733.4954   20973726.6714
        58.0004         50.0004
  22427709.7584    7843229.11243   6123488.38242  22427711.2974   22427707.2814
        49.0004         43.0004
  20875797.6534     435337.81243    333353.60242  20875799.6174   20875790.2094
        51.0004         42.0004
  22726661.5674    6596521.87543   5152213.16842  22726663.8774   22726657.8984
        51.0004         44.0004
 05  6 24 16 18 30.0000000  0  5G22G21G 3G18G14
  20814883.4084    8707557.58844   6790509.38942  20814883.9384   20814875.5104
        58.0004         50.0004
  20980769.3274   10083668.26944   7856264.13542  20980770.9734   20980764.2934
        57.0004         50.0004
  22418572.1874    7795208.88443   6086070.05142  22418573.3254   22418569.3044
        50.0004         43.0004
  20881868.4824     467238.69643    358211.42242  20881869.8444   20881861.7954
        51.0004         42.0004
  22707274.3354    6494636.66043   5072822.15642  22707275.6054   22707268.6084
        52.0004         44.0004
 05  6 24 16 19  0.0000000  0  5G22G21G 3G18G14
  20811921.9154    8691996.46244   6778383.85342  20811922.5634   20811914.5014
        58.0004         50.0004
  20987870.8704   10120989.19444   7885345.36442  20987872.3354   20987866.4314
        57.0004         49.0004
  22409530.0124    7747687.18543   6049040.17542  22409530.8584   22409525.0124
        51.0004         43.0004
  20887980.7124     499359.81443    383240.85842  20887982.3464   20887974.2574
        50.0004         43.0004
  22687932.4694    6393000.78143   4993625.45942  22687934.7394   22687926.9124
        52.0004         44.0004
 05  6 24 16 19 30.0000000  0  5G22G21G 3G18G14
  20809014.3394    8676717.63444   6766478.28342  20809015.0824   20809006.6754
        57.0004         50.0004
  20995037.3444   10158646.74744   7914688.89742  20995038.5994   20995032.3444
        57.0004         49.0004
  22400581.7484    7700663.48943   6012398.34942  22400582.9094   22400576.3924
        51.0004         43.0004
  20894135.0484     531697.82843    408439.32642  20894137.4114   20894129.1204
        52.0004         43.0004
  22668639.7994    6291615.20443   4914623.79642  22668640.5394   22668632.1864
        52.0004         43.0004
 05  6 24 16 20  0.0000000  0  5G22G21G 3G18G14
  20806163.5044    8661731.54344   6754800.80942  20806163.6324   20806155.1324
        57.0004         50.0004
  21002268.9784   10196652.36043   7944303.64542  21002270.0214   21002264.6514
        56.0004         48.0004
  22391729.9394    7654150.06443   5976154.13742  22391731.8704   22391725.3774
        51.0004         43.0004
  20900332.0454     564262.88043    433814.71942  20900333.9124   20900325.3714
        52.0004         43.0004
  22649393.8034    6190493.59343   4835827.81442  22649395.8124   22649389.7644
        49.0004         42.0004
 05  6 24 16 20 30.0000000  0  6G22G21G 3G18G15G14
  20803364.7784    8647027.22044   6743342.89742  20803365.3624   20803357.7204
        57.0004         49.0004
  21009565.7984   10234996.71443   7974182.34142  21009566.8344   21009561.1274
        55.0004         48.0004
  22382974.6104    7608138.63743   5940301.09442  22382974.9694   22382969.6274
        51.0004         44.0004
  20906569.2974     597043.84543    459358.34142  20906570.0104   20906563.7054
        51.0004         43.0004
  20211125.847
        42.000
  22630198.0594    6089628.40343   4757231.58142  22630200.5974   22630196.5954
        47.0004         42.0004
 05  6 24 16 21  0.0000000  0  6G22G21G 3G18G15G14
  20800620.1044    8632601.20844   6732101.85942  20800620.4774   20800612.0884
        57.0004         49.0004
  21016927.5344   10273677.29443   8004323.03642  21016927.8964   21016921.2534
        56.0004         48.0004
  22374313.2084    7562627.95943   5904838.23842  22374314.5924   22374310.1164
        51.0004         44.0004
  20912847.8674     630037.00543    485067.31142  20912848.3904   20912843.5364
        51.0004         43.0004
  20206149.4774   -1288572.55453   -996536.42752  20206151.9864   20206148.1554
        42.0004         36.0004
  22611056.1374    5989019.61043   4678835.12142  22611057.6544   22611053.1974
        49.0004         43.0004
 05  6 24 16 21 30.0000000  0  6G22G21G 3G18G15G14
  20797927.7484    8618454.34944   6721078.34442  20797928.2354   20797919.9374
        57.0004         49.0004
  21024351.9944   10312696.26544   8034727.40142  21024353.8874   21024345.4964
        57.0004         48.0004
  22365748.3914    7517621.25643   5869768.09942  22365750.0374   22365745.3464
        51.0004         44.0004
  20919166.4204     663242.05343    510941.37842  20919168.4754   20919161.2314
        50.0004         43.0004
  20201236.1774   -1314401.11843  -1016662.54542  20201238.7984   20201232.0314
        44.0004         37.0004
  22591961.7344    5888671.31343   4600641.66642  22591962.9754   22591958.2404
        51.0004         45.0004
 05  6 24 16 22  0.0000000  0  6G22G21G 3G18G15G14
  20795287.6264    8604583.89643   6710270.21342  20795288.3464   20795280.5324
        56.0004         49.0004
  21031841.1954   10352052.35044   8065394.45242  21031842.9794   21031834.8414
        57.0004         48.0004
  22357280.2074    7473118.33843   5835090.51642  22357280.9204   22357277.8334
        52.0004         44.0004
  20925525.4604     696656.77443    536978.82842  20925525.8114   20925519.7884
        50.0004         42.0004
  20196376.4074   -1339925.42443  -1036551.61442  20196379.8234   20196375.8744
        43.0004         37.0004
  22572915.9684    5788584.15443   4522651.70842  22572917.2924   22572913.0714
        52.0004         45.0004
 05  6 24 16 22 30.0000000  0  6G22G21G 3G18G15G14
  20792700.9474    8590992.41243   6699679.45542  20792701.3224   20792694.0724
        56.0004         49.0004
  21039394.9874   10391749.25044   8096327.07242  21039396.6044   21039389.1964
        57.0004         49.0004
  22348907.9204    7429124.03343   5800809.25342  22348909.8264   22348904.7944
        52.0004         45.0004
  20931923.6814     730283.63743    563181.55242  20931925.4104   20931916.4404
        49.0004         41.0004
  20191579.7694   -1365140.56143  -1056199.81042  20191581.1484   20191577.3244
        43.0004         38.0004
  22553920.5854    5688764.33243   4444870.07142  22553922.9194   22553917.4064
        52.0004         45.0004
 05  6 24 16 23  0.0000000  0  6G22G21G 3G18G15G14
  20790167.9054    8577679.47643   6689305.73842  20790168.2244   20790160.6434
        56.0004         49.0004
  21047014.1954   10431788.04444   8127526.11342  21047015.6594   21047008.6254
        57.0004         49.0004
  22340633.7784    7385640.11243   5766925.69242  22340635.1144   22340630.0824
        53.0004         45.0004
  20938360.6084     764121.82643    589548.98542  20938359.3734   20938357.3124
        47.0004         39.0004
  20186842.1754   -1390044.61643  -1075605.58342  20186842.9184   20186837.0944
        45.0004         37.0004
  22534975.7084    5589215.01143   4367299.22642  22534978.4294   22534972.3514
        51.0004         44.0004
 05  6 24 16 23 30.0000000  0  6G22G21G 3G18G15G14
  20787687.1754    8564643.00743   6679147.46142  20787687.5934   20787680.0234
        55.0004         49.0004
  21054698.0224   10472167.69844   8158990.76742  21054699.4684   21054693.0644
        57.0004         50.0004
  22332456.9124    7342666.35843   5733439.65942  22332458.1444   22332453.3134
        54.0004         46.0004
  20944840.7404     798168.38143    616078.77442  20944839.8094   20944835.4304
        47.0004         38.0004
  20182161.0794   -1414637.49243  -1094768.91042  20182159.9634   20182156.0184
        41.0004         36.0004
  22516084.3714    5489936.72343   4289939.56242  22516085.2974   22516080.5634
        50.0004         44.0004
 05  6 24 16 24  0.0000000  0  6G22G21G 3G18G15G14
  20785259.9834    8551884.35243   6669205.65842  20785260.3184   20785252.3614
        56.0004         49.0004
  21062447.5534   10512890.82944   8190723.06942  21062448.8604   21062442.4764
        58.0004         50.0004
  22324376.5734    7300206.71343   5700354.23042  22324377.7084   22324372.9754
        55.0004         46.0004
  20951358.7494     832424.47243    642771.81842  20951360.7124   20951357.5364
        47.0004         38.0004
  20177542.8524   -1438915.13253  -1113686.57852  20177541.8144   20177535.4474
        38.0004         34.0004
  22497244.4444    5390934.67843   4212795.14442  22497245.5904   22497241.6554
        50.0004         44.0004
 05  6 24 16 24 30.0000000  0  6G22G21G 3G18G15G14
  20782883.2204    8539399.51643   6659477.22442  20782884.0604   20782876.5624
        55.0004         49.0004
  21070261.6684   10553954.66944   8222720.84442  21070263.4584   21070256.6954
        58.0004         50.0004
  22316393.9384    7258259.23443   5667667.89742  22316395.9144   22316390.7404
        55.0004         47.0004
  20957916.9134     866885.88343    669624.85042  20957916.9584   20957913.3604
        47.0004         39.0004
  20172987.3884   -1462879.37553  -1132359.98852  20172983.8144   20172981.4064
        35.0004         33.0004
  22478458.6444    5292208.07943   4135865.35442  22478460.1354   22478455.0784
        51.0004         45.0004
 05  6 24 16 25  0.0000000  0  5G22G21G 3G18G14
  20780558.5674    8527179.71043   6649955.28142  20780558.7694   20780551.4094
        55.0004         48.0004
  21078140.2304   10595351.56044   8254978.14242  21078141.4734   21078134.4584
        58.0004         50.0004
  22308508.1744    7216817.21643   5635375.41442  22308509.6984   22308504.2734
        56.0004         47.0004
  20964513.2154     901543.68943    696630.89842  20964513.9684   20964507.5384
        46.0004         39.0004
  22459721.2904    5193751.52943   4059146.01242  22459723.7474   22459719.5394
        51.0004         45.0004
 05  6 24 16 25 30.0000000  0  5G22G21G 3G18G14
  20778287.8794    8515247.08243   6640657.13642  20778288.2194   20778280.0894
        56.0004         48.0004
  21086085.7174   10637104.94644   8287513.21842  21086086.9994   21086079.9594
        57.0004         49.0004
  22300722.6194    7175904.89943   5603495.68342  22300724.3224   22300718.8934
        55.0004         47.0004
  20971150.5964     936419.41743    723806.77242  20971151.8204   20971145.3544
        47.0004         40.0004
  22441041.1164    5095589.95143   3982656.49942  22441043.3414   22441039.1534
        51.0004         45.0004
 05  6 24 16 26  0.0000000  0  7G22G21G 3G19G18G15G14
  20776067.5354    8503583.61243   6631568.72842  20776068.5954   20776060.5474
        55.0004         48.0004
  21094095.0534   10679197.84243   8320312.86142  21094096.3894   21094090.0374
        56.0004         49.0004
  22293034.9064    7135506.53343   5572016.43942  22293036.1934   22293031.5724
        55.0004         47.0004
  24282235.0614    5275681.38253   4124567.12652  24282236.9314   24282231.4894
        46.0004         39.0004
  20977825.0964     971494.98243    751138.36842  20977826.0484   20977821.5984
        48.0004         41.0004
  20159662.6984   -1064757.97553   -822125.56752  20159661.8994   20159655.9764
        39.0004         34.0004
  22422415.5794    4997709.36943   3906385.95542  22422417.9844   22422412.9644
        51.0004         45.0004
 05  6 24 16 26 30.0000000  0  7G22G21G 3G19G18G15G14
  20773900.7334    8492194.58643   6622694.16842  20773901.2794   20773893.2504
        55.0004         48.0004
  21102170.8214   10721636.82143   8353382.18542  21102171.4084   21102165.4214
        55.0004         48.0004
  22285446.6434    7095629.70243   5540943.58842  22285447.8904   22285443.4484
        56.0004         47.0004
  24264999.5294    5185098.43243   4053983.06442  24265000.3174   24264994.8984
        47.0004         40.0004
  20984538.4694    1006775.12743    778629.34242  20984537.2724   20984532.6754
        48.0004         41.0004
  20155343.5454   -1087443.96143   -839802.97042  20155346.6534   20155340.0654
        44.0004         36.0004
  22403843.9064    4900118.28243   3830341.02942  22403846.0554   22403841.0544
        50.0004         44.0004
 05  6 24 16 27  0.0000000  0  7G22G21G 3G19G18G15G14
  20771786.4254    8481081.28743   6614034.47142  20771786.6704   20771779.0374
        55.0004         48.0004
  21110312.8004   10764423.97043   8386722.81042  21110313.6064   21110307.7354
        55.0004         48.0004
  22277958.3354    7056277.53943   5510279.57642  22277960.0404   22277955.0724
        56.0004         48.0004
  24247813.7834    5094792.73343   3983615.02642  24247814.5494   24247809.2944
        47.0004         40.0004
  20991292.0454    1042260.94743    806280.62142  20991292.9164   20991285.9814
        48.0004         41.0004
  20151088.7084   -1109802.86343   -857225.47142  20151092.1664   20151087.0034
        45.0004         38.0004
  22385328.5934    4802821.20943   3754525.18042  22385330.2464   22385325.6364
        50.0004         43.0004
 05  6 24 16 27 30.0000000  0  7G22G21G 3G19G18G15G14
  20769720.4004    8470225.72643   6605575.60142  20769720.9084   20769713.7404
        55.0004         48.0004
  21118517.8294   10807543.36243   8420322.31142  21118518.8144   21118512.5374
        55.0004         48.0004
  22270565.9464    7017434.49643   5480012.28742  22270567.6234   22270563.1454
        55.0004         48.0004
  24230679.3204    5004750.10543   3913451.98142  24230680.9804   24230675.1224
        48.0004         40.0004
  20998079.6104    1077934.07843    834077.88842  20998081.6494   20998074.2374
        49.0004         42.0004
  20146892.0794   -1131849.74343   -874404.84842  20146894.3524   20146891.5494
        44.0004         39.0004
  22366866.7974    4705803.65843   3678927.10742  22366868.6484   22366864.6174
        50.0004         43.0004
 05  6 24 16 28  0.0000000  0  7G22G21G 3G19G18G15G14
  20767706.5954    8459646.25943   6597331.86042  20767707.7154   20767700.2754
        54.0004         47.0004
  21126790.1834   10851014.14843   8454195.60342  21126791.0404   21126784.6544
        55.0004         48.0004
  22263275.3284    6979120.84543   5450157.50042  22263276.5924   22263272.8104
        55.0004         48.0004
  24213598.5874    4914992.19343   3843510.79442  24213600.8804   24213595.7504
        47.0004         40.0004
  21004907.6154    1113812.62643    862035.20842  21004908.2144   21004901.9534
        50.0004         43.0004
  20142760.5194   -1153563.93943   -891324.99642  20142760.0744   20142759.6714
        45.0004         39.0004
  22348463.1964    4609086.68543   3603563.26042  22348464.7274   22348458.6134
        50.0004         44.0004
 05  6 24 16 28 30.0000000  0  8G22G21G 3G19G18G15G 9G14
  20765742.0114    8449324.44243   6589288.90442  20765743.0744   20765735.6104
        53.0004         46.0004
  21135126.2814   10894819.12343   8488329.30342  21135127.4734   21135121.3884
        56.0004         49.0004
  22256082.7504    6941320.00443   5420702.31542  22256083.7304   22256079.2614
        55.0004         48.0004
  24196569.0144    4825503.77643   3773779.58142  24196569.9744   24196565.7904
        47.0004         40.0004
  21011770.7424    1149877.90543    890138.01342  21011771.5944   21011766.2134
        50.0004         43.0004
  20138690.7984   -1174961.77343   -907998.64042  20138693.3644   20138686.9724
        47.0004         39.0004
  23615838.830
        43.000
  22330114.6704    4512655.82743   3528422.39542  22330115.6934   22330108.8484
        52.0004         45.0004
 05  6 24 16 29  0.0000000  0  8G22G21G 3G19G18G15G 9G14
  20763830.2714    8439277.51943   6581460.14142  20763830.6884   20763823.7384
        52.0004         46.0004
  21143529.3104   10938976.47744   8522737.59942  21143530.8304   21143524.4484
        57.0004         49.0004
  22248989.9894    6904051.44043   5391661.89142  22248991.4884   22248987.1944
        55.0004         48.0004
  24179595.2834    4736305.72543   3704274.64142  24179595.9474   24179591.1384
        46.0004         40.0004
  21018671.9394    1186147.21343    918399.81542  21018674.2474   21018667.5944
        50.0004         43.0004
  20134681.8714   -1196023.72743   -924410.60442  20134685.5534   20134677.6954
        49.0004         40.0004
  23606027.857
        42.000
  22311822.4824    4416531.45143   3453520.33942  22311824.8184   22311817.4044
        53.0004         45.0004
 05  6 24 16 29 30.0000000  0  8G22G21G 3G19G18G15G 9G14
  20761969.3454    8429496.41943   6573838.52042  20761969.8854   20761962.3464
        52.0004         45.0004
  21151997.6884   10983478.33244   8557414.33542  21151999.4164   21151992.6394
        58.0004         49.0004
  22241997.6194    6867307.84043   5363030.52442  22241999.3174   22241994.5524
        54.0004         47.0004
  24162675.9724    4647392.09143   3634991.31242  24162677.3664   24162672.4904
        46.0004         40.0004
  21025610.5964    1222611.23743    946813.31142  21025612.6584   21025605.3734
        50.0004         43.0004
  20130734.9204   -1216756.39843   -940565.94242  20130737.7864   20130731.6844
        48.0004         40.0004
  23596295.4114   -1059620.53453   -788786.17852  23596299.7884   23596287.5394
        40.0004         33.0004
  22293587.2754    4320707.73743   3378852.56742  22293589.5054   22293583.0174
        53.0004         45.0004
 05  6 24 16 30  0.0000000  0  8G22G21G 3G19G18G15G 9G14
  20760162.2944    8419994.72343   6566434.61842  20760162.2614   20760154.1504
        53.0004         45.0004
  21160534.5174   11028339.29544   8592370.88742  21160536.2324   21160529.0304
        58.0004         49.0004
  22235108.7314    6831105.03443   5334820.55342  22235110.1824   22235104.9414
        55.0004         47.0004
  24145814.8444    4558780.20643   3565943.13242  24145815.7004   24145808.5254
        46.0004         40.0004
  21032589.2204    1259283.21143    975388.86542  21032591.2914   21032584.6024
        50.0004         44.0004
  20126856.5614   -1237143.81343   -956452.26142  20126857.4724   20126851.2004
        47.0004         40.0004
  23586644.0774   -1110331.43153                                  23586645.8254
        36.0004
  22275411.9064    4225201.60443   3304432.25542  22275414.5154   22275409.3624
        52.0004         45.0004
 05  6 24 16 30 30.0000000  0  7G22G21G 3G19G18G15G14
  20758402.8624    8410751.83043   6559232.38642  20758403.1874   20758394.7574
        53.0004         46.0004
  21169135.9574   11073540.27744   8627592.39142  21169137.6034   21169130.6094
        57.0004         49.0004
  22228319.0404    6795424.78643   5307017.76942  22228320.8204   22228315.5284
        55.0004         47.0004
  24129006.3604    4470453.10943   3497116.82742  24129008.1124   24129000.3544
        47.0004         40.0004
  21039603.4994    1296142.33143   1004110.22842  21039604.8774   21039597.7594
        50.0004         44.0004
  20123040.4074   -1257203.81443   -972083.44642  20123042.0004   20123034.4554
        49.0004         42.0004
  22257295.1534    4129995.89043   3230246.01942  22257297.1374   22257291.5544
        51.0004         45.0004
 05  6 24 16 31  0.0000000  0  7G22G21G 3G19G18G15G14
  20756694.2274    8401770.23543   6552233.77042  20756694.7404   20756686.5534
        53.0004         46.0004
  21177802.7024   11119084.97543   8663081.73742  21177804.1864   21177797.8384
        56.0004         49.0004
  22221629.8664    6760271.20643   5279625.36142  22221631.6544   22221626.4734
        55.0004         47.0004
  24112253.2034    4382416.57843   3428516.96342  24112253.5384   24112249.2814
        47.0004         41.0004
  21046653.3734    1333190.54343   1032978.94842  21046655.0774   21046647.8934
        49.0004         43.0004
  20119286.2444   -1276931.91343   -987455.98642  20119289.3674   20119282.0244
        49.0004         43.0004
  22239236.3334    4035095.98543   3156298.09242  22239238.0464   22239231.3344
        52.0004         45.0004
 05  6 24 16 31 30.0000000  0  7G22G21G 3G19G18G15G14
  20755033.7784    8393050.27143   6545439.02442  20755034.0354   20755027.3834
        53.0004         46.0004
  21186535.1224   11164974.46943   8698839.76442  21186535.8144   21186530.5974
        54.0004         48.0004
  22215041.1804    6725646.59843   5252645.14342  22215042.6414   22215038.2464
        55.0004         47.0004
  24095556.1314    4294674.08143   3360146.21242  24095556.1684   24095550.2554
        48.0004         41.0004
  21053739.6514    1370428.10943   1061995.23442  21053739.8934   21053735.7534
        49.0004         43.0004
  20115595.0834   -1296325.40443  -1002567.79542  20115598.2264   20115591.7784
        48.0004         43.0004
  22221235.6054    3940505.78343   3082591.48642  22221237.2044   22221230.9734
        51.0004         44.0004
 05  6 24 16 32  0.0000000  0  7G22G21G 3G19G18G15G14
  20753424.6364    8384590.88443   6538847.31442  20753425.0374   20753416.8124
        52.0004         46.0004
  21195334.2054   11211209.01043   8734866.66342  21195334.7274   21195328.7954
        54.0004         48.0004
  22208553.1774    6691551.95343   5226077.89142  22208554.5234   22208550.3874
        55.0004         47.0004
  24078915.9144    4207228.34743   3292006.72542  24078917.2724   24078910.9674
        48.0004         41.0004
  21060860.7504    1407854.12643   1091158.34242  21060862.1954   21060855.3314
        48.0004         43.0004
  20111969.3884   -1315382.79643  -1017417.69742  20111969.4314   20111966.1144
        47.0004         43.0004
  22203295.4604    3846227.65943   3009128.06542  22203297.3304   22203291.4014
        53.0004         45.0004
 05  6 24 16 32 30.0000000  0  7G22G21G 3G19G18G15G14
  20751863.9514    8376395.17443   6532461.05442  20751865.1044   20751859.0314
        51.0004         45.0004
  21204198.4434   11257792.41643   8771165.41542  21204198.9294   21204193.0064
        55.0004         48.0004
  22202166.7324    6657991.84643   5199927.15942  22202168.7444   22202163.9944
        55.0004         47.0004
  24062332.5074    4120085.48043   3224103.22742  24062334.0214   24062327.2904
        47.0004         40.0004
  21068019.9434    1445471.42843   1120470.52042  21068020.6814   21068015.0744
        49.0004         43.0004
  20108406.6484   -1334098.75943  -1032001.53842  20108407.5844   20108404.3774
        46.0004         42.0004
  22185415.2864    3752267.68843   2935912.52942  22185417.0844   22185412.2964
        52.0004         45.0004
 05  6 24 16 33  0.0000000  0  7G22G21G 3G19G18G15G14
  20750354.6164    8368456.87443   6526275.38642  20750354.9384   20750347.1514
        51.0004         45.0004
  21213127.7204   11304720.13243   8807732.45942  21213128.8774   21213123.6084
        55.0004         48.0004
  22195881.7254    6624962.11943   5174189.71642  22195883.3884   22195878.2314
        54.0004         47.0004
  24045806.6804    4033242.90543   3156433.71242  24045810.2374   24045801.4714
        46.0004         39.0004
  21075212.9534    1483273.07243   1149926.35442  21075215.0184   21075207.0294
        50.0004         44.0004
  20104909.3984   -1352476.90343  -1046322.14342  20104909.8544   20104905.2294
        47.0004         43.0004
  22167596.1834    3658622.86343   2862942.57442  22167597.8084   22167593.2784
        53.0004         46.0004
 05  6 24 16 33 30.0000000  0  8G22G21G 3G19G18G15G 9G14
  20748892.6944    8360775.25943   6520289.71542  20748893.0374   20748885.6714
        51.0004         45.0004
  21222123.6624   11351992.13343   8844567.76542  21222124.9004   21222119.0884
        56.0004         48.0004
  22189697.4024    6592463.88543   5148866.42142  22189698.5184   22189693.6634
        54.0004         47.0004
  24029337.8244    3946703.18543   3089000.21142  24029338.8334   24029333.7544
        45.0004         39.0004
  21082440.6384    1521258.18443   1179525.14842  21082442.3344   21082436.6514
        50.0004         45.0004
  20101478.3244   -1370515.70943  -1060378.31342  20101477.8914   20101472.8444
        49.0004         43.0004
  23521340.327
        45.000
  22149836.2444    3565295.62043   2790220.08642  22149838.5364   22149833.3984
        53.0004         46.0004
 05  6 24 16 34  0.0000000  0  8G22G21G 3G19G18G15G 9G14
  20747480.6194    8353350.35143   6514504.07742  20747480.8424   20747472.1444
        50.0004         45.0004
  21231185.0134   11399609.73144   8881672.34042  21231186.5624   21231180.3084
        57.0004         48.0004
  22183614.3234    6560499.31743   5123958.97542  22183616.2654   22183610.8944
        53.0004         46.0004
  24012929.3484    3860470.13943   3021805.62642  24012930.2404   24012925.0754
        44.0004         38.0004
  21089704.6274    1559427.10343   1209267.13842  21089706.1904   21089698.4244
        51.0004         45.0004
  20098109.5404   -1388212.71043  -1074168.18442  20098111.1604   20098105.7554
        51.0004         45.0004
  23512338.2544    -774939.08753   -597218.49652  23512343.2474   23512328.3894
        47.0004         35.0004
  22132137.5474    3472289.27243   2717747.64042  22132139.4914   22132133.8514
        53.0004         45.0004
 05  6 24 16 34 30.0000000  0  8G22G21G 3G19G18G15G 9G14
  20746117.3584    8346192.70843   6508926.69242  20746118.6764   20746110.5604
        49.0004         44.0004
  21240314.2994   11447584.39844   8919055.15642  21240316.0114   21240309.8694
        57.0004         48.0004
  22177635.4794    6529080.60843   5099476.88342  22177637.2744   22177632.6334
        52.0004         46.0004
  23996580.8874    3774557.56443   2954860.83542  23996578.3014   23996573.6624
        42.0004         37.0004
  21097005.5114    1597789.89643   1239160.21242  21097007.1924   21096999.6014
        53.0004         46.0004
  20094808.7514   -1405554.97243  -1087681.62942  20094810.3474   20094805.8454
        51.0004         45.0004
  23503420.6784    -821796.22243   -633730.44042  23503422.5904   23503412.5214
        47.0004         36.0004
  22114502.7904    3379617.96443   2645536.26142  22114504.1754   22114498.4624
        52.0004         45.0004
 05  6 24 16 35  0.0000000  0  8G22G21G 3G19G18G15G 9G14
  20744802.3584    8339285.65243   6503544.57142  20744802.5814   20744796.4294
        49.0004         43.0004
  21249508.5624   11495900.49144   8956703.99942  21249510.7234   21249503.8994
        57.0004         48.0004
  22171757.7724    6498192.79043   5075408.48542  22171759.5044   22171755.1814
        52.0004         46.0004
  23980290.9974    3688951.96643   2888155.16942  23980291.2394   23980285.5734
        42.0004         37.0004
  21104338.9234    1636329.85343   1269191.32442  21104340.0244   21104333.8204
        53.0004         46.0004
  20091573.0494   -1422557.02343  -1100929.98542  20091574.9624   20091570.2554
        52.0004         45.0004
  23494586.7644    -868216.35743   -669901.88142  23494590.0004   23494583.3094
        45.0004         36.0004
  22096928.8904    3287267.88643   2573575.20442  22096930.4944   22096924.2354
        52.0004         45.0004
 05  6 24 16 35 30.0000000  0  8G22G21G 3G19G18G15G 9G14
  20743538.0194    8332637.76943   6498364.41442  20743538.8884   20743530.5514
        48.0004         43.0004
  21258769.5154   11544567.83943   8994626.56442  21258771.3614   21258765.0674
        56.0004         48.0004
  22165982.6944    6467846.30143   5051761.88242  22165984.7124   22165980.3554
        52.0004         45.0004
  23964060.8274    3603665.62243   2821698.31242  23964060.9944   23964056.1024
        43.0004         38.0004
  21111708.8504    1675055.14143   1299366.84942  21111710.1914   21111702.4634
        54.0004         46.0004
  20088405.3674   -1439207.76343  -1113904.58642  20088407.2494   20088401.5664
        54.0004         46.0004
  23485836.6314    -914187.47643   -705723.49742  23485839.5244   23485839.0924
        43.0004         35.0004
  22079418.9794    3195251.15443   2501873.87942  22079421.3884   22079414.3024
        53.0004         45.0004
 05  6 24 16 36  0.0000000  0  8G22G21G 3G19G18G15G 9G14
  20742323.4214    8326249.22843   6493386.32142  20742323.7624   20742315.2344
        48.0004         43.0004
  21268097.8204   11593587.30643   9032823.51742  21268099.4974   21268093.4584
        56.0004         48.0004
  22160311.7874    6438042.70243   5028538.30642  22160312.8234   22160308.0104
        51.0004         45.0004
  23947893.0034    3518701.95043   2755492.92642  23947893.7174   23947889.1824
        44.0004         38.0004
  21119113.3334    1713965.79443   1329686.80842  21119115.2614   21119106.5424
        54.0004         47.0004
  20085303.2424   -1455504.77243  -1126603.56742  20085305.7774   20085300.8774
        55.0004         47.0004
  23477170.4854    -959705.78143   -741192.26342  23477177.1814   23477174.8354
        40.0004         33.0004
  22061972.8554    3103570.66243   2430434.57542  22061974.2454   22061968.3384
        53.0004         46.0004
 05  6 24 16 36 30.0000000  0  8G22G21G 3G19G18G15G 9G14
  20741155.8704    8320112.18943   6488604.21642  20741156.6664   20741147.3824
        49.0004         43.0004
  21277492.4494   11642952.42643   9071289.82342  21277493.3124   21277487.4724
        55.0004         48.0004
  22154742.0494    6408776.32043   5005733.35842  22154744.2554   22154738.4994
        51.0004         45.0004
  23931786.9444    3434056.65343   2689535.57242  23931788.0714   23931781.6404
        46.0004         39.0004
  21126551.9814    1753053.87143   1360145.03542  21126553.1274   21126544.9134
        53.0004         46.0004
  20082268.5164   -1471453.42443  -1139031.07742  20082270.6654   20082265.8844
        55.0004         48.0004
  23468594.4314   -1004775.35543   -776311.45742  23468594.4474   23468595.1624
        39.0004         33.0004
  22044590.1364    3012222.07943   2359253.90542  22044591.6304   22044585.8544
        53.0004         46.0004
 05  6 24 16 37  0.0000000  0  8G22G21G 3G19G18G15G 9G14
  20740034.1024    8314227.62843   6484018.86642  20740035.6944   20740028.0344
        49.0004         42.0004
  21286952.3054   11692665.21943   9110027.05642  21286952.6834   21286947.0984
        54.0004         48.0004
  22149275.8414    6380049.88343   4983349.12742  22149276.9964   22149272.8264
        51.0004         45.0004
  23915739.7134    3349733.94143   2623829.62042  23915741.3194   23915735.7964
        45.0004         39.0004
  21134024.9544    1792320.48943   1390742.38642  21134025.9494   21134017.4314
        53.0004         46.0004
  20079300.5764   -1487050.49843  -1151184.63742  20079302.6584   20079297.3104
        56.0004         48.0004
  23460109.7284   -1049391.71853   -811077.46152  23460111.1764   23460107.7934
        41.0004         34.0004
  22027269.9524    2921209.28343   2288334.91342  22027272.2654   22027265.4764
        53.0004         45.0004
 05  6 24 16 37 30.0000000  0  8G22G21G 3G19G18G15G 9G14
  20738961.7184    8308591.49443   6479627.08142  20738963.5344   20738955.6354
        48.0004         42.0004
  21296476.2304   11742722.43843   9149032.68642  21296477.0594   21296472.9004
        52.0004         47.0004
  22143911.2974    6351860.96343   4961383.74342  22143912.5574   22143908.1044
        52.0004         45.0004
  23899755.9024    3265733.33743   2558374.61242  23899756.1924   23899750.3464
        46.0004         39.0004
  21141529.3884    1831760.98243   1421475.24242  21141531.2934   21141522.9384
        52.0004         46.0004
  20076399.7284   -1502297.43243  -1163065.37542  20076401.6734   20076395.1714
        56.0004         48.0004
  23451707.7424   -1093555.23943   -845490.57442  23451707.4704   23451700.0734
        45.0004         36.0004
  22010014.6154    2830531.78343   2217677.16742  22010016.4224   22010009.2414
        52.0004         45.0004
 05  6 24 16 38  0.0000000  0  8G22G21G 3G19G18G15G 9G14
  20737938.1734    8303208.19243   6475432.32542  20737937.9074   20737930.7904
        48.0004         42.0004
  21306068.7224   11793129.63943   9188311.03842  21306068.9094   21306065.0444
        53.0004         47.0004
  22138650.5454    6324215.74643   4939842.02042  22138651.8104   22138647.5174
        52.0004         45.0004
  23883832.0734    3182062.50943   2493176.62642  23883833.8414   23883828.8194
        45.0004         39.0004
  21149068.0634    1871379.73143   1452347.03042  21149068.9674   21149061.9574
        51.0004         45.0004
  20073566.0814   -1517187.72943  -1174668.20842  20073567.9544   20073561.3894
        56.0004         48.0004
  23443389.1814   -1137258.02943   -879544.64142  23443392.5284   23443384.7924
        44.0004         36.0004
  21992825.2634    2740196.96443   2147286.45342  21992826.7354   21992819.7544
        53.0004         46.0004
 05  6 24 16 38 30.0000000  0  8G22G21G 3G19G18G15G 9G14
  20736960.6744    8298077.73943   6471434.59942  20736961.3134   20736954.3674
        48.0004         42.0004
  21315728.4384   11843887.89843   9227862.92742  21315728.5574   21315724.4144
        55.0004         48.0004
  22133494.6194    6297116.01743   4918725.35242  22133494.6284   22133491.3084
        53.0004         45.0004
  23867973.8254    3098724.95143   2428238.32442  23867974.5394   23867968.7954
        45.0004         38.0004
  21156640.6934    1911176.47543   1483357.51642  21156642.6084   21156635.4434
        51.0004         46.0004
  20070800.7744   -1531718.88743  -1185991.19842  20070802.6694   20070797.2304
        56.0004         48.0004
  23435161.6624   -1180496.72343   -913237.07342  23435163.6324   23435156.2314
        43.0004         36.0004
  21975701.4734    2650208.23543   2077165.41742  21975703.1154   21975696.6944
        54.0004         47.0004
 05  6 24 16 39  0.0000000  0  8G22G21G 3G19G18G15G 9G14
  20736032.0234    8293195.11643   6467629.97342  20736033.0354   20736025.6714
        47.0004         41.0004
  21325453.7464   11894993.16044   9267685.17142  21325454.8194   21325448.9214
        57.0004         48.0004
  22128441.3894    6270558.37743   4898031.08842  22128443.0484   22128437.4434
        54.0004         46.0004
  23852177.6794    3015719.17443   2363558.53142  23852179.2764   23852174.6304
        43.0004         37.0004
  21164246.5334    1951146.80243   1514503.23942  21164248.8564   21164241.1404
        52.0004         46.0004
  20068103.6194   -1545893.39243  -1197036.26742  20068105.0244   20068100.1674
        56.0004         48.0004
  23427019.3794   -1223272.57843   -946568.84942  23427023.0664   23427017.6754
        41.0004         35.0004
  21958642.5404    2560563.56143   2007312.48142  21958644.3994   21958638.7034
        54.0004         47.0004
 05  6 24 16 39 30.0000000  0  8G22G21G 3G19G18G15G 9G14
  20735150.3264    8288564.33643   6464021.61442  20735151.7694   20735144.0164
        47.0004         41.0004
  21335245.4044   11946450.13844   9307781.46442  21335247.1674   21335241.1364
        58.0004         48.0004
  22123490.6184    6244548.00943   4877763.27642  22123492.4614   22123488.3204
        53.0004         46.0004
  23836445.9304    2933052.26643   2299142.82042  23836448.0844   23836440.5934
        42.0004         36.0004
  21171886.5504    1991294.17143   1545786.90442  21171887.9604   21171880.9834
        53.0004         46.0004
  20065476.0324   -1559705.16343  -1207798.68342  20065476.9904   20065471.8464
        56.0004         49.0004
  23418968.3074   -1265578.17543   -979534.22942  23418971.3734   23418963.4914
        41.0004         34.0004
  21941649.1634    2471269.82143   1937732.98342  21941651.5724   21941646.8444
        53.0004         47.0004
 05  6 24 16 40  0.0000000  0  8G22G21G 3G19G18G15G 9G14
  20734315.7414    8284179.12943   6460604.59942  20734317.7424   20734309.0594
        47.0004         41.0004
  21345103.6174   11998253.72844   9348147.84142  21345105.7564   21345097.8674
        58.0004         48.0004
  22118644.4004    6219080.44943   4857918.42342  22118645.6764   22118641.5674
        53.0004         46.0004
  23820780.2304    2850721.43943   2234988.94942  23820780.7964   23820773.6094
        42.0004         36.0004
  21179558.7914    2031612.03343   1577203.39742  21179560.8714   21179552.8294
        54.0004         46.0004
  20062915.4994   -1573158.17443  -1218281.54242  20062916.6684   20062911.8784
        56.0004         49.0004
  23411010.1464   -1307416.29543  -1012135.25142  23411013.0484   23411001.1884
        42.0004         35.0004
  21924722.1944    2382324.09143   1868424.62642  21924724.7094   21924722.0044
        52.0004         47.0004
 05  6 24 16 40 30.0000000  0  8G22G21G 3G19G18G15G 9G14
  20733528.3924    8280041.03543   6457380.11142  20733528.2254   20733521.3494
        46.0004         41.0004
  21355027.9304   12050406.27544   9388786.14042  21355029.9434   21355022.1394
        57.0004         48.0004
  22113901.9264    6194158.71243   4838498.89442  22113903.8604   22113899.4034
        54.0004         46.0004
  23805178.1114    2768731.57943   2171100.82442  23805179.5834   23805171.9954
        42.0004         37.0004
  21187264.2954    2072101.48243   1608753.59742  21187265.7924   21187257.4864
        54.0004         46.0004
  20060424.0234   -1586248.63843  -1228481.90242  20060425.3284   20060421.0164
        56.0004         49.0004
  23403136.2514   -1348781.92743  -1044368.13842  23403138.6214   23403134.7474
        42.0004         36.0004
  21907865.2994    2293730.81643   1799390.91342  21907866.5174   21907862.8214
        52.0004         47.0004
 05  6 24 16 41  0.0000000  0  8G22G21G 3G19G18G15G 9G14
  20732788.3514    8276146.92643   6454345.75542  20732788.7374   20732781.4524
        46.0004         41.0004
  21365018.4184   12102905.48143   9429694.56842  21365019.8064   21365013.1104
        56.0004         47.0004
  22109263.1344    6169781.31943   4819503.52742  22109264.5804   22109260.4604
        54.0004         46.0004
  23789641.1824    2687082.82243   2107478.47642  23789641.9914   23789634.7654
        43.0004         38.0004
  21195001.0824    2112759.58043   1640435.20842  21195002.8964   21194994.1284
        54.0004         46.0004
  20058002.2484   -1598977.34443  -1238400.36442  20058003.0914   20057998.4984
        56.0004         49.0004
  23395356.4984   -1389674.62743  -1076232.57642  23395359.0024   23395352.5214
        41.0004         37.0004
  21891074.3694    2205490.33743   1730632.11942  21891075.6754   21891070.5894
        53.0004         47.0004
 05  6 24 16 41 30.0000000  0  8G22G21G 3G19G18G15G 9G14
  20732095.3864    8272500.70243   6451504.56742  20732096.0884   20732087.6454
        47.0004         42.0004
  21375075.8134   12155756.49543   9470877.14742  21375076.2254   21375070.5614
        53.0004         46.0004
  22104728.3274    6145953.89843   4800936.70942  22104730.6174   22104725.8834
        53.0004         45.0004
  23774170.0764    2605782.75243   2044127.84142  23774171.4314   23774165.3234
        44.0004         39.0004
  21202771.0974    2153590.66343   1672251.61442  21202772.4024   21202764.1224
        54.0004         46.0004
  20055649.4804   -1611337.71943  -1248031.82042  20055650.9834   20055646.1954
        56.0004         50.0004
  23387662.5024   -1430086.74543  -1107722.51342  23387662.2984   23387662.5354
        37.0004         35.0004
  21874350.9604    2117609.55343   1662153.65042  21874352.5534   21874345.5834
        54.0004         46.0004
 05  6 24 16 42  0.0000000  0  7G22G21G 3G19G18G15G14
  20731447.6014    8269107.51443   6448860.52542  20731449.0584   20731442.4084
        46.0004         41.0004
  21385199.4334   12208965.16943   9512338.46642  21385199.2084   21385195.4034
        50.0004         45.0004
  22100300.6304    6122682.90843   4782803.46542  22100302.3214   22100296.8264
        54.0004         45.0004
  23758766.9024    2524839.66543   1981055.35642  23758768.3674   23758762.1424
        44.0004         39.0004
  21210574.7564    2194599.21343   1704206.30942  21210576.0204   21210568.2734
        53.0004         46.0004
  20053368.8064   -1623322.48643  -1257370.59142  20053369.7724   20053365.8544
        56.0004         50.0004
  21857696.8504    2030096.46843   1593961.71142  21857698.8994   21857692.0334
        54.0004         46.0004
 05  6 24 16 42 30.0000000  0  7G22G21G 3G19G18G15G14
  20730848.3984    8265948.51743   6446398.96642  20730847.9274   20730841.1974
        47.0004         41.0004
  21395390.8364   12262513.75743   9554064.64942  21395389.8584   21395385.0774
        51.0004         45.0004
  22095975.2544    6099951.03743   4765090.30642  22095975.4484   22095971.3024
        54.0004         45.0004
  23743429.5594    2444238.05743   1918248.95042  23743430.2404   23743425.5694
        44.0004         40.0004
  21218408.4824    2235766.33843   1736284.59042  21218410.1194   21218402.7074
        53.0004         46.0004
  20051156.9724   -1634948.01343  -1266429.43442  20051157.9654   20051153.7534
        56.0004         50.0004
  21841110.5624    1942935.53243   1526044.17142  21841112.1344   21841106.3884
        54.0004         46.0004
 05  6 24 16 43  0.0000000  0  8G22G21G 3G19G18G15G 9G14
  20730291.1344    8263028.73043   6444123.80042  20730293.4284   20730285.4804
        46.0004         41.0004
  21405647.3854   12316408.32343   9596060.39042  21405647.6664   21405640.5294
        53.0004         47.0004
  22091753.4684    6077764.90243   4747802.39442  22091754.8024   22091749.3604
        54.0004         45.0004
  23728157.2754    2363986.45843   1855715.30142  23728158.6564   23728153.3354
        44.0004         41.0004
  21226273.0794    2277097.44343   1768490.65642  21226274.8984   21226268.0604
        51.0004         46.0004
  20049015.1274   -1646207.05744  -1275202.70842  20049016.3964   20049011.0814
        57.0004         51.0004
  23365146.1544    -347150.84453   -262245.45852  23365148.7594   23365139.7954
        41.0004         36.0004
  21824593.4764    1856135.00143   1458407.43942  21824595.1054   21824589.1144
        54.0004         47.0004
 05  6 24 16 43 30.0000000  0  8G22G21G 3G19G18G15G 9G14
  20729780.2214    8260345.80843   6442033.23242  20729781.6144   20729773.1704
        45.0004         40.0004
  21415968.2584   12370647.16343   9638324.38042  21415969.7214   21415962.9134
        55.0004         48.0004
  22087634.6624    6056123.46743   4730938.93142  22087636.4144   22087632.2254
        53.0004         45.0004
  23712952.2924    2284085.73543   1793455.04242  23712953.4264   23712949.2604
        45.0004         41.0004
  21234168.4684    2318589.70843   1800822.31542  21234169.3914   21234163.5024
        51.0004         46.0004
  20046942.1604   -1657099.83444  -1283690.56542  20046943.7044   20046938.2194
        58.0004         51.0004
  23357822.3324    -385635.85043   -292233.69242  23357824.3364   23357816.5774
        41.0004         36.0004
  21808144.8164    1769695.36943   1391051.91542  21808146.2854   21808140.4954
        54.0004         47.0004
 05  6 24 16 44  0.0000000  0  8G22G21G 3G19G18G15G 9G14
  20729314.3014    8257908.61243   6440134.08842  20729315.3644   20729308.0914
        42.0004         38.0004
  21426356.2154   12425239.99743   9680864.22842  21426358.4194   21426352.1724
        56.0004         48.0004
  22083622.4934    6035036.85143   4714507.80442  22083624.1264   22083618.0434
        53.0004         45.0004
  23697816.5664    2204547.99943   1731477.62142  23697818.0094   23697813.1254
        46.0004         41.0004
  21242096.4504    2360251.65243   1833286.17142  21242097.9834   21242091.4464
        52.0004         46.0004
  20044940.9994   -1667615.24544  -1291884.37442  20044942.5214   20044936.9924
        58.0004         52.0004
  23350592.1564    -423626.03443   -321836.37842  23350595.6154   23350588.2094
        42.0004         37.0004
  21791766.0284    1683628.64443   1323986.96942  21791768.4234   21791763.6884
        53.0004         47.0004
 05  6 24 16 44 30.0000000  0  8G22G21G 3G19G18G15G 9G14
  20728898.1704    8255710.59143   6438421.34242  20728900.0594   20728890.7374
        42.0004         38.0004
  21436811.4394   12480181.30043   9723675.60942  21436812.9344   21436807.0014
        56.0004         48.0004
  22079713.9364    6014500.03643   4698505.09642  22079715.2494   22079710.2264
        53.0004         45.0004
  23682750.2854    2125369.92243   1669780.45542  23682751.6794   23682745.9634
        46.0004         42.0004
  21250056.1874    2402077.26643   1865877.58642  21250057.8334   21250051.0784
        53.0004         47.0004
  20043011.0134   -1677757.19444  -1299787.17242  20043012.4024   20043007.0594
        58.0004         52.0004
  23343456.6934    -461124.19543   -351055.69442  23343459.7204   23343453.8594
        44.0004         38.0004
  21775458.2544    1597931.22143   1257209.79142  21775460.3304   21775455.4354
        54.0004         47.0004
 05  6 24 16 45  0.0000000  0  8G22G21G 3G19G18G15G 9G14
  20728526.7304    8253753.58743   6436896.40442  20728525.5454   20728519.7014
        42.0004         37.0004
  21447333.4674   12535473.21143   9766760.19342  21447335.0244   21447328.1964
        56.0004         48.0004
  22075911.2944    5994515.99843   4682933.11842  22075912.7844   22075907.8444
        53.0004         46.0004
  23667752.6924    2046556.80343   1608367.66742  23667753.8104   23667749.4344
        46.0004         42.0004
  21258047.1064    2444067.73043   1898597.44242  21258047.9714   21258041.3214
        54.0004         47.0004
  20041152.5954   -1687521.78944  -1307395.93742  20041153.9994   20041149.0374
        58.0004         52.0004
  23336416.0254    -498125.70743   -379888.01942  23336417.7754   23336411.8404
        44.0004         38.0004
  21759221.9084    1512607.46343   1190723.78842  21759223.9444   21759218.8934
        54.0004         47.0004
 05  6 24 16 45 30.0000000  0  8G22G21G 3G19G18G15G 9G14
  20728196.6664    8252033.73343   6435556.18942  20728198.7084   20728189.6714
        41.0004         37.0004
  21457921.5314   12591113.18443   9810115.98542  21457922.6524   21457915.9794
        55.0004         47.0004
  22072213.0724    5975082.43043   4667790.08842  22072215.4954   22072209.0244
        53.0004         45.0004
  23652824.3344    1968108.09343   1547238.84142  23652825.0224   23652818.8574
        46.0004         41.0004
  21266067.8904    2486219.48543   1931442.94542  21266069.6484   21266061.8744
        54.0004         46.0004
  20039366.4984   -1696910.58644  -1314711.87742  20039368.0384   20039362.5594
        59.0004         52.0004
  23329468.4864    -534630.69543   -408333.45042  23329472.0854   23329466.6734
        44.0004         39.0004
  21743056.3354    1427657.06543   1124528.73242  21743057.8744   21743052.5374
        54.0004         47.0004
 05  6 24 16 46  0.0000000  0  8G22G21G 3G19G18G15G 9G14
  20727916.7614    8250551.48143   6434401.19642  20727917.3374   20727906.1974
        44.0004         37.0004
  21468574.7424   12647102.59143   9853744.06942  21468575.7124   21468568.8394
        53.0004         45.0004
  22068620.2974    5956201.12643   4653077.38842  22068621.8104   22068616.4864
        52.0004         46.0004
  23637966.0164    1890027.72043   1486397.01442  23637968.2534   23637961.5724
        46.0004         41.0004
  21274120.2514    2528533.19143   1964414.64542  21274122.1424   21274113.5744
        54.0004         46.0004
  20037651.5924   -1705920.83644  -1321732.84342  20037653.4844   20037647.9094
        59.0004         52.0004
  23322619.7514    -570635.24443   -436388.89042  23322621.3784   23322614.2454
        43.0004         39.0004
  21726960.9224    1343083.49143   1058627.28842  21726963.0564   21726958.2734
        53.0004         46.0004
 05  6 24 16 46 30.0000000  0  8G22G21G 3G19G18G15G 9G14
  20727682.1444    8249308.43143   6433432.63242  20727681.0424   20727670.7844
        46.0004         36.0004
  21479295.8814   12703443.46143   9897646.02642  21479296.9784   21479290.6124
        52.0004         44.0004
  22065132.9044    5937874.85943   4638797.20142  22065134.6974   22065127.9684
        53.0004         46.0004
  23623177.8334    1812320.27743   1425845.79042  23623180.2504   23623172.9854
        45.0004         40.0004
  21282202.6494    2571009.72643   1997513.22542  21282204.3724   21282196.9564
        54.0004         45.0004
  20036009.4234   -1714548.61644  -1328455.78542  20036010.9764   20036005.9684
        58.0004         52.0004
  23315856.5744    -606134.88143   -464050.89642  23315861.3204   23315858.9924
        38.0004         37.0004
  21710940.7364    1258891.35343    993023.05242  21710942.2614   21710937.3054
        52.0004         46.0004
 05  6 24 16 47  0.0000000  0  8G22G21G 3G19G18G15G 9G14
  20727489.2904    8248300.85243   6432647.56042  20727489.5744   20727479.8654
        47.0004         38.0004
  21490084.8504   12760133.36643   9941819.94142  21490085.7504   21490077.7094
        53.0004         45.0004
  22061749.8984    5920101.32143   4624947.70142  22061751.8464   22061746.6064
        53.0004         46.0004
  23608463.0364    1734985.52143   1365584.96342  23608464.9374   23608457.1604
        47.0004         40.0004
  21290316.2964    2613645.60243   2030735.95942  21290317.1624   21290310.4474
        53.0004         44.0004
  20034440.2614   -1722795.38744  -1334881.83642  20034441.4014   20034436.6384
        58.0004         52.0004
  23309204.5694    -641129.98553   -491319.75452  23309203.9174   23309198.6764
        36.0004         36.0004
  21694993.3464    1175079.92543    927715.47642  21694995.6104   21694988.9174
        54.0004         47.0004
 05  6 24 16 47 30.0000000  0  7G22G21G 3G19G18G15G14
  20727341.9234    8247528.54543   6432045.84642  20727342.3004   20727336.6324
        47.0004         38.0004
  21500939.3384   12817172.49943   9986265.96542  21500940.4894   21500932.8914
        54.0004         46.0004
  22058473.6714    5902881.43543   4611529.61942  22058476.2444   22058470.6824
        53.0004         46.0004
  23593816.7754    1658026.37243   1305616.82942  23593818.9354   23593811.0404
        46.0004         40.0004
  21298458.9374    2656440.55743   2064082.67042  21298460.2464   21298454.3884
        52.0004         45.0004
  20032944.3964   -1730659.49644  -1341009.70842  20032945.3034   20032940.1374
        58.0004         52.0004
  21679118.1054    1091651.54843    862706.39142  21679120.1114   21679113.5934
        55.0004         48.0004
 05  6 24 16 48  0.0000000  0  7G22G21G 3G19G18G15G14
  20727239.5524    8246985.19943   6431622.46642  20727239.8694   20727233.1384
        49.0004         39.0004
  21511858.3864   12874555.25343  10030979.75742  21511859.9064   21511853.1384
        55.0004         46.0004
  22055301.6264    5886209.88843   4598538.80342  22055302.8414   22055298.3104
        53.0004         46.0004
  23579245.1564    1581439.64243   1245938.87442  23579245.5444   23579237.8324
        46.0004         40.0004
  21306631.3444    2699388.20443   2097548.38342  21306632.4654   21306627.4884
        52.0004         45.0004
  20031519.8504   -1738144.86744  -1346842.45642  20031521.0124   20031515.8654
        58.0004         52.0004
  21663314.0454    1008602.91143    797993.22042  21663315.7564   21663310.0154
        56.0004         49.0004
 05  6 24 16 48 30.0000000  0  7G22G21G 3G19G18G15G14
  20727181.2314    8246678.82943   6431383.73942  20727182.0314   20727175.5294
        49.0004         40.0004
  21522845.1304   12932290.47243  10075968.21942  21522846.6644   21522840.2414
        55.0004         47.0004
  22052234.5614    5870096.18643   4585982.68442  22052236.2004   22052231.7914
        53.0004         46.0004
  23564742.6114    1505236.65543   1186559.97942  23564745.0554   23564738.3034
        46.0004         40.0004
  21314834.9854    2742496.50043   2131139.27042  21314835.7444   21314830.6914
        53.0004         46.0004
  20030168.8984   -1745241.13144  -1352372.00342  20030170.2134   20030165.5204
        57.0004         52.0004
  21647584.1444     925944.84043    733584.39442  21647586.0894   21647580.6954
        56.0004         48.0004
 05  6 24 16 49  0.0000000  0  7G22G21G 3G19G18G15G14
  20727166.1274    8246599.88143   6431322.23542  20727165.8244   20727159.8424
        50.0004         41.0004
  21533897.3424   12990369.63443  10121224.68742  21533899.4314   21533893.3314
        56.0004         48.0004
  22049272.9984    5854531.94343   4573854.72042  22049274.3544   22049270.1434
        52.0004         46.0004
  23550313.5744    1429411.59143   1127475.51642  23550314.6874   23550308.3244
        46.0004         40.0004
  21323067.3034    2785756.16443   2164848.10442  21323068.8724   21323063.3944
        55.0004         47.0004
  20028891.7924   -1751955.50444  -1357603.97242  20028892.3164   20028887.7984
        57.0004         51.0004
  21631926.6174     843671.34843    669475.24342  21631928.8604   21631923.8174
        54.0004         47.0004
 05  6 24 16 49 30.0000000  0  7G22G21G 3G19G18G15G14
  20727196.0594    8246754.17743   6431442.46642  20727196.3594   20727190.4374
        50.0004         41.0004
  21545016.2004   13048799.20943  10166754.18942  21545018.0754   21545011.9804
        55.0004         48.0004
  22046416.6024    5839523.90843   4562160.16042  22046418.9804   22046414.1534
        52.0004         46.0004
  23535960.1894    1353972.85343   1068692.13342  23535960.0774   23535953.9934
        46.0004         40.0004
  21331329.6464    2829173.18343   2198679.54042  21331331.0224   21331324.6494
        56.0004         47.0004
  20027688.3794   -1758280.08144  -1362532.19242  20027688.8274   20027684.2734
        57.0004         51.0004
  21616343.0864     761790.68443    605672.16442  21616344.9104   21616341.4844
        51.0004         45.0004
 05  6 24 16 50  0.0000000  0  7G22G21G 3G19G18G15G14
  20727261.4254    8247105.19243   6431716.00142  20727263.2124   20727255.3314
        50.0004         42.0004
  21556194.5024   13107543.48643  10212528.92142  21556196.2374   21556190.9124
        53.0004         47.0004
  22043660.0144    5825036.89843   4550871.58842  22043661.5034   22043657.8144
        52.0004         46.0004
  23521669.7974    1278887.45943   1010184.05142  23521672.3624   23521666.9594
        46.0004         40.0004
  21339614.4694    2872710.61743   2232604.80242  21339615.7474   21339609.7134
        56.0004         47.0004
  20026552.3954   -1764249.16144  -1367183.40142  20026553.3374   20026548.6014
        57.0004         51.0004
  21600832.0874     680269.30343    542148.99742  21600832.8164   21600829.2834
        51.0004         45.0004
 05  6 24 16 50 30.0000000  0  7G22G21G 3G19G18G15G14
  20727379.9094    8247718.48443   6432193.90242  20727379.9134   20727370.6464
        51.0004         42.0004
  21567444.9234   13166668.22443  10258600.13942  21567444.4364   21567441.3944
        50.0004         46.0004
  22041015.4794    5811137.44443   4540040.85542  22041017.1544   22041012.2134
        52.0004         46.0004
  23507462.7514    1204224.27243    952004.94842  23507465.1214   23507458.3524
        45.0004         40.0004
  21347934.3674    2916433.87043   2266674.85242  21347936.3014   21347929.3054
        56.0004         47.0004
  20025496.8124   -1769795.19344  -1371504.96642  20025497.7684   20025493.1114
        57.0004         51.0004
  21585402.8744     599175.41843    478959.00942  21585403.9334   21585397.3754
        54.0004         47.0004
 05  6 24 16 51  0.0000000  0  7G22G21G 3G19G18G15G14
  20727539.2884    8248560.17443   6432849.78142  20727539.8254   20727532.1504
        50.0004         42.0004
  21578761.7254   13226140.83943  10304942.45742  21578761.3754   21578759.1084
        49.0004         45.0004
  22038476.5064    5797792.68543   4529642.34642  22038477.7244   22038472.7254
        53.0004         46.0004
  23493327.5414    1129952.57143    894130.92342  23493330.0944   23493325.8804
        45.0004         40.0004
  21356284.1384    2960309.25443   2300863.43942  21356285.3384   21356277.7564
        56.0004         46.0004
  20024516.4524   -1774949.47944  -1375521.27942  20024517.2684   20024512.2494
        57.0004         51.0004
  21570046.9284     518478.14343    416078.08842  21570048.0044   21570040.7334
        56.0004         48.0004
 05  6 24 16 51 30.0000000  0  7G22G21G 3G19G18G15G14
  20727741.8344    8249625.24743   6433679.72242  20727742.5174   20727733.9474
        50.0004         42.0004
  21590146.4334   13285956.66043  10351552.17942  21590146.3524   21590141.6184
        51.0004         45.0004
  22036041.8524    5784998.72443   4519673.02142  22036043.5324   22036038.1354
        53.0004         46.0004
  23479269.0334    1056070.09743    836560.14242  23479270.6104   23479264.5424
        44.0004         39.0004
  21364660.5384    3004331.71843   2335166.64142  21364662.0794   21364654.9374
        55.0004         46.0004
  20023609.5004   -1779715.09344  -1379234.73042  20023610.4164   20023605.1584
        57.0004         51.0004
  21554764.5614     438175.27843    353504.50142  21554766.5274   21554760.2864
        56.0004         49.0004
 05  6 24 16 52  0.0000000  0  8G22G21G 3G19G18G15G 9G14
  20727986.7604    8250917.15843   6434686.42642  20727987.2264   20727978.7734
        49.0004         42.0004
  21601595.4564   13346119.97743  10398432.64842  21601596.3514   21601589.3134
        54.0004         46.0004
  22033712.9794    5772759.96843   4510136.32742  22033714.4574   22033708.8634
        53.0004         46.0004
  23465286.1074     982583.95243    779298.23042  23465286.1794   23465280.7624
        45.0004         39.0004
  21373066.5754    3048504.68243   2369587.12242  21373068.0064   21373061.5084
        55.0004         46.0004
  20022777.3344   -1784086.31844  -1382640.86342  20022778.4324   20022773.4914
        57.0004         51.0004
  23247975.341
        43.000
  21539558.4294     358273.47043    291243.39642  21539560.3614   21539555.9634
        54.0004         49.0004
 05  6 24 16 52 30.0000000  0  8G22G21G 3G19G18G15G 9G14
  20728276.1654    8252433.56043   6435868.04842  20728277.2484   20728267.8264
        49.0004         42.0004
  21613109.7104   13406628.94143  10445582.41842  21613111.6694   21613103.6584
        56.0004         47.0004
  22031489.0644    5761075.03743   4501031.19042  22031491.1734   22031485.3464
        53.0004         46.0004
  23451376.8704     909494.86843    722345.68442  23451376.4424   23451372.8624
        45.0004         39.0004
  21381500.3444    3092826.26443   2404123.42442  21381502.2934   21381495.7984
        55.0004         47.0004
  20022020.4324   -1788063.57644  -1385740.01342  20022021.0394   20022016.4224
        57.0004         51.0004
  23242397.6854   -1577757.95053  -1226615.47052  23242399.6904   23242395.8074
        45.0004         39.0004
  21524428.7304     278772.82343    229294.85342  21524430.8564   21524427.4744
        53.0004         48.0004
 05  6 24 16 53  0.0000000  0  8G22G21G 3G19G18G15G 9G14
  20728607.7234    8254177.28743   6437226.80242  20728609.1504   20728597.4634
        48.0004         41.0004
  21624689.8874   13467487.08643  10493004.27042  21624692.3334   21624684.8174
        56.0004         47.0004
  22029371.8054    5749947.91643   4492360.69642  22029373.9404   22029368.1024
        53.0004         46.0004
  23437545.7494     836808.80143    665707.19942  23437547.1254   23437538.5344
        45.0004         39.0004
  21389963.5904    3137298.86443   2438777.40042  21389965.0334   21389958.5864
        56.0004         47.0004
  20021339.5154   -1791641.83844  -1388528.25642  20021340.2754   20021335.5904
        57.0004         51.0004
  23236921.5854   -1606528.08043  -1249033.82042  23236924.6584   23236921.0314
        46.0004         39.0004
  21509378.8514     199678.83443    167663.18042  21509380.0984   21509376.3814
        53.0004         48.0004
 05  6 24 16 53 30.0000000  0  8G22G21G 3G19G18G15G 9G14
  20728982.8994    8256148.02643   6438762.45142  20728982.1154   20728973.7814
        47.0004         41.0004
  21636337.4054   13528694.94443  10540698.64642  21636339.1864   21636333.0014
        56.0004         47.0004
  22027360.1204    5739378.98143   4484125.17142  22027361.7004   22027356.4614
        53.0004         46.0004
  23423791.5464     764528.52543    609384.90342  23423792.0734   23423783.6964
        45.0004         39.0004
  21398455.4514    3181922.41243   2473549.00942  21398457.2924   21398451.1354
        56.0004         48.0004
  20020735.2914   -1794819.21144  -1391004.11842  20020735.8994   20020731.0004
        57.0004         51.0004
  23231547.7924   -1634762.30343  -1271034.50042  23231549.3244   23231545.6304
        45.0004         38.0004
  21494406.4214     120994.07743    106350.40942  21494407.5684   21494402.3054
        54.0004         47.0004
 05  6 24 16 54  0.0000000  0  8G22G21G 3G19G18G15G 9G14
  20729398.2294    8258340.61143   6440470.96242  20729399.6654   20729391.5204
        45.0004         40.0004
  21648050.8684   13590247.86443  10588661.92242  21648052.2674   21648045.9684
        55.0004         47.0004
  22025454.6844    5729364.33543   4476321.54642  22025456.1044   22025451.4134
        53.0004         46.0004
  23410113.5794     692652.16043    553377.35242  23410115.0744   23410105.1874
        44.0004         38.0004
  21406974.9524    3226691.47443   2508433.99342  21406976.2594   21406970.5094
        56.0004         49.0004
  20020206.7364   -1797598.31244  -1393169.65042  20020207.7984   20020202.4614
        58.0004         51.0004
  23226276.7074   -1662462.21943  -1292618.84442  23226279.8544   23226271.2784
        46.0004         37.0004
  21479510.0634      42716.32843     45354.82942  21479511.7784   21479505.2634
        54.0004         46.0004
 05  6 24 16 54 30.0000000  0  8G22G21G 3G19G18G15G 9G14
  20729856.3244    8260751.41643   6442349.47642  20729857.6984   20729849.9834
        44.0004         39.0004
  21659828.5654   13652142.70843  10636891.64642  21659830.5804   21659823.6164
        54.0004         47.0004
  22023653.4784    5719900.91143   4468947.45542  22023655.3554   22023649.9044
        53.0004         46.0004
  23396514.3604     621179.09043    497684.09642  23396514.0474   23396504.1954
        45.0004         38.0004
  21415520.8584    3271602.51343   2543429.60042  21415522.5624   21415516.5574
        56.0004         49.0004
  20019753.2204   -1799981.15044  -1395026.40342  20019754.2884   20019749.0864
        58.0004         51.0004
  23221108.0744   -1689628.91843  -1313787.69242  23221110.1474   23221103.4304
        46.0004         37.0004
  21464691.2104     -35155.26543    -15324.22842  21464692.7234   21464685.7334
        54.0004         46.0004
 05  6 24 16 55  0.0000000  0  8G22G21G 3G19G18G15G 9G14
  20730358.5434    8263383.16143   6444400.19642  20730358.0894   20730350.9104
        45.0004         39.0004
  21671673.7344   13714382.68843  10685390.29942  21671674.3394   21671667.6144
        53.0004         47.0004
  22021958.1534    5710992.11343   4462005.53142  22021960.1244   22021954.8144
        53.0004         46.0004
  23382988.0224     550114.92143    442309.46442  23382988.0324   23382980.4764
        43.0004         37.0004
  21424095.0444    3316658.24143   2578537.96542  21424096.6934   21424090.4174
        56.0004         48.0004
  20019375.6114   -1801962.88044  -1396570.59142  20019376.8574   20019371.9554
        58.0004         51.0004
  23216041.4824   -1716257.15143  -1334536.95042  23216041.1104   23216038.4634
        46.0004         37.0004
  21449951.1314    -112615.67443    -75682.90342  21449952.8144   21449946.9474
        54.0004         47.0004
 05  6 24 16 55 30.0000000  0  8G22G21G 3G19G18G15G 9G14
  20730901.0154    8266235.28443   6446622.61942  20730901.3644   20730895.6304
        44.0004         38.0004
  21683582.9244   13776968.20643  10734158.23142  21683583.4064   21683577.1404
        52.0004         46.0004
  22020368.8574    5702638.62143   4455496.31042  22020370.8114   22020364.7394
        54.0004         46.0004
  23369545.2874     479462.47343    387255.63542  23369546.2904   23369535.1884
        43.0004         37.0004
  21432696.1214    3361858.33443   2613758.83642  21432697.6154   21432691.4984
        56.0004         48.0004
  20019074.9824   -1803541.96444  -1397801.03942  20019076.0074   20019071.0264
        58.0004         51.0004
  23211077.2174   -1742344.37043  -1354864.63542  23211077.3394   23211076.1194
        47.0004         38.0004
  21435289.9154    -189662.51443   -135719.35142  21435291.1574   21435286.2984
        54.0004         48.0004
 05  6 24 16 56  0.0000000  0  8G22G21G 3G19G18G15G 9G14
  20731484.3134    8269307.19143   6449016.29942  20731485.2054   20731478.7634
        43.0004         38.0004
  21695555.9994   13839898.77143  10783195.05442  21695556.5484   21695552.9274
        50.0004         46.0004
  22018884.8324    5694840.62743   4449419.95242  22018886.3374   22018881.5894
        55.0004         47.0004
  23356179.4334     409224.21843    332524.56542  23356180.8304   23356169.9414
        44.0004         37.0004
  21441324.8234    3407202.08543   2649091.63942  21441326.1854   21441319.7084
        55.0004         48.0004
  20018851.4414   -1804716.91644  -1398716.58942  20018852.2874   20018846.9344
        58.0004         50.0004
  23206216.1304   -1767888.42043  -1374769.08842  23206217.3954   23206214.9904
        47.0004         39.0004
  21420706.4794    -266293.71043   -195431.96042  21420708.2624   21420704.0744
        53.0004         48.0004
 05  6 24 16 56 30.0000000  0  8G22G21G 3G19G18G15G 9G14
  20732114.0014    8272600.74143   6451582.69742  20732112.1344   20732104.8144
        42.0004         36.0004
  21707598.3814   13903176.90443  10832502.71442  21707598.3864   21707594.8524
        52.0004         47.0004
  22017507.7924    5687600.51243   4443778.29742  22017509.4144   22017503.2654
        55.0004         47.0004
  23342892.2304     339404.92443    278119.95542  23342895.8484   23342886.7384
        43.0004         37.0004
  21449981.1384    3452691.55643   2684537.97842  21449983.0784   21449976.4654
        55.0004         48.0004
  20018705.4954   -1805483.76244  -1399314.12542  20018706.3864   20018700.9574
        58.0004         50.0004
  23201458.9494   -1792884.63243  -1394246.67042  23201460.5084   23201459.5664
        47.0004         39.0004
  21406204.4564    -342504.79443   -254817.22842  21406205.5594   21406201.6444
        53.0004         49.0004
 05  6 24 16 57  0.0000000  0  8G22G21G 3G19G18G15G 9G14
  20732786.5934    8276123.37843   6454327.59242  20732787.8054   20732774.3574
        43.0004         36.0004
  21719708.8524   13966810.74143  10882087.50642  21719710.1864   21719703.7734
        55.0004         48.0004
  22016237.9874    5680926.60143   4438577.84442  22016239.5464   22016233.2614
        55.0004         46.0004
  23329687.4554     270015.35443    224050.17242  23329691.8144   23329680.9954
        44.0004         37.0004
  21458666.4774    3498334.05243   2720103.55542  21458668.2494   21458661.5044
        55.0004         48.0004
  20018639.1114   -1805832.80444  -1399586.10542  20018640.4684   20018634.8204
        58.0004         51.0004
  23196808.8444   -1817322.62343  -1413289.25542  23196809.9824   23196806.2204
        47.0004         39.0004
  21391785.4854    -418285.41943   -313867.04542  21391786.5374   21391780.7814
        55.0004         49.0004
 05  6 24 16 57 30.0000000  0  8G22G21G 3G19G18G15G 9G14
  20733497.1784    8279852.28943   6457233.28042  20733495.7634   20733483.7474
        43.0004         36.0004
  21731881.2834   14030778.04344  10931932.12542  21731883.6784   21731876.5864
        57.0004         48.0004
  22015071.1374    5674796.70243   4433801.29642  22015072.5854   22015067.1374
        54.0004         46.0004
  23316562.3604     201035.61443    170299.71542  23316562.4834   23316557.6854
        44.0004         37.0004
  21467376.0034    3544106.86743   2755770.67542  21467377.7474   21467371.9364
        55.0004         47.0004
  20018648.7404   -1805785.01744  -1399548.87842  20018649.7144   20018644.1354
        58.0004         51.0004
  23192260.2604   -1841222.66143  -1431912.64842  23192262.8854   23192258.7574
        47.0004         39.0004
  21377443.1054    -493655.94744   -372597.28042  21377444.8684   21377437.4074
        57.0004         49.0004
 05  6 24 16 58  0.0000000  0  8G22G21G 3G19G18G15G 9G14
  20734245.6804    8283792.20543   6460303.38142  20734246.3854   20734232.7034
        43.0004         36.0004
  21744117.9174   14095083.98144  10982040.59942  21744120.3594   21744112.4344
        57.0004         47.0004
  22014008.9354    5669216.50443   4429453.07642  22014010.6344   22014005.0004
        54.0004         46.0004
  23303514.1944     132473.48443    116874.69842  23303515.6134   23303510.5174
        43.0004         38.0004
  21476112.2674    3590014.60543   2791542.92542  21476113.6204   21476107.5144
        55.0004         48.0004
  20018734.2494   -1805333.51644  -1399197.06342  20018735.4194   20018730.1964
        59.0004         51.0004
  23187815.1004   -1864577.12243  -1450110.88942  23187818.5424   23187810.6854
        47.0004         39.0004
  21363179.4874    -568608.92044   -431002.12642  21363181.5034   21363173.5954
        57.0004         48.0004
 05  6 24 16 58 30.0000000  0  8G22G21G 3G19G18G15G 9G14
  20735032.9534    8287944.73243   6463539.17742  20735034.2564   20735032.4144
        41.0004         35.0004
  21756419.9774   14159730.71944  11032414.62842  21756421.7814   21756413.3414
        57.0004         47.0004
  22013052.1894    5664188.29243   4425534.97442  22013053.7494   22013048.1834
        53.0004         46.0004
  23290545.8954      64333.63743     63778.72042  23290548.7354   23290543.0054
        43.0004         38.0004
  21484874.6094    3636059.46143   2827422.02542  21484876.2014   21484869.7454
        55.0004         48.0004
  20018897.7254   -1804474.71444  -1398527.87642  20018899.1744   20018893.5634
        59.0004         52.0004
  23183474.8274   -1887381.75543  -1467880.71742  23183478.8714   23183471.5874
        47.0004         39.0004
  21348995.9904    -643140.04043   -489078.24642  21348997.8214   21348990.5504
        55.0004         47.0004
 05  6 24 16 59  0.0000000  0  8G22G21G 3G19G18G15G 9G14
  20735863.1364   -4311048.44953  -3353858.02052  20735862.3494   20735858.0084
        38.0004         34.0004
  21768787.4034   14224720.08243  11083055.62542  21768789.1114   21768780.4454
        56.0004         46.0004
  22012200.1804    5659713.91643   4422048.44942  22012201.3834   22012196.9904
        53.0004         46.0004
  23277661.9914      -3379.58243     11015.21042  23277663.3314   23277659.2454
        44.0004         39.0004
  21493663.1924    3682242.66843   2863408.94342  21493664.6274   21493658.0474
        55.0004         48.0004
  20019139.1814   -1803205.09244  -1397538.56242  20019140.6034   20019134.9714
        59.0004         52.0004
  23179242.4734   -1909632.26443  -1485218.80242  23179244.2554   23179240.7844
        46.0004         40.0004
  21334893.0754    -717245.36443   -546822.59842  21334895.0984   21334888.1404
        53.0004         46.0004
 05  6 24 16 59 30.0000000  0  7G21G 3G19G18G15G 9G14
  21781221.2674   14290057.27143  11133967.65142  21781222.6924   21781214.0564
        54.0004         45.0004
  22011456.4474    5655799.10943   4418997.94442  22011457.0594   22011452.1334
        53.0004         47.0004
  23264858.0494     -70658.51543    -41409.91042  23264858.8374   23264855.0864
        43.0004         39.0004
  21502478.7834    3728569.02043   2899507.40042  21502480.5624   21502473.6014
        55.0004         48.0004
  20019459.9184   -1801518.17944  -1396224.07942  20019461.3014   20019456.2234
        59.0004         52.0004
  23175115.1144   -1931321.68243  -1502119.65942  23175115.6554   23175112.3184
        47.0004         41.0004
  21320874.4164    -790917.78343   -604229.64042  21320876.7974   21320870.2064
        53.0004         47.0004
 05  6 24 17  0  0.0000000  0  7G21G 3G19G18G15G 9G14
  21793718.5804   14355736.17243  11185145.97842  21793718.1384   21793713.2724
        51.0004         44.0004
  22010816.1014    5652437.28143   4416378.34642  22010817.8204   22010812.8834
        54.0004         47.0004
  23252137.7714    -137506.65343    -93499.36642  23252138.3834   23252134.9944
        43.0004         39.0004
  21511320.6634    3775031.96343   2935712.30042  21511321.9964   21511315.4334
        55.0004         48.0004
  20019859.9814   -1799418.41344  -1394587.89442  20019860.9824   20019855.7414
        59.0004         52.0004
  23171094.0854   -1952454.20143  -1518586.54642  23171095.2664   23171092.6594
        48.0004         41.0004
  21306936.7964    -864161.44243   -661302.57442  21306938.6404   21306933.1904
        55.0004         48.0004
 05  6 24 17  0 30.0000000  0  7G21G 3G19G18G15G 9G14
  21806280.6724   14421757.24743  11236591.02542  21806280.7624   21806276.3724
        51.0004         44.0004
  22010281.3674    5649629.23443   4414190.26142  22010282.8304   22010278.1374
        53.0004         46.0004
  23239500.0024    -203921.24643   -145250.96642  23239500.8454   23239494.5704
        44.0004         39.0004
  21520187.8474    3821631.44443   2972023.59742  21520189.1584   21520183.0834
        54.0004         47.0004
  20020338.4844   -1796903.75544  -1392628.41042  20020339.6834   20020333.8224
        58.0004         52.0004
  23167179.9434   -1973027.23743  -1534617.46742  23167180.8634   23167174.7974
        49.0004         41.0004
  21293081.5944    -936973.75943   -718039.40642  21293083.4664   21293077.8754
        56.0004         50.0004
 05  6 24 17  1  0.0000000  0  7G21G 3G19G18G15G 9G14
  21818911.0774   14488118.41843  11288301.02242  21818911.5354   21818905.1134
        54.0004         46.0004
  22009852.2394    5647373.07843   4412432.24042  22009853.4084   22009849.4454
        53.0004         47.0004
  23226944.6084    -269901.62543   -196664.21542  23226944.5914   23226940.3694
        44.0004         39.0004
  21529080.4654    3868365.27343   3008439.58142  21529081.5584   21529076.7014
        54.0004         48.0004
  20020896.1854   -1793974.38444  -1390345.77142  20020896.6934   20020891.3434
        58.0004         52.0004
  23163371.4484   -1993040.40543  -1550212.13442  23163373.1824   23163369.7664
        49.0004         42.0004
  21279307.9154   -1009354.30544   -774439.79242  21279309.7974   21279304.8404
        57.0004         51.0004
 05  6 24 17  1 30.0000000  0  7G21G 3G19G18G15G 9G14
  21831603.1564   14554819.59544  11340275.91542  21831605.1264   21831597.8644
        57.0004         48.0004
  22009528.0154    5645668.72043   4411104.17742  22009529.3064   22009524.6474
        53.0004         47.0004
  23214472.2754    -335445.49243   -247737.32642  23214473.0114   23214467.4644
        45.0004         39.0004
  21537999.0204    3915232.89043   3044959.80342  21538000.4064   21537994.8534
        54.0004         47.0004
  20021532.2104   -1790629.24544  -1387739.15042  20021532.9164   20021528.1604
        57.0004         51.0004
  23159669.3164   -2012491.47543  -1565368.78342  23159672.0214   23159666.1664
        48.0004         42.0004
  21265616.7874   -1081301.21443   -830502.28042  21265618.3104   21265613.7404
        56.0004         50.0004
 05  6 24 17  2  0.0000000  0  8G21G 3G19G18G15G 9G14G 1
  21844361.3514   14621864.96444  11392519.02242  21844363.2754   21844356.6464
        57.0004         48.0004
  22009309.1464    5644520.64143   4410209.56542  22009311.0084   22009306.2424
        53.0004         46.0004
  23202083.3684    -400546.08743   -298465.04942  23202084.5094   23202079.1354
        44.0004         40.0004
  21546944.0814    3962238.17143   3081587.29142  21546945.6384   21546938.6864
        54.0004         47.0004
  20022249.4684   -1786862.65544  -1384804.14242  20022250.0824   20022244.9724
        58.0004         51.0004
  23156076.4514   -2031374.33343  -1580082.69942  23156078.8104   23156074.4534
        47.0004         41.0004
  21252007.4804   -1152808.16843   -886221.97342  21252009.4974   21252005.8044
        53.0004         48.0004
  23999608.0794  -10304965.46253  -7696827.79952  23999610.5834   23999606.1124
        47.0004         39.0004
 05  6 24 17  2 30.0000000  0  8G21G 3G19G18G15G 9G14G 1
  21857184.0764   14689250.47844  11445027.17442  21857185.9124   21857179.6624
        57.0004         48.0004
  22009195.4814    5643924.90243   4409745.33842  22009197.0464   22009192.2454
        52.0004         46.0004
  23189778.8654    -465204.82543   -348848.45042  23189780.0104   23189774.2784
        44.0004         40.0004
  21555914.3624    4009377.24543   3118319.02342  21555915.5584   21555909.5324
        54.0004         47.0004
  20023046.3694   -1782677.04844  -1381542.63542  20023047.1424   20023041.1414
        58.0004         51.0004
  23152590.9974   -2049691.01443  -1594355.39842  23152592.0414   23152587.9284
        46.0004         40.0004
  21238483.3674   -1223877.25443   -941600.50942  21238485.2294   21238480.4604
        52.0004         47.0004
  23979194.5604  -10412231.96943  -7780411.96942  23979196.3114   23979192.6314
        45.0004         38.0004
 05  6 24 17  3  0.0000000  0  9G22G21G 3G19G18G15G 9G14G 1
  20743969.9654   -1149604.24353   -894346.92852  20743969.1064   20743961.8544
        45.0004         39.0004
  21870072.2234   14756978.67043  11497802.35142  21870073.2474   21870066.6134
        56.0004         47.0004
  22009187.3964    5643883.84643   4409713.34642  22009188.5124   22009184.8624
        52.0004         46.0004
  23177560.4544    -529416.75843   -398883.68042  23177562.1184   23177554.2124
        45.0004         40.0004
  21564910.7624    4056651.89643   3155156.39342  21564912.1414   21564905.2164
        54.0004         47.0004
  20023923.0364   -1778068.44744  -1377951.51442  20023923.9984   20023918.0034
        58.0004         51.0004
  23149213.1674   -2067436.89543  -1608183.33642  23149215.9004   23149210.1264
        44.0004         39.0004
  21225045.6714   -1294503.85943   -996634.20142  21225047.2074   21225039.0054
        54.0004         47.0004
  23958811.5214  -10519345.41043  -7863876.88342  23958814.5874   23958809.4804
        45.0004         38.0004
 05  6 24 17  3 30.0000000  0  9G22G21G 3G19G18G15G 9G14G 1
  20745160.7744   -1143337.68143   -889463.92242  20745161.1144   20745154.0524
        45.0004         40.0004
  21883025.5224   14825044.15843  11550840.34642  21883026.7134   21883019.0354
        55.0004         46.0004
  22009284.2704    5644392.26743   4410109.52542  22009285.2574   22009282.3834
        52.0004         46.0004
  23165424.9504    -593184.75643   -448573.00142  23165427.2954   23165418.4894
        46.0004         40.0004
  21573931.4374    4104056.38543   3192094.95442  21573933.0154   21573926.4084
        55.0004         47.0004
  20024879.8354   -1773040.70644  -1374033.78342  20024880.8204   20024874.9514
        58.0004         51.0004
  23145945.3994   -2084615.30843  -1621569.08842  23145946.8914   23145941.6464
        43.0004         38.0004
  21211689.7884   -1364691.39344  -1051325.69342  21211691.7334   21211682.0514
        57.0004         47.0004
  23938457.7704  -10626308.53643  -7947224.65942  23938460.0974   23938458.2594
        45.0004         39.0004
 05  6 24 17  4  0.0000000  0  9G22G21G 3G19G18G15G 9G14G 1
  20746391.4814   -1136869.15143   -884423.53742  20746393.4454   20746385.9494
        44.0004         40.0004
  21896041.2154   14893444.29443  11604139.11742  21896041.4904   21896034.8284
        53.0004         45.0004
  22009485.5834    5645447.65643   4410931.90942  22009486.9124   22009483.3884
        53.0004         47.0004
  23153375.2104    -656509.06043   -497916.62042  23153376.4564   23153368.5564
        46.0004         40.0004
  21582975.4694    4151588.01043   3229132.58642  21582977.1364   21582971.8294
        54.0004         47.0004
  20025916.1244   -1767594.71944  -1369790.14742  20025917.0154   20025911.2704
        57.0004         51.0004
  23142785.7634   -2101226.88443  -1634513.12042  23142787.4744   23142778.9534
        44.0004         38.0004
  21198416.8094   -1434440.25944  -1105675.35242  21198418.2584   21198410.8804
        57.0004         48.0004
  23918131.7954  -10733121.23643  -8030455.19842  23918132.0344   23918132.2524
        45.0004         39.0004
 05  6 24 17  4 30.0000000  0  9G22G21G 3G19G18G15G 9G14G 1
  20747661.5874   -1130192.17843   -879220.70442  20747663.3924   20747656.0514
        44.0004         40.0004
  21909121.2794   14962185.61943  11657703.75342  21909122.8474   21909115.9294
        52.0004         43.0004
  22009791.8964    5647056.76243   4412185.74842  22009793.1714   22009789.1404
        54.0004         47.0004
  23141413.3664    -719380.31943   -546907.19542  23141413.4604   23141404.6844
        48.0004         41.0004
  21592046.3894    4199253.12643   3266274.23642  21592047.5834   21592042.2984
        54.0004         47.0004
  20027033.6424   -1761722.30444  -1365214.23942  20027034.5174   20027029.0764
        57.0004         51.0004
  23139731.4654   -2117262.64443  -1647008.44042  23139736.7854   23139728.4044
        40.0004         36.0004
  21185228.7074   -1503741.82544  -1159676.49742  21185230.7034   21185224.8614
        57.0004         49.0004
  23897836.6864  -10839774.22143  -8113561.29042  23897836.5244   23897836.6954
        45.0004         39.0004
 05  6 24 17  5  0.0000000  0  8G22G21G 3G19G18G15G14G 1
  20748975.8954   -1123309.57543   -873857.67042  20748976.7254   20748963.4974
        45.0004         40.0004
  21922268.1144   15031266.00243  11711532.60742  21922268.1314   21922262.6334
        52.0004         43.0004
  22010202.8004    5649217.18043   4413869.18942  22010204.4354   22010200.4564
        54.0004         47.0004
  23129534.6474    -781798.35643   -595544.62042  23129535.7494   23129528.4364
        48.0004         41.0004
  21601142.3264    4247049.39743   3303518.08942  21601143.4354   21601137.9874
        55.0004         48.0004
  20028232.2134   -1755424.29544  -1360306.69242  20028232.9214   20028227.3424
        57.0004         51.0004
  21172126.1294   -1572596.22543  -1213329.22642  21172127.8454   21172122.6074
        56.0004         49.0004
  23877570.1114  -10946267.13843  -8196542.65542  23877570.4344   23877573.2254
        44.0004         39.0004
 05  6 24 17  5 30.0000000  0  8G22G21G 3G19G18G15G14G 1
  20750322.1494   -1116224.94443   -868337.15242  20750323.7204   20750311.6944
        44.0004         39.0004
  21935477.2494   15100681.81843  11765622.82042  21935477.7204   21935471.4094
        53.0004         44.0004
  22010718.7524    5651925.21543   4415979.34142  22010720.0134   22010715.6924
        55.0004         47.0004
  23117741.4724    -843764.14343   -643829.64442  23117743.2614   23117733.7344
        48.0004         41.0004
  21610262.0444    4294973.24143   3340861.34042  21610263.2724   21610258.0424
        55.0004         47.0004
  20029510.9264   -1748702.68144  -1355069.05842  20029511.6244   20029506.4544
        57.0004         51.0004
  21159107.3424   -1641005.19243  -1266634.89842  21159109.5454   21159104.9724
        53.0004         49.0004
  23857336.2374  -11052600.71743  -8279399.88042  23857338.1754   23857337.4284
        44.0004         39.0004
 05  6 24 17  6  0.0000000  0  8G22G21G 3G19G18G15G14G 1
  20751709.0664   -1108938.98943   -862659.79542  20751710.5664   20751699.3924
        44.0004         38.0004
  21948750.8104   15170432.74443  11819974.12142  21948752.1484   21948745.8644
        54.0004         45.0004
  22011337.7954    5655180.50543   4418515.92742  22011339.9294   22011335.1124
        54.0004         47.0004
  23106036.5494    -905275.79943   -691760.79042  23106038.3884   23106030.6554
        48.0004         42.0004
  21619405.0064    4343023.75643   3378303.28842  21619406.9694   21619400.8524
        55.0004         47.0004
  20030870.5964   -1741556.34244  -1349500.47142  20030871.3194   20030866.2634
        57.0004         51.0004
  21146173.6484   -1708966.89343  -1319592.09842  21146176.5274   21146171.9594
        52.0004         48.0004
  23837135.1634  -11158772.72543  -8362131.19942  23837134.3954   23837135.0414
        45.0004         40.0004
 05  6 24 17  6 30.0000000  0  9G22G21G 3G19G18G15G 9G14G 1
  20753131.7644   -1101455.52143   -856828.54642  20753131.7654   20753123.0234
        38.0004         37.0004
  21962087.8624   15240515.36943  11874583.91142  21962088.7634   21962081.8344
        55.0004         46.0004
  22012061.1394    5658979.76243   4421476.37642  22012062.5184   22012057.2104
        54.0004         46.0004
  23094417.9314    -966334.27443   -739338.81442  23094419.5144   23094411.4034
        49.0004         42.0004
  21628572.5454    4391197.41243   3415841.18042  21628574.3974   21628567.8874
        54.0004         47.0004
  20032311.0574   -1733986.92344  -1343602.21642  20032311.7904   20032306.6414
        58.0004         51.0004
  23128625.077
        42.000
  21133326.8424   -1776482.78943  -1372201.91042  21133328.9124   21133323.7574
        54.0004         49.0004
  23816960.9864  -11264783.87643  -8444737.15842  23816961.6764   23816960.5444
        45.0004         40.0004
 05  6 24 17  7  0.0000000  0  8G21G 3G19G18G15G 9G14G 1
  21975486.8244   15310931.66443  11929453.72042  21975488.5494   21975481.8494
        54.0004         46.0004
  22012888.1514    5663324.82043   4424862.12242  22012889.1294   22012884.2984
        54.0004         46.0004
  23082885.6834   -1026934.80543   -786559.98642  23082886.7154   23082881.0934
        49.0004         42.0004
  21637764.0204    4439496.13643   3453476.53342  21637765.3574   21637758.6914
        54.0004         47.0004
  20033833.0194   -1725990.97644  -1337371.61342  20033833.6904   20033828.0714
        58.0004         51.0004
  23126117.0564   -1041275.79853   -805719.36252  23126119.2964   23126111.9224
        42.0004         38.0004
  21120565.7594   -1843548.61943  -1424460.97242  21120567.2924   21120561.0314
        56.0004         50.0004
  23796818.5104  -11370629.54043  -8527214.14042  23796819.7904   23796819.0354
        46.0004         40.0004
 05  6 24 17  7 30.0000000  0  8G21G 3G19G18G15G 9G14G 1
  21988952.4394   15381694.73743  11984593.75542  21988954.1934   21988947.2624
        53.0004         45.0004
  22013821.1494    5668229.03743   4428683.56842  22013822.4974   22013817.0614
        54.0004         45.0004
  23071443.8904   -1087061.88143   -833412.23042  23071445.9564   23071438.8154
        49.0004         42.0004
  21646981.0804    4487933.10843   3491219.62242  21646982.9494   21646975.6104
        55.0004         47.0004
  20035437.9954   -1717553.81944  -1330797.21742  20035439.4074   20035433.5054
        59.0004         51.0004
  23123724.3864   -1053842.83743   -815511.77242  23123725.3524   23123720.6164
        44.0004         37.0004
  21107892.3874   -1910149.22244  -1476357.49142  21107894.0304   21107886.3794
        58.0004         50.0004
  23776709.6204  -11476293.75143  -8609549.72642  23776711.3784   23776711.9594
        45.0004         40.0004
 05  6 24 17  8  0.0000000  0  8G21G 3G19G18G15G 9G14G 1
  22002482.0644   15452791.19843  12039993.58042  22002481.8454   22002475.7014
        51.0004         44.0004
  22014857.2424    5673678.70943   4432930.04242  22014858.7974   22014853.5754
        53.0004         45.0004
  23060090.7834   -1146726.28643   -879903.96442  23060092.2244   23060083.6864
        50.0004         43.0004
  21656222.2604    4536494.66843   3529059.80742  21656223.8614   21656216.9994
        55.0004         47.0004
  20037125.5424   -1708687.10444  -1323888.09942  20037126.8294   20037120.8304
        59.0004         51.0004
  23121443.6524   -1065828.41743   -824851.09442  23121447.3364   23121438.8574
        46.0004         37.0004
  21095304.9104   -1976296.25344  -1527900.55842  21095306.6804   21095298.4254
        58.0004         49.0004
  23756633.5974  -11581787.25943  -8691752.33542  23756634.6544   23756635.8394
        45.0004         40.0004
 05  6 24 17  8 30.0000000  0  8G21G 3G19G18G15G 9G14G 1
  22016073.3774   15524219.40043  12095651.94242  22016073.3744   22016067.3814
        50.0004         43.0004
  22015998.7064    5679672.27643   4437600.33342  22015999.8394   22015993.7904
        53.0004         45.0004
  23048824.9614   -1205927.17843   -926034.49742  23048826.5944   23048817.7914
        50.0004         42.0004
  21665486.7074    4585179.41543   3566995.97842  21665488.5304   21665480.9864
        55.0004         48.0004
  20038894.4234   -1699391.20144  -1316644.54942  20038895.5384   20038889.9084
        59.0004         52.0004
  23119272.7184   -1077232.23543   -833737.12642  23119275.9674   23119267.3884
        47.0004         36.0004
  21082803.4814   -2041989.15344  -1579089.73942  21082805.8724   21082798.3154
        57.0004         48.0004
  23736593.1734  -11687109.11243  -8773821.22542  23736594.3044   23736594.4364
        44.0004         40.0004
 05  6 24 17  9  0.0000000  0  8G21G 3G19G18G15G 9G14G 1
  22029729.2144   15595979.08243  12151568.57542  22029729.6194   22029722.6394
        51.0004         43.0004
  22017242.9944    5686209.34343   4442694.13042  22017244.8154   22017237.8814
        53.0004         46.0004
  23037647.6944   -1264662.32243   -971802.14342  23037650.1704   23037642.2114
        50.0004         42.0004
  21674774.5974    4633987.06243   3605027.90642  21674776.8494   21674769.3734
        56.0004         48.0004
  20040745.0094   -1689664.94744  -1309065.65842  20040746.2894   20040741.1164
        58.0004         51.0004
  23117213.5244   -1088052.64443   -842168.58542  23117215.4504   23117209.4194
        46.0004         36.0004
  21070389.4504   -2107226.18343  -1629923.72942  21070391.7884   21070384.6124
        55.0004         48.0004
  23716587.4914  -11792256.84643  -8855754.43142  23716587.1984   23716585.1774
        47.0004         41.0004
 05  6 24 17  9 30.0000000  0  8G21G 3G19G18G15G 9G14G 1
  22043449.4414   15668074.22243  12207746.55942  22043450.2454   22043442.0344
        53.0004         44.0004
  22018590.7014    5693293.07143   4448213.90542  22018592.2204   22018586.6064
        53.0004         46.0004
  23026560.5374   -1322926.12943  -1017202.49042  23026561.5394   23026554.1944
        49.0004         42.0004
  21684086.0444    4682920.65143   3643157.95942  21684088.2374   21684080.5814
        55.0004         47.0004
  20042678.9114   -1679503.24044  -1301147.45242  20042679.8474   20042675.0904
        58.0004         51.0004
  23115265.2714   -1098284.58343   -850141.51842  23115268.6934   23115260.8894
        46.0004         36.0004
  21058061.9284   -2172002.01443  -1680398.38342  21058064.0634   21058058.2814
        53.0004         48.0004
  23696612.4624  -11897224.19643  -8937547.05942  23696613.4394   23696608.9784
        49.0004         41.0004
 05  6 24 17 10  0.0000000  0  8G21G 3G19G18G15G 9G14G 1
  22057231.0934   15740498.89343  12264181.29942  22057231.9284   22057224.6494
        54.0004         45.0004
  22020042.4324    5700918.64943   4454155.90342  22020043.5304   22020038.2554
        53.0004         46.0004
  23015561.4324   -1380720.79443  -1062237.27142  23015562.4154   23015557.0664
        49.0004         41.0004
  21693420.8404    4731975.23543   3681382.29142  21693422.4034   21693414.9144
        55.0004         47.0004
  20044694.8494   -1668909.39644  -1292892.50442  20044695.8854   20044690.8014
        58.0004         51.0004
  23113429.2234   -1107931.06643   -857658.20742  23113430.6884   23113425.7894
        45.0004         36.0004
  21045822.6654   -2236319.58343  -1730515.98142  21045825.0504   21045819.6584
        54.0004         49.0004
  23676669.8844  -12002013.28543  -9019200.76242  23676671.1754   23676664.7974
        48.0004         40.0004
 05  6 24 17 10 30.0000000  0  8G21G 3G19G18G15G 9G14G 1
  22071076.8574   15813260.18843  12320878.36342  22071078.5404   22071071.8724
        54.0004         45.0004
  22021597.0224    5709092.57843   4460525.19842  22021598.1014   22021594.2134
        53.0004         46.0004
  23004655.0484   -1438037.28143  -1106899.44742  23004655.9464   23004651.7494
        48.0004         41.0004
  21702780.1554    4781157.45043   3719706.07742  21702781.8424   21702774.1664
        55.0004         47.0004
  20046794.6914   -1657875.16344  -1284294.40242  20046795.8854   20046790.4344
        57.0004         51.0004
  23111704.6484   -1116983.41243   -864711.93742  23111707.8594   23111707.1074
        42.0004         36.0004
  21033673.0064   -2300170.08343  -1780269.60342  21033675.1594   21033669.0664
        56.0004         50.0004
  23656764.0424  -12106614.70843  -9100708.18742  23656765.9094   23656759.6664
        47.0004         38.0004
 05  6 24 17 11  0.0000000  0  8G21G 3G19G18G15G 9G14G 1
  22084985.2164   15886351.34043  12377832.48042  22084987.1154   22084980.4174
        53.0004         46.0004
  22023254.8104    5717807.82943   4467316.29942  22023256.0864   22023252.8374
        52.0004         46.0004
  22993838.0554   -1494879.91243  -1151192.38342  22993838.8374   22993831.6774
        48.0004         40.0004
  21712162.1224    4830460.72643   3758124.19842  21712163.5224   21712156.9704
        55.0004         46.0004
  20048977.7644   -1646405.90744  -1275357.32842  20048978.4324   20048972.4424
        58.0004         51.0004
  23110097.5594   -1125446.57843   -871306.65942  23110099.1694   23110093.6984
        42.0004         37.0004
  21021610.5354   -2363558.32444  -1829663.01242  21021612.6464   21021606.7004
        57.0004         51.0004
  23636893.0074  -12211032.55343  -9182072.59242  23636892.8414   23636887.4054
        46.0004         38.0004
 05  6 24 17 11 30.0000000  0  8G21G 3G19G18G15G 9G14G 1
  22098956.9644   15959768.32543  12435040.49542  22098957.2834   22098952.5584
        52.0004         46.0004
  22025015.9204    5727060.49543   4474526.16942  22025016.9604   22025014.2064
        53.0004         47.0004
  22983111.1224   -1551249.90643  -1195117.01842  22983112.9114   22983105.0664
        48.0004         40.0004
  21721566.0514    4879881.29643   3796633.71442  21721567.7724   21721560.9804
        54.0004         46.0004
  20051242.5844   -1634503.71244  -1266082.90542  20051243.6014   20051237.2924
        57.0004         51.0004
  23108601.9564   -1133322.55543   -877443.79442  23108601.8664   23108598.0124
        45.0004         38.0004
  21009635.1984   -2426486.25143  -1878697.73342  21009637.2634   21009631.9424
        56.0004         50.0004
  23617057.9914  -12315267.71643  -9263294.64442  23617060.0494   23617052.7144
        47.0004         38.0004
 05  6 24 17 12  0.0000000  0  9G22G21G 3G19G18G15G 9G14G 1
  20771307.644
        42.000
  22112990.0364   16033517.42843  12492507.31742  22112991.3994   22112987.4334
        50.0004         45.0004
  22026879.5774    5736856.33943   4482159.29842  22026880.8754   22026877.8964
        53.0004         47.0004
  22972476.1204   -1607138.92743  -1238666.87042  22972475.9774   22972471.2894
        49.0004         40.0004
  21730993.8774    4929425.12643   3835239.26642  21730996.1274   21730989.2464
        54.0004         46.0004
  20053591.1224   -1622161.24844  -1256465.41442  20053592.1414   20053586.4494
        57.0004         51.0004
  23107215.3644   -1140603.75243   -883117.39842  23107216.9884   23107209.9534
        47.0004         39.0004
  20997750.1894   -2488946.08343  -1927367.70842  20997751.5454   20997745.5624
        56.0004         49.0004
  23597258.4294  -12419311.63743  -9344367.72442  23597258.9324   23597256.1574
        46.0004         40.0004
 05  6 24 17 12 30.0000000  0  9G22G21G 3G19G18G15G 9G14G 1
  20773182.278
        42.000
  22127086.1464   16107596.42543  12550231.23242  22127086.7794   22127082.5394
        48.0004         43.0004
  22028847.6734    5747193.05943   4490213.88342  22028848.5524   22028844.9534
        53.0004         47.0004
  22961932.7424   -1662546.76743  -1281841.79642  22961936.5944   22961924.0284
        49.0004         40.0004
  21740445.6394    4979089.84743   3873939.01342  21740447.3574   21740440.2604
        55.0004         47.0004
  20056023.3484   -1609379.04244  -1246505.25642  20056024.1034   20056019.0104
        57.0004         51.0004
  23105943.4474   -1147290.48743   -888327.75842  23105945.2554   23105937.3644
        46.0004         39.0004
  20985953.4654   -2550937.69043  -1975672.81542  20985955.6904   20985948.4464
        55.0004         48.0004
  23577496.4654  -12523163.53043  -9425291.18942  23577497.9754   23577496.1504
        47.0004         41.0004
 05  6 24 17 13  0.0000000  0  8G21G 3G19G18G15G 9G14G 1
  22141245.1314   16181999.53843  12608207.70942  22141245.0034   22141240.7944
        49.0004         43.0004
  22030916.6654    5758065.19343   4498685.68942  22030917.9314   22030913.4704
        54.0004         48.0004
  22951479.4674   -1717476.34543  -1324644.05842  22951481.2484   22951474.5034
        50.0004         41.0004
  21749918.6634    5028870.69143   3912729.26042  21749920.7144   21749913.6674
        55.0004         47.0004
  20058538.6724   -1596161.17044  -1236205.61442  20058539.4284   20058534.3234
        57.0004         51.0004
  23104782.5324   -1153386.66543   -893077.96142  23104784.6814   23104776.9614
        46.0004         40.0004
  20974245.0724   -2612464.56543  -2023615.78042  20974247.0584   20974240.1574
        55.0004         48.0004
  23557770.9424  -12626826.38343  -9506067.37642  23557772.8224   23557769.7824
        48.0004         41.0004
 05  6 24 17 13 30.0000000  0  9G22G21G 3G19G18G15G 9G14G 1
  20777042.269
        43.000
  22155466.7114   16256732.34543  12666441.04742  22155467.6024   22155462.0314
        52.0004         44.0004
  22033088.3074    5769477.57843   4507578.45842  22033089.8384   22033085.4804
        54.0004         48.0004
  22941119.3174   -1771919.72643  -1367067.44642  22941121.0444   22941114.3894
        51.0004         42.0004
  21759414.0774    5078772.23043   3951613.57242  21759416.4754   21759409.1454
        54.0004         46.0004
  20061137.7574   -1582500.60444  -1225561.01142  20061138.5884   20061133.7434
        57.0004         51.0004
  23103733.4004   -1158885.01343   -897362.34142  23103737.4614   23103730.6664
        45.0004         40.0004
  20962626.3314   -2673519.45043  -2071190.96942  20962628.1964   20962622.3794
        55.0004         48.0004
  23538082.5384  -12730291.82743  -9586689.71142  23538084.4594   23538081.8234
        48.0004         41.0004
 05  6 24 17 14  0.0000000  0  8G21G 3G19G18G15G 9G14G 1
  22169750.3544   16331791.87143  12724928.94442  22169752.3624   22169745.4164
        54.0004         44.0004
  22035361.8644    5781426.99843   4516889.69142  22035363.3974   22035358.8864
        54.0004         47.0004
  22930852.2134   -1825877.95243  -1409112.79042  22930853.0914   22930847.9734
        52.0004         43.0004
  21768932.7564    5128792.16943   3990590.15042  21768934.4964   21768927.6504
        54.0004         46.0004
  20063821.2554   -1568398.95244  -1214572.70142  20063821.8184   20063817.2054
        57.0004         51.0004
  23102800.1204   -1163786.99643   -901182.06542  23102803.1784   23102798.2424
        44.0004         40.0004
  20951098.1504   -2734103.71943  -2118399.47042  20951100.2244   20951094.2614
        56.0004         50.0004
  23518431.4794  -12833560.14943  -9667158.44642  23518433.2144   23518429.0454
        49.0004         42.0004
 05  6 24 17 14 30.0000000  0  8G21G 3G19G18G15G 9G14G 1
  22184095.3374   16407176.61743  12783670.23542  22184097.3504   22184088.4814
        55.0004         44.0004
  22037737.6924    5793912.31643   4526618.50742  22037739.0704   22037734.6624
        54.0004         47.0004
  22920676.3174   -1879349.70543  -1450779.07642  22920677.4174   22920672.4134
        52.0004         44.0004
  21778473.5224    5178929.09543   4029657.88742  21778475.5404   21778468.5464
        55.0004         47.0004
  20066588.8734   -1553855.90544  -1203240.45942  20066589.6434   20066584.8054
        57.0004         51.0004
  23101981.0084   -1168091.85843   -904536.51642  23101983.7124   23101980.2264
        44.0004         40.0004
  20939659.0284   -2794216.60844  -2165240.65342  20939660.9684   20939655.1104
        57.0004         50.0004
  23498817.7854  -12936629.73643  -9747472.31142  23498819.7384   23498815.8514
        48.0004         42.0004
 05  6 24 17 15  0.0000000  0  8G21G 3G19G18G15G 9G14G 1
  22198502.8974   16482888.98443  12842666.78742  22198505.0134   22198495.8164
        55.0004         44.0004
  22040215.9354    5806935.45443   4536766.38842  22040217.0334   22040213.0884
        54.0004         47.0004
  22910595.0634   -1932330.08943  -1492062.47642  22910596.4004   22910589.9484
        52.0004         44.0004
  21788037.2444    5229185.85843   4068818.97242  21788039.3594   21788032.1284
        55.0004         47.0004
  20069441.3784   -1538867.49144  -1191561.18142  20069442.3694   20069436.9764
        58.0004         51.0004
  23101275.0934   -1171795.61843   -907422.56442  23101276.4074   23101275.1874
        43.0004         39.0004
  20928310.0624   -2853853.82643  -2211711.18742  20928312.1334   20928306.3174
        56.0004         50.0004
  23479242.4574  -13039495.46943  -9827627.33542  23479245.9334   23479242.8814
        49.0004         42.0004
 05  6 24 17 15 30.0000000  0  8G21G 3G19G18G15G 9G14G 1
  22212972.3864   16558924.87643  12901915.44342  22212973.9164   22212967.0714
        55.0004         45.0004
  22042796.2104    5820491.83043   4547329.75942  22042797.2224   22042792.5244
        54.0004         47.0004
  22900606.3124   -1984820.98543  -1532964.46542  22900607.8774   22900600.9564
        53.0004         44.0004
  21797622.9904    5279558.23743   4108070.15242  21797624.9984   21797617.7774
        56.0004         48.0004
  20072377.6314   -1523436.57344  -1179537.08542  20072378.8084   20072373.0214
        58.0004         52.0004
  23100684.6424   -1174901.04943   -909842.38242  23100686.1514   23100684.2144
        43.0004         39.0004
  20917051.3234   -2913017.65343  -2257812.85342  20917053.2234   20917047.6044
        55.0004         50.0004
  23459707.1204  -13142158.98943  -9907624.77842  23459708.5784   23459706.2414
        49.0004         42.0004
 05  6 24 17 16  0.0000000  0  8G21G 3G19G18G15G 9G14G 1
  22227503.0114   16635283.71943  12961415.77542  22227504.8434   22227498.1924
        53.0004         45.0004
  22045477.1864    5834580.37343   4558307.81942  22045478.7764   22045472.7964
        54.0004         46.0004
  22890710.8284   -2036820.65143  -1573483.67442  22890712.6834   22890706.5674
        53.0004         45.0004
  21807229.9264    5330045.85443   4147411.13542  21807231.7854   21807225.3584
        55.0004         48.0004
  20075398.2714   -1507562.06544  -1167167.33442  20075399.4594   20075393.9514
        58.0004         52.0004
  23100210.2184   -1177406.90643   -911794.93142  23100211.0404   23100207.5384
        45.0004         39.0004
  20905883.0844   -2971706.50143  -2303544.42542  20905884.8724   20905879.3274
        54.0004         49.0004
  23440208.4044  -13244617.84043  -9987462.76242  23440211.1214   23440208.2804
        48.0004         42.0004
 05  6 24 17 16 30.0000000  0  8G21G 3G19G18G15G 9G14G 1
  22242094.7584   16711966.55743  13021168.61942  22242094.4874   22242091.5884
        51.0004         45.0004
  22048259.2774    5849202.52543   4569701.67242  22048260.6554   22048255.5524
        53.0004         46.0004
  22880909.8834   -2088325.06343  -1613616.95942  22880910.7574   22880904.9124
        53.0004         45.0004
  21816858.9334    5380650.18443   4186843.07542  21816860.5144   21816855.0494
        54.0004         47.0004
  20078503.6074   -1491241.26544  -1154449.82742  20078504.9684   20078499.6964
        58.0004         52.0004
  23099848.2934   -1179310.41843   -913278.10342  23099849.6984   23099845.6484
        46.0004         39.0004
  20894806.6064   -3029917.09943  -2348903.32942  20894808.3854   20894801.8254
        55.0004         49.0004
  23420748.4424  -13346867.95143 -10067138.13342  23420750.0934   23420748.4974
        45.0004         40.0004
 05  6 24 17 17  0.0000000  0  9G22G21G 3G19G18G15G 9G14G 1
  20791698.686
        41.000
  22256747.8054   16788976.71043  13081176.55242  22256748.8654   22256746.2674
        50.0004         45.0004
  22051144.2314    5864361.30343   4581513.69042  22051144.9584   22051140.6664
        53.0004         46.0004
  22871204.4104   -2139328.62443  -1653359.97742  22871206.0734   22871200.3944
        54.0004         45.0004
  21826512.3744    5431374.72143   4226368.69542  21826513.8444   21826507.0814
        55.0004         47.0004
  20081695.5404   -1474469.13844  -1141380.63542  20081696.7844   20081691.5224
        58.0004         51.0004
  23099600.6054   -1180606.46543   -914287.91842  23099602.7964   23099598.6944
        47.0004         40.0004
  20883820.7964   -3087644.50643  -2393885.70542  20883823.1004   20883816.0744
        55.0004         49.0004
  23401333.4274  -13448903.03843 -10146645.99842  23401334.2594   23401333.7494
        45.0004         40.0004
 05  6 24 17 17 30.0000000  0  9G22G21G 3G19G18G15G 9G14G 1
  20793929.030
        44.000
  22271463.9124   16866302.73143  13141430.60142  22271465.0594   22271460.4014
        51.0004         45.0004
  22054129.1434    5880044.86143   4593734.63542  22054130.4504   22054124.4574
        54.0004         46.0004
  22861592.7174   -2189840.65243  -1692719.98742  22861593.7394   22861587.7814
        54.0004         45.0004
  21836186.2924    5482208.27443   4265979.27042  21836187.5064   21836181.1214
        55.0004         47.0004
  20084971.5384   -1457255.95044  -1127967.77042  20084972.6004   20084966.9314
        58.0004         51.0004
  23099467.7774   -1181304.95943   -914832.16542  23099469.5744   23099466.0734
        47.0004         40.0004
  20872926.1384   -3144898.34843  -2438499.04942  20872927.9184   20872920.9184
        56.0004         49.0004
  23381958.7944  -13550732.18643 -10225993.35042  23381960.1844   23381954.4494
        48.0004         41.0004
 05  6 24 17 18  0.0000000  0  8G21G 3G19G18G15G 9G14G 1
  22286239.2664   16943945.50443  13201931.45542  22286240.6744   22286235.1214
        53.0004         46.0004
  22057213.1284    5896253.53443   4606364.73242  22057215.6524   22057208.8344
        53.0004         46.0004
  22852074.5934   -2239857.95443  -1731694.50142  22852075.6104   22852068.2024
        54.0004         45.0004
  21845880.2824    5533151.81143   4305675.52942  21845882.0744   21845875.0094
        55.0004         47.0004
  20088331.2544   -1439599.44144  -1114209.45142  20088332.3514   20088326.9344
        58.0004         51.0004
  23099449.4644   -1181403.70943   -914909.08142  23099450.6844   23099446.6864
        48.0004         41.0004
  20862121.5814   -3201676.03443  -2482741.35642  20862123.4154   20862116.4944
        56.0004         49.0004
  23362621.9374  -13652351.82643 -10305177.38442  23362621.8184   23362613.8764
        50.0004         41.0004
 05  6 24 17 18 30.0000000  0  8G21G 3G19G18G15G 9G14G 1
  22301075.6774   17021910.74043  13262683.55642  22301077.3354   22301071.0944
        54.0004         46.0004
  22060398.7824    5912992.38343   4619407.97042  22060400.0774   22060394.9454
        53.0004         45.0004
  22842652.0024   -2289372.54243  -1770277.28142  22842653.6344   22842645.9484
        53.0004         45.0004
  21855596.5644    5584211.14143   4345461.98542  21855598.7774   21855591.1434
        55.0004         47.0004
  20091776.6584   -1421492.34644  -1100100.02842  20091777.9104   20091772.3534
        57.0004         51.0004
  23099545.2284   -1180895.58443   -914513.09942  23099547.0094   23099544.0374
        49.0004         41.0004
  20851409.6474   -3257970.15344  -2526606.86542  20851411.3014   20851404.5894
        57.0004         50.0004
  23343325.3734  -13753753.40143 -10384191.46742  23343326.2154   23343317.0684
        52.0004         41.0004
 05  6 24 17 19  0.0000000  0  8G21G 3G19G18G15G 9G14G 1
  22315972.7164   17100197.25743  13323685.98942  22315974.0014   22315967.7074
        54.0004         45.0004
  22063682.8814    5930260.73843   4632863.83442  22063684.5384   22063680.8204
        51.0004         45.0004
  22833325.4564   -2338382.76243  -1808467.06042  22833327.2724   22833319.8384
        53.0004         45.0004
  21865333.9414    5635385.81343   4385338.33342  21865336.3134   21865329.0814
        54.0004         46.0004
  20095307.9664   -1402933.96344  -1085638.94642  20095308.8704   20095304.2564
        57.0004         51.0004
  23099758.1344   -1179779.64543   -913643.53342  23099759.2864   23099754.1924
        49.0004         41.0004
  20840788.7614   -3313779.60243  -2570094.71342  20840790.6734   20840784.8174
        56.0004         50.0004
  23324069.5994  -13854934.64743 -10463033.86142  23324071.4904   23324063.4074
        51.0004         41.0004
 05  6 24 17 19 30.0000000  0  8G21G 3G19G18G15G 9G14G 1
  22330931.4654   17178803.31743  13384937.38742  22330932.6754   22330925.6134
        54.0004         44.0004
  22067069.6414    5948056.33843   4646730.54542  22067071.6674   22067067.6174
        52.0004         46.0004
  22824095.3724   -2386888.00643  -1846263.35642  22824096.6654   22824089.0104
        53.0004         45.0004
  21875092.9324    5686674.49743   4425303.51242  21875094.5244   21875089.9254
        53.0004         46.0004
  20098925.6134   -1383924.46544  -1070826.36042  20098926.2824   20098921.5874
        58.0004         51.0004
  23100086.3674   -1178056.18643   -912300.53242  23100086.5344   23100083.4994
        49.0004         41.0004
  20830260.3354   -3369104.14743  -2613204.72742  20830262.3374   20830256.8694
        55.0004         50.0004
  23304856.3824  -13955894.51943 -10541703.79242  23304859.3754   23304854.9634
        50.0004         41.0004
 05  6 24 17 20  0.0000000  0  9G22G21G 3G19G18G15G 9G14G 1
  20805627.8994    -536599.98153   -415435.08252  20805631.2284   20805620.1804
        39.0004         36.0004
  22345950.9254   17257730.55043  13446439.05542  22345952.7384   22345944.4524
        54.0004         44.0004
  22070556.6504    5966380.35743   4661008.99342  22070558.9484   22070554.7034
        53.0004         47.0004
  22814961.9604   -2434884.50143  -1883663.21542  22814963.3394   22814954.9564
        53.0004         45.0004
  21884875.4684    5738079.22943   4465359.14742  21884876.8504   21884871.7604
        53.0004         46.0004
  20102629.5084   -1364460.90644  -1055659.95842  20102630.3084   20102625.0694
        58.0004         51.0004
  23100530.5434   -1175722.05643   -910481.70142  23100531.8954   23100528.1864
        49.0004         42.0004
  20819825.7594   -3423940.26443  -2655934.17942  20819827.1614   20819821.8484
        54.0004         50.0004
  23285687.2754  -14056628.65843 -10620197.88542  23285688.4074   23285687.8764
        48.0004         41.0004
 05  6 24 17 20 30.0000000  0  8G21G 3G19G18G15G 9G14G 1
  22361028.9464   17336966.24343  13508181.08042  22361030.8694   22361023.7424
        52.0004         43.0004
  22074142.8714    5985219.79643   4675689.05742  22074144.5054   22074139.2404
        54.0004         47.0004
  22805922.7044   -2482382.50043  -1920674.63542  22805924.1664   22805917.5034
        52.0004         44.0004
  21894677.6124    5789587.47143   4505495.43042  21894679.3514   21894673.4914
        55.0004         46.0004
  20106417.8834   -1344554.55944  -1040148.54342  20106418.7104   20106412.9704
        58.0004         51.0004
  23101088.9434   -1172788.61943   -908195.86142  23101090.3054   23101086.9574
        49.0004         42.0004
  20809482.0064   -3478298.82943  -2698291.51942  20809483.4934   20809477.9774
        54.0004         49.0004
  23266558.9664  -14157147.02943 -10698523.85642  23266561.9684   23266556.8004
        48.0004         42.0004
 05  6 24 17 21  0.0000000  0  8G21G 3G19G18G15G 9G14G 1
  22376167.6904   17416521.15443  13570171.87842  22376169.4554   22376162.7454
        51.0004         43.0004
  22077827.6304    6004584.76743   4690778.63042  22077829.4484   22077824.8324
        55.0004         47.0004
  22796982.0334   -2529368.92443  -1957287.41842  22796983.3784   22796975.9584
        52.0004         44.0004
  21904501.5574    5841210.05543   4545720.80042  21904503.2174   21904495.9244
        55.0004         46.0004
  20110292.3544   -1324193.06344  -1024282.46942  20110293.7164   20110287.3624
        58.0004         51.0004
  23101763.9004   -1169243.53743   -905433.39642  23101763.9214   23101758.7794
        49.0004         42.0004
  20799231.1554   -3532167.39943  -2740267.03042  20799233.1614   20799226.8114
        54.0004         49.0004
  23247476.6974  -14257435.89343 -10776670.96842  23247477.3414   23247473.3174
        49.0004         42.0004
 05  6 24 17 21 30.0000000  0  8G21G 3G19G18G15G 9G14G 1
  22391365.4754   17496390.66343  13632407.86442  22391366.1514   22391361.6294
        51.0004         43.0004
  22081611.7354    6024470.51643   4706273.99642  22081613.6644   22081608.2294
        55.0004         47.0004
  22788137.6064   -2575845.98943  -1993503.29042  22788139.3124   22788132.2544
        51.0004         44.0004
  21914345.9734    5892943.18643   4586032.29242  21914347.9824   21914340.2784
        56.0004         46.0004
  20114253.1674   -1303379.45344  -1008064.09342  20114254.0524   20114248.0654
        57.0004         50.0004
  23102552.6364   -1165089.97743   -902196.84042  23102555.7654   23102550.3174
        46.0004         41.0004
  20789072.8504   -3585548.80643  -2781862.90942  20789074.8124   20789068.8254
        56.0004         49.0004
  23228433.7754  -14357497.01743 -10854640.60642  23228436.1244   23228433.4764
        48.0004         42.0004
 05  6 24 17 22  0.0000000  0  8G21G 3G19G18G15G 9G14G 1
  22406624.9534   17576577.18143  13694890.85642  22406625.7664   22406619.9754
        51.0004         44.0004
  22085494.9384    6044879.08343   4722176.76242  22085496.7624   22085491.9834
        54.0004         47.0004
  22779391.8124   -2621809.11843  -2029318.71242  22779391.9374   22779384.7564
        51.0004         44.0004
  21924212.4164    5944789.53243   4626432.00142  21924214.0994   21924206.2874
        56.0004         46.0004
  20118300.3354   -1282109.88943   -991490.41642  20118301.0084   20118295.6914
        56.0004         50.0004
  23103457.6504   -1160324.33843   -898483.34242  23103460.4934   23103455.7974
        45.0004         40.0004
  20779008.4124   -3638438.87843  -2823075.91742  20779010.1234   20779003.5844
        56.0004         50.0004
  23209435.5254  -14457325.31943 -10932428.84342  23209438.9984   23209436.5274
        48.0004         41.0004
 05  6 24 17 22 30.0000000  0  8G21G 3G19G18G15G 9G14G 1
  22421944.7454   17657077.26343  13757618.15842  22421945.7114   22421939.7714
        53.0004         45.0004
  22089478.4224    6065806.92143   4738484.14242  22089479.2274   22089474.7274
        54.0004         47.0004
  22770741.4704   -2667259.39343  -2064734.49742  22770744.0804   22770735.6554
        51.0004         44.0004
  21934098.5864    5996745.99643   4666917.51742  21934100.3974   21934094.2704
        56.0004         46.0004
  20122434.1734   -1260386.20143   -974562.88042  20122434.5154   20122429.8164
        56.0004         50.0004
  23104482.0154   -1154948.12343   -894294.09142  23104482.9794   23104480.3314
        45.0004         40.0004
  20769037.4434   -3690839.27444  -2863907.34042  20769039.2904   20769032.5274
        57.0004         50.0004
  23190482.8984  -14556921.00543 -11010035.82442  23190485.6194   23190483.2234
        47.0004         41.0004
 05  6 24 17 23  0.0000000  0  8G21G 3G19G18G15G 9G14G 1
  22437322.7324   17737888.10643  13820587.62142  22437323.9584   22437317.6184
        53.0004         45.0004
  22093558.3774    6087250.34843   4755193.29742  22093560.7864   22093555.2894
        54.0004         47.0004
  22762190.3344   -2712197.22443  -2099750.96342  22762192.4664   22762185.8574
        51.0004         45.0004
  21944006.2374    6048810.19643   4707486.98742  21944007.8284   21944002.3424
        55.0004         47.0004
  20126653.7154   -1238209.94443   -957282.67542  20126654.3724   20126649.9924
        55.0004         50.0004
  23105620.3804   -1148963.05943   -889630.37942  23105621.5474   23105619.4794
        45.0004         40.0004
  20759158.7984   -3742750.48944  -2904357.59842  20759160.6184   20759154.1564
        57.0004         50.0004
  23171576.1224  -14656284.39943 -11087461.77542  23171577.6404   23171573.5524
        48.0004         42.0004
 05  6 24 17 23 30.0000000  0  8G21G 3G19G18G15G 9G14G 1
  22452758.1024   17819007.34543  13883797.39642  22452760.1114   22452754.1314
        52.0004         44.0004
  22097736.3114    6109206.82943   4772302.21942  22097738.2194   22097733.5654
        54.0004         46.0004
  22753737.2704   -2756622.46643  -2134368.01142  22753738.7994   22753731.9974
        52.0004         45.0004
  21953933.7624    6100980.55443   4748139.19942  21953935.0844   21953930.0274
        54.0004         47.0004
  20130960.7674   -1215581.79043   -939650.33942  20130960.9904   20130956.3544
        56.0004         51.0004
  23106873.8364   -1142369.91843   -884492.84542  23106876.3554   23106873.5154
        45.0004         39.0004
  20749372.9514   -3794173.17043  -2944427.18342  20749375.1074   20749368.6414
        56.0004         50.0004
  23152714.1084  -14755414.72443 -11164706.07842  23152716.2964   23152709.3864
        50.0004         42.0004
 05  6 24 17 24  0.0000000  0  8G21G 3G19G18G15G 9G14G 1
  22468254.5904   17900438.30743  13947250.05642  22468255.9614   22468248.7534
        51.0004         43.0004
  22102013.3544    6131679.26943   4789813.18642  22102015.1734   22102008.9274
        54.0004         46.0004
  22745381.2784   -2800529.61043  -2168581.36642  22745382.7614   22745376.7814
        52.0004         46.0004
  21963883.3124    6153260.66943   4788876.92042  21963884.3704   21963878.4994
        55.0004         47.0004
  20135353.4744   -1192496.86844   -921662.08442  20135354.3904   20135349.5424
        58.0004         51.0004
  23108246.0574   -1135164.08043   -878877.89542  23108248.9764   23108242.3964
        45.0004         38.0004
  20739681.2714   -3845102.47543  -2984112.35542  20739682.7724   20739677.3094
        54.0004         50.0004
  23133894.3614  -14854305.69943 -11241763.86042  23133896.5904   23133891.4894
        50.0004         43.0004
 05  6 24 17 24 30.0000000  0  8G21G 3G19G18G15G 9G14G 1
  22483809.5404   17982180.14043  14010944.95442  22483810.5574   22483804.9104
        50.0004         42.0004
  22106387.3274    6154666.37143   4807725.20242  22106388.9974   22106383.3144
        53.0004         46.0004
  22737124.6744   -2843917.16943  -2202389.83742  22737126.9364   22737120.2204
        52.0004         46.0004
  21973852.4014    6205650.10143   4829699.84342  21973853.9364   21973847.1364
        54.0004         46.0004
  20139833.5624   -1168954.75844   -903317.58542  20139834.8154   20139829.4004
        59.0004         51.0004
  23109733.3114   -1127345.09943   -872785.16942  23109735.7844   23109726.5644
        46.0004         37.0004
  20730083.8074   -3895537.35243  -3023412.28242  20730086.0254   20730080.5264
        53.0004         50.0004
  23115122.0274  -14952955.51943 -11318633.74942  23115123.1164   23115120.2304
        50.0004         43.0004
 05  6 24 17 25  0.0000000  0  8G21G 3G19G18G15G 9G14G 1
  22499423.1134   18064231.35843  14074880.90642  22499424.1054   22499416.9094
        49.0004         41.0004
  22110859.3454    6178166.32743   4826036.82642  22110860.7644   22110855.4604
        53.0004         45.0004
  22728967.4324   -2886784.59943  -2235793.01442  22728968.8474   22728961.5924
        52.0004         45.0004
  21983842.3974    6258148.44543   4870607.62042  21983843.6824   21983837.2924
        52.0004         46.0004
  20144399.7404   -1144955.17444   -884616.62542  20144401.4194   20144396.0404
        59.0004         52.0004
  23111339.1994   -1118913.00543   -866214.64942  23111338.3574   23111332.9574
        47.0004         37.0004
  20720580.9504   -3945477.42843  -3062326.63742  20720583.0364   20720577.1144
        55.0004         50.0004
  23096394.5144  -15051362.59843 -11395314.50742  23096396.7874   23096394.9484
        49.0004         43.0004
 05  6 24 17 25 30.0000000  0  8G21G 3G19G18G15G 9G14G 1
  22515094.2884   18146587.35343  14139054.35242  22515093.3534   22515086.7534
        49.0004         41.0004
  22115427.8434    6202174.18343   4844744.21442  22115429.9564   22115423.9944
        53.0004         46.0004
  22720909.2484   -2929134.04943  -2268792.58642  22720910.5454   22720903.7004
        52.0004         46.0004
  21993851.7524    6310751.27043   4911596.84042  21993853.0664   21993847.8954
        51.0004         45.0004
  20149052.9784   -1120501.28744   -865561.66942  20149054.3334   20149049.5884
        58.0004         52.0004
  23113061.2444   -1109870.85243   -859168.78742  23113060.9564   23113057.3024
        48.0004         39.0004
  20711170.7124   -3994925.43743  -3100857.54142  20711173.1184   20711167.6094
        56.0004         51.0004
  23077714.4014  -15149528.50943 -11471807.34542  23077717.4004   23077715.4524
        48.0004         43.0004
 05  6 24 17 26  0.0000000  0  8G21G 3G19G18G15G 9G14G 1
  22530825.1564   18229251.60943  14203468.00042  22530825.4534   22530821.6474
        50.0004         43.0004
  22120092.8264    6226692.33243   4863849.24342  22120094.6354   22120089.8074
        52.0004         46.0004
  22712950.0734   -2970959.80743  -2301384.07642  22712951.8254   22712943.9904
        52.0004         46.0004
  22003882.6764    6363462.03743   4952670.18742  22003883.8144   22003878.6714
        51.0004         45.0004
  20153794.4084   -1095588.43344   -846149.07142  20153795.3954   20153790.3264
        59.0004         52.0004
  23114898.9394   -1100214.16043   -851644.06442  23114901.0344   23114896.4674
        49.0004         40.0004
  20701856.2884   -4043876.49344  -3139001.20342  20701858.4244   20701852.0724
        57.0004         51.0004
  23059083.3124  -15247447.19143 -11548107.52042  23059083.8784   23059082.1674
        49.0004         43.0004
 05  6 24 17 26 30.0000000  0  8G21G 3G19G18G15G 9G14G 1
  22546614.0724   18312217.57543  14268116.74642  22546614.8994   22546610.4114
        52.0004         44.0004
  22124854.7324    6251714.33843   4883346.89942  22124855.7534   22124852.2404
        52.0004         46.0004
  22705089.3634   -3012266.02043  -2333570.73642  22705090.6434   22705084.2734
        52.0004         46.0004
  22013932.7154    6416275.61543   4993823.60542  22013934.0114   22013927.4494
        52.0004         46.0004
  20158621.4334   -1070221.37744   -826382.55142  20158622.6034   20158617.4084
        59.0004         52.0004
  23116852.4364   -1089948.01243   -843644.46842  23116854.2324   23116849.9964
        49.0004         41.0004
  20692635.2694   -4092334.88744  -3176760.95742  20692637.2254   20692630.4864
        57.0004         50.0004
  23040494.7384  -15345121.90543 -11624217.61142  23040496.1614   23040493.4574
        49.0004         42.0004
 05  6 24 17 27  0.0000000  0  8G21G 3G19G18G15G 9G14G 1
  22562460.3304   18395491.54043  14333005.50342  22562461.9014   22562456.8874
        52.0004         45.0004
  22129712.7914    6277245.54143   4903241.34142  22129714.5874   22129710.1524
        53.0004         46.0004
  22697329.6964   -3053044.50343  -2365346.16842  22697330.7214   22697325.1534
        51.0004         46.0004
  22024004.3464    6469198.43243   5035062.14142  22024006.1504   22023999.0174
        53.0004         46.0004
  20163536.5584   -1044392.68444   -806256.30742  20163537.6464   20163532.3214
        58.0004         52.0004
  23118923.2564   -1079065.18843   -835164.35542  23118924.0114   23118919.9144
        48.0004         41.0004
  20683508.7124   -4140293.08644  -3214130.93942  20683510.8234   20683504.2744
        57.0004         50.0004
  23021955.9944  -15442543.86143 -11700130.71742  23021956.6404   23021953.2464
        49.0004         42.0004
 05  6 24 17 27 30.0000000  0  8G21G 3G19G18G15G 9G14G 1
  22578364.1844   18479069.16643  14398130.88242  22578365.9104   22578360.1884
        51.0004         44.0004
  22134667.8814    6303281.13043   4923528.80842  22134669.2304   22134664.4784
        54.0004         46.0004
  22689669.9994   -3093297.32043  -2396711.98042  22689670.8834   22689664.9604
        52.0004         46.0004
  22034094.6484    6522226.46243   5076382.65542  22034096.3564   22034090.0644
        53.0004         46.0004
  20168539.0254   -1018105.14544   -785772.52142  20168539.7984   20168534.4704
        58.0004         51.0004
  23121111.2834   -1067568.91343   -826206.22542  23121113.1694   23121106.9254
        48.0004         40.0004
  20674477.4154   -4187753.97643  -3251113.41542  20674479.1934   20674472.5964
        56.0004         50.0004
  23003465.3964  -15539714.57143 -11775848.05042  23003467.8314   23003461.0584
        50.0004         42.0004
 05  6 24 17 28  0.0000000  0  9G22G21G 3G19G18G15G 9G14G 1
  20848810.289
        45.000
  22594326.4444   18562950.11843  14463492.63642  22594326.9814   22594322.9954
        49.0004         44.0004
  22139718.2314    6329820.36543   4944208.72142  22139719.8794   22139714.4184
        54.0004         46.0004
  22682110.3054   -3133022.48843  -2427666.65942  22682111.5214   22682105.4134
        52.0004         46.0004
  22044205.1884    6575360.22343   5117785.58242  22044207.2594   22044200.4474
        53.0004         46.0004
  20173629.0454    -991357.89644   -764930.51542  20173629.6504   20173624.0914
        57.0004         51.0004
  23123415.4064   -1055458.10143   -816769.19542  23123415.9264   23123413.1014
        46.0004         39.0004
  20665539.6774   -4234716.00943  -3287707.18042  20665541.8774   20665536.1214
        54.0004         49.0004
  22985022.9924  -15636631.44643 -11851367.57542  22985024.3554   22985019.2434
        51.0004         43.0004
 05  6 24 17 28 30.0000000  0  9G22G21G 3G19G18G15G 9G14G 1
  20851789.9394    -217195.08753   -169087.67252  20851791.0734   20851779.1734
        45.0004         37.0004
  22610346.0154   18647135.91143  14529091.97042  22610345.7364   22610341.4364
        46.0004         42.0004
  22144864.9634    6356865.07043   4965282.49142  22144866.4114   22144860.3174
        54.0004         47.0004
  22674651.4694   -3172215.63743  -2458206.74942  22674653.0714   22674646.2924
        52.0004         46.0004
  22054336.7174    6628602.75343   5159273.27142  22054338.6104   22054332.2854
        53.0004         45.0004
  20178807.3764    -964147.01644   -743727.23142  20178808.0364   20178802.2464
        57.0004         50.0004
  23125835.7384   -1042729.08443   -806850.46642  23125838.8564   23125836.2564
        43.0004         37.0004
  20656699.0924   -4281174.81243  -3323908.85142  20656701.0784   20656695.4054
        54.0004         49.0004
  22966629.1464  -15733289.11743 -11926685.13542  22966631.8394   22966626.3424
        50.0004         43.0004
 05  6 24 17 29  0.0000000  0  9G22G21G 3G19G18G15G 9G14G 1
  20854802.9004    -201354.37943   -156744.17942  20854803.2084   20854794.3304
        44.0004         38.0004
  22626423.8454   18731618.82543  14594922.83342  22626423.1764   22626418.4214
        48.0004         41.0004
  22150104.7794    6384406.44743   4986743.28542  22150107.0254   22150101.0854
        53.0004         46.0004
  22667293.8874   -3210882.65143  -2488336.88342  22667294.6724   22667288.4744
        52.0004         46.0004
  22064488.9054    6681946.37243   5200839.72742  22064490.0924   22064483.6534
        54.0004         46.0004
  20184072.2264    -936479.37343   -722168.02642  20184073.0264   20184067.0724
        56.0004         50.0004
  23128374.9914   -1029388.81643   -796455.47542  23128377.1544   23128372.5464
        42.0004         37.0004
  20647953.4634   -4327137.02043  -3359723.56742  20647955.3954   20647949.1854
        55.0004         50.0004
  22948282.9774  -15829692.88143 -12001804.87942  22948283.8134   22948283.4044
        49.0004         42.0004
 05  6 24 17 29 30.0000000  0  9G22G21G 3G19G18G15G 9G14G 1
  20857849.2984    -185344.49643   -144268.90642  20857849.5924   20857843.3414
        46.0004         38.0004
  22642556.5604   18816399.95143  14660985.98442  22642557.5314   22642550.3144
        50.0004         42.0004
  22155441.0554    6412444.76543   5008591.31442  22155442.5864   22155437.5784
        53.0004         46.0004
  22660036.3424   -3249020.51643  -2518054.70342  22660036.7334   22660031.2184
        52.0004         45.0004
  22074659.7444    6735392.97843   5242486.40442  22074661.7334   22074654.2994
        54.0004         46.0004
  20189424.5274    -908352.48443   -700250.96742  20189425.0434   20189419.3934
        56.0004         50.0004
  23131031.4554   -1015435.35343   -785582.69042  23131033.4974   23131028.2834
        45.0004         37.0004
  20639302.5084   -4372600.13243  -3395149.36542  20639304.3894   20639297.6174
        56.0004         51.0004
  22929987.6004  -15925839.04243 -12076723.90642  22929989.7414   22929984.6164
        49.0004         43.0004
 05  6 24 17 30  0.0000000  0  9G22G21G 3G19G18G15G 9G14G 1
  20860930.4374    -169164.83243   -131661.37742  20860929.9844   20860922.5344
        47.0004         40.0004
  22658746.6664   18901479.25343  14727281.46642  22658748.0334   22658740.5664
        52.0004         42.0004
  22160871.4364    6440979.64443   5030826.26242  22160873.0604   22160868.0264
        53.0004         46.0004
  22652879.5144   -3286627.03543  -2547358.47942  22652880.5544   22652875.2044
        52.0004         45.0004
  22084850.1494    6788942.98643   5284213.66842  22084852.0724   22084844.9464
        54.0004         47.0004
  20194864.8724    -879764.88543   -677974.92942  20194865.1954   20194859.6884
        56.0004         50.0004
  23133805.6874   -1000867.50643   -774231.12742  23133808.4334   23133796.7314
        46.0004         37.0004
  20630746.7104   -4417562.23244  -3430184.74842  20630748.7424   20630741.6084
        57.0004         51.0004
  22911742.5404  -16021724.53243 -12151439.81042  22911744.5334   22911738.8524
        51.0004         43.0004
 05  6 24 17 30 30.0000000  0  9G22G21G 3G19G18G15G 9G14G 1
  20864041.3484    -152815.09143   -118921.31142  20864041.3484   20864032.7794
        49.0004         41.0004
  22674993.3444   18986856.25443  14793808.88642  22674995.9714   22674986.3904
        52.0004         42.0004
  22166395.0974    6470010.19043   5053447.46342  22166396.7264   22166392.1204
        52.0004         46.0004
  22645825.1554   -3323700.05843  -2576246.53742  22645826.6874   22645820.2654
        52.0004         45.0004
  22095059.7284    6842596.82943   5326021.83242  22095061.3304   22095054.7624
        53.0004         46.0004
  20200392.0234    -850715.33344   -655338.92642  20200392.5894   20200388.0474
        57.0004         50.0004
  23136693.2414    -985684.53843   -762400.22242  23136695.1744   23136687.9154
        47.0004         38.0004
  20622286.0644   -4462022.15344  -3464828.81642  20622288.1534   20622281.1154
        57.0004         51.0004
  22893545.8154  -16117346.68243 -12225950.50742  22893547.7754   22893542.1754
        51.0004         43.0004
 05  6 24 17 31  0.0000000  0  9G22G21G 3G19G18G15G 9G14G 1
  20867183.8374    -136296.40343   -106049.62042  20867183.5674   20867176.3214
        49.0004         40.0004
  22691297.0464   19072529.57243  14860567.20242  22691298.9614   22691290.9714
        53.0004         43.0004
  22172013.5974    6499534.32343   5076453.24042  22172014.9694   22172010.6094
        53.0004         45.0004
  22638872.2334   -3360239.25843  -2604718.64942  22638873.0154   22638866.5694
        52.0004         45.0004
  22105288.2424    6896353.72643   5367910.31342  22105289.8784   22105284.7474
        52.0004         46.0004
  20206007.4684    -821203.90544   -632343.02142  20206008.3114   20206003.9344
        58.0004         50.0004
  23139698.8524    -969887.05043   -750090.41842  23139700.7904   23139695.1994
        46.0004         38.0004
  20613920.8624   -4505979.77244  -3499081.48542  20613923.0974   20613916.2094
        57.0004         51.0004
  22875399.5434  -16212704.17543 -12300254.97042  22875402.1144   22875397.6934
        51.0004         43.0004
 05  6 24 17 31 30.0000000  0  9G22G21G 3G19G18G15G 9G14G 1
  20870359.9824    -119608.67543    -93046.15742  20870359.5354   20870349.6564
        50.0004         40.0004
  22707656.8964   19158499.06443  14927556.32842  22707658.5814   22707650.9054
        52.0004         43.0004
  22177724.9284    6529550.89743   5099842.77542  22177726.8954   22177723.1944
        53.0004         45.0004
  22632020.7514   -3396242.98643  -2632773.51342  22632022.5924   22632015.5184
        53.0004         46.0004
  22115537.5144    6950213.79743   5409879.19042  22115539.0084   22115533.2954
        52.0004         45.0004
  20211711.5314    -791229.96144   -608986.72742  20211712.7474   20211708.1394
        58.0004         51.0004
  23142821.3834    -953474.16643   -737301.14342  23142824.3784   23142817.3744
        46.0004         38.0004
  20605651.2824   -4549433.96643  -3532941.88042  20605653.7124   20605647.3684
        56.0004         51.0004
  22857303.8984  -16307794.68143 -12374351.40142  22857306.3154   22857300.5534
        50.0004         42.0004
 05  6 24 17 32  0.0000000  0  9G22G21G 3G19G18G15G 9G14G 1
  20873567.3184    -102752.65243    -79911.58342  20873568.5614   20873557.9554
        50.0004         40.0004
  22724072.5184   19244762.91743  14994774.83942  22724073.3014   22724067.6364
        49.0004         43.0004
  22183530.5764    6560058.15143   5123614.62242  22183532.3574   22183527.7374
        53.0004         45.0004
  22625271.5954   -3431710.52743  -2660410.55742  22625273.3504   22625266.2864
        53.0004         46.0004
  22125806.6064    7004176.53643   5451928.07842  22125807.9184   22125802.4064
        52.0004         45.0004
  20217503.8604    -760793.30244   -585269.88042  20217505.1494   20217499.6014
        59.0004         51.0004
  23146060.6344    -936445.91943   -724032.35042  23146063.6294   23146059.3264
        45.0004         38.0004
  20597477.8284   -4592384.30643  -3566409.67242  20597479.9424   20597474.1684
        55.0004         50.0004
  22839259.9634  -16402616.51543 -12448238.45842  22839263.5664   22839256.0394
        50.0004         42.0004
 05  6 24 17 32 30.0000000  0  9G22G21G 3G19G18G15G 9G14G 1
  20876808.5874     -85727.66643    -66645.35742  20876808.2324   20876799.6024
        52.0004         41.0004
  22740541.9344   19331321.23443  15062222.85042  22740541.9974   22740538.9404
        44.0004         41.0004
  22189430.1724    6591055.73043   5147768.56542  22189432.0584   22189426.6614
        53.0004         46.0004
  22618625.0074   -3466639.27843  -2687627.75642  22618626.2464   22618620.0174
        53.0004         47.0004
  22136094.9634    7058242.82743   5494057.64542  22136096.7014   22136090.8134
        53.0004         45.0004
  20223384.1794    -729892.39844   -561191.29142  20223385.5154   20223379.6704
        59.0004         52.0004
  23149419.5764    -918801.22043   -710283.26142  23149420.4704   23149418.2664
        46.0004         40.0004
  20589399.7924   -4634828.94443  -3599483.42342  20589402.0044   20589396.5274
        53.0004         49.0004
  22821267.4164  -16497166.48443 -12521913.66842  22821270.3214   22821266.6374
        51.0004         43.0004
 05  6 24 17 33  0.0000000  0  9G22G21G 3G19G18G15G 9G14G 1
  20880079.8244     -68533.68043    -53247.41342  20880080.4324   20880071.0254
        52.0004         42.0004
  22757068.7444   19418173.22943  15129899.77642  22757068.7534   22757066.5544
        44.0004         40.0004
  22195421.3454    6622542.22043   5172303.47742  22195422.7754   22195419.2174
        53.0004         46.0004
  22612080.3794   -3501027.97743  -2714424.13042  22612081.5714   22612076.0984
        53.0004         46.0004
  22146403.3924    7112412.79043   5536267.98742  22146404.5944   22146399.2174
        54.0004         46.0004
  20229352.8404    -698526.58444   -536750.41842  20229354.1274   20229348.2534
        59.0004         51.0004
  23152895.7464    -900539.91143   -696053.67342  23152897.1424   23152893.8414
        48.0004         41.0004
  20581420.2044   -4676766.91343  -3632162.36242  20581421.9694   20581415.2784
        53.0004         48.0004
  22803326.9984  -16591442.37743 -12595375.33642  22803329.5834   22803324.5524
        51.0004         44.0004
 05  6 24 17 33 30.0000000  0  9G22G21G 3G19G18G15G 9G14G 1
  20883382.8954     -51179.70943    -39724.85342  20883383.6084   20883373.9644
        53.0004         42.0004
  22773653.8214   19505310.39343  15197798.81842  22773653.7144   22773647.9354
        47.0004         42.0004
  22201504.1554    6654507.92643   5197211.80442  22201505.9484   22201501.4974
        53.0004         46.0004
  22605638.6604   -3534883.82443  -2740805.30342  22605639.6214   22605633.0734
        53.0004         47.0004
  22156729.9784    7166678.10743   5578552.62642  22156731.7744   22156724.9354
        54.0004         46.0004
  20235408.6244    -666703.75844   -511953.42542  20235409.6794   20235404.0864
        58.0004         51.0004
  23156486.3374    -881670.19943   -681350.00142  23156488.7624   23156483.2024
        48.0004         41.0004
  20573535.4034   -4718205.65443  -3664452.27442  20573537.0334   20573529.9444
        55.0004         49.0004
  22785437.5624  -16685450.41043 -12668628.29742  22785439.0384   22785438.7464
        50.0004         44.0004
 05  6 24 17 34  0.0000000  0  9G22G21G 3G19G18G15G 9G14G 1
  20886717.6904     -33656.38343    -26070.32942  20886718.1664   20886708.2534
        53.0004         42.0004
  22790291.2454   19592740.52643  15265926.12042  22790291.4994   22790285.9744
        49.0004         42.0004
  22207680.0744    6686960.48443   5222499.48842  22207681.2704   22207676.5304
        53.0004         46.0004
  22599299.8034   -3568196.17043  -2766762.97942  22599300.5844   22599294.3974
        53.0004         47.0004
  22167076.7364    7221048.02343   5620918.76942  22167078.6574   22167071.7754
        55.0004         46.0004
  20241553.7164    -634413.81644   -486792.44142  20241554.3574   20241548.9914
        57.0004         51.0004
  23160195.9794    -862182.57143   -666164.83042  23160197.0034   23160191.9434
        48.0004         41.0004
  20565746.9784   -4759135.44443  -3696345.59242  20565748.7224   20565742.3824
        56.0004         50.0004
  22767600.6684  -16779179.24343 -12741663.71842  22767602.0684   22767601.3804
        49.0004         44.0004
 05  6 24 17 34 30.0000000  0  9G22G21G 3G19G18G15G 9G14G 1
  20890082.5074     -15970.19643    -12288.89042  20890083.6874   20890073.0744
        53.0004         43.0004
  22806981.9494   19680456.52243  15334276.14842  22806983.4844   22806976.4474
        50.0004         42.0004
  22213946.7044    6719892.10643   5248160.47142  22213948.2044   22213944.1024
        53.0004         46.0004
  22593062.7694   -3600969.95743  -2792300.99642  22593063.9694   22593057.2414
        53.0004         47.0004
  22177441.1904    7275516.28543   5663361.54742  22177443.2164   22177436.3284
        55.0004         47.0004
  20247785.5654    -601662.55043   -461271.97242  20247786.3644   20247781.2904
        56.0004         50.0004
  23164020.2154    -842082.97343   -650502.80642  23164021.6184   23164015.8374
        47.0004         41.0004
  20558054.1184   -4799561.70644  -3727846.54942  20558055.8104   20558050.0004
        57.0004         51.0004
  22749816.7624  -16872633.05143 -12814484.84642  22749817.5344   22749818.1934
        48.0004         43.0004
 05  6 24 17 35  0.0000000  0  9G22G21G 3G19G18G15G 9G14G 1
  20893480.0254       1882.84743      1622.57342  20893480.6624   20893472.3924
        53.0004         43.0004
  22823729.8964   19768462.12543  15402851.82842  22823731.0734   22823723.3864
        50.0004         42.0004
  22220304.2384    6753305.61143   5274196.96342  22220305.9504   22220301.4584
        53.0004         46.0004
  22586929.5364   -3633199.50243  -2817414.91342  22586931.1244   22586924.2924
        53.0004         46.0004
  22187826.0804    7330086.97443   5705884.13142  22187828.0414   22187820.5934
        55.0004         46.0004
  20254107.1104    -568445.06043   -435388.18542  20254107.2564   20254102.3074
        55.0004         50.0004
  23167960.8774    -821366.92543   -634360.44542  23167964.7464   23167960.7604
        46.0004         41.0004
  20550458.2064   -4839479.33244  -3758951.17442  20550460.0884   20550453.7734
        57.0004         51.0004
  22732086.9404  -16965805.47843 -12887086.72142  22732088.9654   22732087.3624
        49.0004         43.0004
 05  6 24 17 35 30.0000000  0  9G22G21G 3G19G18G15G 9G14G 1
  20896909.1214      19901.83443     15663.31142  20896909.5594   20896899.9694
        51.0004         42.0004
  22840530.6694   19856755.66143  15471651.87842  22840527.4064   22840524.7864
        48.0004         40.0004
  22226753.7124    6787198.70443   5300607.15642  22226755.2874   22226749.6424
        52.0004         46.0004
  22580899.2384   -3664884.82443  -2842104.76642  22580901.2304   22580894.3854
        52.0004         46.0004
  22198229.5354    7384759.28943   5748485.93142  22198231.6034   22198224.4334
        55.0004         46.0004
  20260516.6894    -534761.72043   -409141.41642  20260516.9144   20260511.9434
        56.0004         50.0004
  23172019.3054    -800035.23043   -617738.33942  23172021.5954   23172018.3744
        45.0004         41.0004
  20542958.6534   -4878888.36844  -3789659.49342  20542960.7744   20542954.2354
        57.0004         51.0004
  22714411.8024  -17058695.33043 -12959468.36542  22714412.9344   22714408.3764
        50.0004         43.0004
 05  6 24 17 36  0.0000000  0  9G22G21G 3G19G18G15G 9G14G 1
  20900368.4464      38083.80643     29831.10042  20900369.4004   20900360.8904
        49.0004         42.0004
  22857383.5514   19945333.10343  15540673.21642  22857382.7214   22857380.6884
        45.0004         39.0004
  22233293.5834    6821567.10443   5327387.71042  22233295.9574   22233289.9844
        52.0004         46.0004
  22574973.8084   -3696027.44843  -2866371.74142  22574975.1724   22574968.1994
        52.0004         46.0004
  22208651.9864    7439531.39143   5791165.46942  22208654.1554   22208647.7214
        54.0004         46.0004
  20267014.1724    -500614.78544   -382533.41542  20267014.9354   20267010.0234
        57.0004         51.0004
  23176195.2744    -778090.79043   -600638.80142  23176197.3864   23176194.3354
        45.0004         40.0004
  20535555.0164   -4917791.01243  -3819973.22842  20535557.4434   20535550.8144
        56.0004         51.0004
  22696790.0474  -17151303.29743 -13031630.31842  22696790.6474   22696783.2054
        51.0004         42.0004
 05  6 24 17 36 30.0000000  0  9G22G21G 3G19G18G15G 9G14G 1
  20903859.3444      56428.83943     44125.96142  20903860.8094   20903850.9044
        48.0004         41.0004
  22874295.3374   20034194.16643  15609915.53742  22874295.2404   22874291.9904
        46.0004         40.0004
  22239925.6084    6856409.73443   5354537.78542  22239926.5524   22239922.0254
        53.0004         46.0004
  22569150.0664   -3726625.70543  -2890214.54142  22569151.8104   22569145.4004
        51.0004         46.0004
  22219093.7334    7494402.77943   5833922.37042  22219095.7434   22219088.8464
        54.0004         46.0004
  20273600.2334    -466003.54244   -355563.63042  20273601.7154   20273596.2524
        59.0004         51.0004
  23180488.2334    -755533.08543   -583061.40342  23180489.1884   23180486.6724
        44.0004         40.0004
  20528248.6224   -4956186.21543  -3849891.55242  20528250.7294   20528244.7614
        55.0004         51.0004
  22679221.0084  -17243626.92643 -13103570.73942  22679222.7944   22679215.3434
        51.0004         42.0004
 05  6 24 17 37  0.0000000  0  9G22G21G 3G19G18G15G 9G14G 1
  20907381.5244      74935.09743     58546.46742  20907381.5114   20907373.5324
        47.0004         41.0004
  22891259.5144   20123336.14543  15679376.77842  22891261.0874   22891254.9624
        48.0004         41.0004
  22246644.9114    6891723.35843   5382054.87442  22246646.5304   22246640.7174
        53.0004         46.0004
  22563431.4214   -3756680.25043  -2913633.66842  22563432.2044   22563426.7734
        51.0004         46.0004
  22229554.2594    7549371.74043   5876755.29842  22229556.2854   22229549.6314
        54.0004         46.0004
  20280275.2894    -430929.18744   -328232.98342  20280276.6924   20280270.8874
        60.0004         51.0004
  23184896.9734    -732363.84743   -565007.50542  23184898.6794   23184894.0994
        43.0004         40.0004
  20521038.8184   -4994074.99043  -3879415.27242  20521040.8214   20521034.7354
        54.0004         50.0004
  22661704.8384  -17335665.80443 -13175289.27842  22661707.3074   22661701.0914
        50.0004         43.0004
 05  6 24 17 37 30.0000000  0  9G22G21G 3G19G18G15G 9G14G 1
  20910933.2804      93605.04143     73094.51542  20910934.6144   20910928.3704
        47.0004         41.0004
  22908276.0724   20212761.00643  15749058.43342  22908277.4114   22908271.7744
        50.0004         42.0004
  22253454.1104    6927508.80043   5409939.61042  22253455.7234   22253451.3104
        53.0004         45.0004
  22557816.5464   -3786187.43743  -2936626.27042  22557817.0004   22557811.7144
        51.0004         46.0004
  22240033.7994    7604441.00343   5919666.38142  22240035.7294   22240028.6734
        54.0004         46.0004
  20287037.9484    -395388.63744   -300539.08742  20287039.7554   20287034.2724
        60.0004         51.0004
  23189422.8334    -708580.47343   -546475.01542  23189425.5664   23189420.9564
        43.0004         40.0004
  20513925.1834   -5031454.22443  -3908541.95242  20513927.4544   20513921.6494
        54.0004         50.0004
  22644246.2024  -17427415.38143 -13246782.41142  22644247.7794   22644243.0994
        51.0004         44.0004
 05  6 24 17 38  0.0000000  0  9G22G21G 3G19G18G15G 9G14G 1
  20914513.3104     112432.78143     87765.50442  20914515.4154   20914508.5404
        45.0004         40.0004
  22925346.1004   20302462.20443  15818955.40442  22925347.6174   22925341.9684
        50.0004         43.0004
  22260353.2734    6963759.14943   5438186.60842  22260355.0974   22260349.6054
        53.0004         45.0004
  22552305.2714   -3815151.66943  -2959195.80342  22552306.9044   22552299.7754
        52.0004         46.0004
  22250531.2004    7659605.22943   5962651.47042  22250532.9444   22250526.2974
        53.0004         45.0004
  20293888.8484    -359386.88444   -272485.80742  20293890.5434   20293885.0194
        59.0004         51.0004
  23194065.7734    -684188.64643   -527468.41242  23194067.5844   23194061.9444
        45.0004         40.0004
  20506908.9484   -5068328.45543  -3937275.12042  20506910.4234   20506904.8704
        54.0004         50.0004
  22626841.7584  -17518879.04843 -13318052.74842  22626842.7384   22626839.0404
        52.0004         44.0004
 05  6 24 17 38 30.0000000  0  9G22G21G 3G19G18G15G 9G14G 1
  20918130.3384     131423.60043    102563.51542  20918130.0804   20918122.6194
        47.0004         41.0004
  22942468.9984   20392444.00843  15889071.02842  22942470.6094   22942463.7684
        51.0004         43.0004
  22267340.2894    7000478.00743   5466798.68642  22267341.6524   22267337.4454
        53.0004         45.0004
  22546897.4364   -3843566.65143  -2981337.33442  22546899.2604   22546893.1314
        52.0004         46.0004
  22261046.5884    7714869.82443   6005714.78442  22261048.6954   22261042.4634
        51.0004         44.0004
  20300828.8084    -322918.45444   -244068.87742  20300829.7434   20300824.4634
        57.0004         50.0004
  23198824.5894    -659183.05943   -507983.53942  23198825.9214   23198821.3494
        45.0004         41.0004
  20499989.4304   -5104692.42943  -3965610.68242  20499990.7414   20499984.5834
        55.0004         50.0004
  22609492.7134  -17610049.50643 -13389094.60242  22609493.8614   22609490.6174
        52.0004         45.0004
 05  6 24 17 39  0.0000000  0  9G22G21G 3G19G18G15G 9G14G 1
  20921775.2134     150579.95243    117490.54142  20921776.1474   20921766.4254
        48.0004         40.0004
  22959645.4074   20482707.95043  15959406.47642  22959647.7054   22959641.5044
        51.0004         42.0004
  22274416.8314    7037666.09943   5495776.39842  22274418.2564   22274413.4804
        52.0004         45.0004
  22541595.5704   -3871428.77543  -3003048.06842  22541597.3324   22541590.9914
        52.0004         47.0004
  22271582.5364    7770237.17943   6048858.18242  22271584.0314   22271577.4314
        51.0004         44.0004
  20307858.5164    -285980.31743   -215285.92242  20307858.6954   20307853.3304
        56.0004         50.0004
  23203699.6424    -633561.23543   -488018.46242  23203701.1034   23203697.8594
        45.0004         41.0004
  20493167.4784   -5140542.57343  -3993545.84842  20493169.2224   20493162.4934
        56.0004         50.0004
  22592199.6564  -17700922.35143 -13459904.56842  22592200.3514   22592198.9544
        52.0004         45.0004
 05  6 24 17 39 30.0000000  0  9G22G21G 3G19G18G15G 9G14G 1
  20925451.3144     169893.81643    132540.28242  20925452.8744   20925442.5884
        47.0004         39.0004
  22976875.8094   20573245.49743  16029955.09342  22976877.5474   22976868.7764
        49.0004         41.0004
  22281581.2094    7075314.05743   5525112.45942  22281581.3114   22281579.0014
        52.0004         45.0004
  22536398.1474   -3898744.73343  -3024333.21642  22536398.8654   22536392.3954
        52.0004         47.0004
  22282138.3684    7825699.44943   6092075.52342  22282139.9324   22282132.7624
        53.0004         44.0004
  20314975.4104    -248579.72843   -186142.60342  20314975.3354   20314970.3704
        55.0004         49.0004
  23208691.6894    -607331.12843   -467579.40942  23208693.5724   23208688.6744
        45.0004         41.0004
  20486441.9514   -5175885.98843  -4021086.14242  20486443.8584   20486437.1304
        56.0004         51.0004
  22574961.8964  -17791503.25643 -13530487.05642  22574963.7424   22574961.8154
        50.0004         44.0004
 05  6 24 17 40  0.0000000  0  9G22G21G 3G19G18G15G 9G14G 1
  20929157.3014     189371.20143    147717.45642  20929159.9194   20929147.6784
        46.0004         39.0004
  22994155.5134   20664061.53243  16100720.71742  22994153.6324   22994148.2294
        45.0004         38.0004
  22288833.3214    7113426.44743   5554810.41542  22288834.7844   22288830.8944
        52.0004         45.0004
  22531304.9254   -3925507.24643  -3045187.12242  22531306.2554   22531300.1314
        53.0004         47.0004
  22292711.3144    7881263.33843   6135372.01742  22292712.7604   22292706.0634
        54.0004         45.0004
  20322181.1014    -210710.24143   -156633.90742  20322181.4664   20322176.5724
        55.0004         49.0004
  23213796.6554    -580486.77843   -446661.72142  23213798.8244   23213797.0734
        43.0004         41.0004
  20479813.4854   -5210716.14543  -4048226.50042  20479815.8334   20479808.9714
        56.0004         51.0004
  22557782.2344  -17881784.02343 -13600835.68942  22557783.3454   22557781.9364
        50.0004         44.0004
 05  6 24 17 40 30.0000000  0  9G22G21G 3G19G18G15G 9G14G 1
  20932891.0694     209007.49543    163018.50442  20932893.0944   20932884.8204
        42.0004         38.0004
  23011487.5694   20755150.80043  16171699.37842  23011486.7624   23011483.9674
        45.0004         38.0004
  22296173.5294    7151997.39343   5584865.67242  22296175.4174   22296169.4534
        53.0004         45.0004
  22526316.9874   -3951719.78743  -3065612.48242  22526318.2914   22526311.8934
        53.0004         47.0004
  22303303.5524    7936924.33243   6178744.18442  22303304.9614   22303298.8754
        54.0004         45.0004
  20329477.0614    -172375.94144   -126763.05242  20329477.3744   20329471.7584
        57.0004         50.0004
  23219021.1364    -553032.69043   -425268.95842  23219022.6964   23219022.2384
        44.0004         41.0004
  20473282.6084   -5245036.87443  -4074969.90642  20473284.6454   20473278.4984
        56.0004         51.0004
  22540657.6734  -17971767.15443 -13670952.40642  22540658.4514   22540658.2474
        49.0004         44.0004
 05  6 24 17 41  0.0000000  0  9G22G21G 3G19G18G15G 9G14G 1
  20936658.7584     228799.69743    178441.01442  20936659.5214   20936652.9934
        43.0004         39.0004
  23028875.2924   20846509.73143  16242888.04742  23028875.7404   23028870.1814
        48.0004         40.0004
  22303599.7174    7191022.22043   5615274.58742  22303601.9744   22303595.5134
        54.0004         46.0004
  22521433.4824   -3977384.66243  -3085611.09442  22521435.3374   22521428.3324
        53.0004         46.0004
  22313912.9074    7992679.12043   6222189.44442  22313914.9014   22313907.9514
        54.0004         45.0004
  20336859.1564    -133579.23144    -96531.87842  20336860.5244   20336854.9404
        57.0004         51.0004
  23224361.8544    -524971.91343   -403403.45242  23224363.3864   23224362.1904
        45.0004         42.0004
  20466847.5134   -5278850.68143  -4101318.31842  20466849.7294   20466844.0664
        55.0004         50.0004
  22523592.4094  -18061453.49743 -13740837.82442  22523594.3634   22523590.3174
        50.0004         43.0004
 05  6 24 17 41 30.0000000  0  9G22G21G 3G19G18G15G 9G14G 1
  20940460.4884     248750.90043    193987.40942  20940459.3434   20940448.6264
        46.0004         40.0004
  23046311.3434   20938140.17243  16314288.30742  23046313.3954   23046307.8404
        50.0004         42.0004
  22311112.5904    7230502.15843   5646038.13242  22311114.4164   22311109.0044
        54.0004         46.0004
  22516655.2834   -4002497.53543  -3105179.58042  22516656.3454   22516649.4234
        53.0004         46.0004
  22324540.7864    8048531.32743   6265710.62842  22324542.0244   22324537.1474
        53.0004         45.0004
  20344330.1034     -94316.78344    -65937.78442  20344331.6404   20344326.1994
        58.0004         51.0004
  23229819.8494    -496301.61543   -381063.00442  23229820.3514   23229818.2464
        47.0004         42.0004
  20460509.8634   -5312153.96143  -4127268.93342  20460512.0424   20460506.6604
        54.0004         50.0004
  22506584.1504  -18150838.10343 -13810488.10242  22506585.0754   22506580.4784
        51.0004         44.0004
 05  6 24 17 42  0.0000000  0  9G22G21G 3G19G18G15G 9G14G 1
  20944285.1274     268860.57843    209657.33342  20944286.0334   20944275.1094
        48.0004         41.0004
  23063799.1314   21030040.76243  16385899.05542  23063801.4374   23063796.4324
        50.0004         42.0004
  22318711.6464    7270435.21143   5677154.76642  22318712.9774   22318707.5734
        53.0004         46.0004
  22511981.6354   -4027057.78143  -3124317.42842  22511983.6594   22511975.7814
        54.0004         46.0004
  22335187.9154    8104480.53743   6309307.40742  22335189.9564   22335183.2454
        52.0004         45.0004
  20351890.5884     -54588.69644    -34980.85242  20351891.7304   20351886.3324
        58.0004         51.0004
  23235391.9604    -467022.45543   -358248.09242  23235393.2004   23235389.1504
        49.0004         43.0004
  20454270.6024   -5344946.68243  -4152821.70342  20454272.2624   20454266.1104
        55.0004         51.0004
  22489632.8654  -18239919.39443 -13879902.04042  22489635.0554   22489629.2604
        52.0004         45.0004
 05  6 24 17 42 30.0000000  0  9G22G21G 3G19G18G15G 9G14G 1
  20948142.1624     289126.89243    225449.26642  20948142.2364   20948132.3264
        49.0004         41.0004
  23081337.7564   21122209.01743  16457718.39942  23081339.9634   23081335.7424
        50.0004         42.0004
  22326396.1914    7310817.96243   5708621.81142  22326397.4114   22326392.4004
        52.0004         46.0004
  22507411.9864   -4051066.37943  -3143025.42642  22507413.6254   22507407.0394
        53.0004         46.0004
  22345853.1374    8160525.45943   6352978.79342  22345854.6134   22345848.4024
        52.0004         45.0004
  20359538.6584     -14396.57744     -3662.33942  20359539.8954   20359534.7464
        59.0004         52.0004
  23241077.7264    -437136.55143   -334960.37742  23241079.6214   23241076.0314
        48.0004         43.0004
  20448127.3844   -5377230.11043  -4177977.60542  20448129.0104   20448122.4724
        56.0004         51.0004
  22472738.0074  -18328697.12843 -13949079.46242  22472739.8894   22472735.4964
        52.0004         45.0004
 05  6 24 17 43  0.0000000  0  9G22G21G 3G19G18G15G 9G14G 1
  20952029.0184     309554.53543    241366.90142  20952029.6414   20952018.5574
        49.0004         41.0004
  23098928.2204   21214648.48043  16529749.07842  23098930.0394   23098927.5294
        49.0004         41.0004
  22334167.1554    7351653.49943   5740441.69342  22334167.6064   22334164.2034
        52.0004         45.0004
  22502949.5944   -4074517.93743  -3161299.37142  22502950.4924   22502944.8504
        53.0004         46.0004
  22356536.4994    8216670.65743   6396728.28042  22356537.8044   22356532.2434
        51.0004         44.0004
  20367276.4294      26264.84744     28021.86142  20367277.4914   20367272.2914
        59.0004         52.0004
  23246881.1104    -406639.56043   -311196.50642  23246881.5964   23246879.1234
        47.0004         42.0004
  20442081.5694   -5408998.79543  -4202732.40942  20442083.6104   20442077.0074
        56.0004         51.0004
  22455902.0924  -18417164.48643 -14018015.03942  22455904.8514   22455901.6914
        51.0004         45.0004
 05  6 24 17 43 30.0000000  0  9G22G21G 3G19G18G15G 9G14G 1
  20955942.9354     330138.96143    257406.70342  20955944.5044   20955933.1994
        45.0004         38.0004
  23116571.1664   21307353.81943  16601986.91442  23116572.2464   23116567.1934
        49.0004         41.0004
  22342022.7574    7392935.49443   5772609.47042  22342024.0894   22342020.3194
        52.0004         45.0004
  22498592.6114   -4097415.60643  -3179141.71242  22498593.2734   22498586.5844
        53.0004         46.0004
  22367239.0474    8272911.88843   6440552.63942  22367239.6424   22367235.1604
        51.0004         44.0004
  20375102.8334      67391.49144     60068.57542  20375103.9134   20375098.3444
        59.0004         51.0004
  23252799.3684    -375536.10943   -286960.06942  23252801.1554   23252798.0714
        47.0004         42.0004
  20436132.9784   -5440256.80043  -4227089.28742  20436135.2464   20436128.7624
        56.0004         51.0004
  22439125.5254  -18505323.82143 -14086710.61342  22439127.5484   22439124.5824
        50.0004         44.0004
 05  6 24 17 44  0.0000000  0  9G22G21G 3G19G18G15G 9G14G 1
  20959892.4494     350877.18343    273566.32342  20959889.8564   20959880.6704
        46.0004         38.0004
  23134262.3544   21400321.26843  16674428.96842  23134266.1604   23134257.6124
        48.0004         40.0004
  22349961.7364    7434659.18743   5805121.42342  22349964.0164   22349959.9274
        51.0004         45.0004
  22494340.3394   -4119761.71543  -3196554.27042  22494341.8014   22494334.6284
        54.0004         46.0004
  22377959.2584    8329246.51643   6484449.74942  22377962.0204   22377954.6084
        52.0004         45.0004
  20383016.9034     108980.44944     92475.53742  20383017.9474   20383012.2144
        58.0004         51.0004
  23258832.4714    -343829.48043   -262253.63542  23258835.0854   23258831.5054
        46.0004         41.0004
  20430282.0704   -5471006.63043  -4251050.19442  20430283.9744   20430277.2614
        55.0004         51.0004
  22422409.2944  -18593176.25043 -14155167.03542  22422410.0294   22422405.9404
        51.0004         44.0004
 05  6 24 17 44 30.0000000  0  9G22G21G 3G19G18G15G 9G14G 1
  20963867.0494     371774.80443    289850.21042  20963867.1234   20963858.1394
        46.0004         38.0004
  23152001.7074   21493555.73243  16747079.12442  23152003.3124   23151998.7104
        46.0004         38.0004
  22357986.8794    7476828.58043   5837980.69442  22357988.2124   22357984.4144
        51.0004         45.0004
  22490194.5124   -4141549.74143  -3213531.96742  22490195.4024   22490188.1704
        54.0004         46.0004
  22388699.0694    8385680.56843   6528424.32342  22388700.8674   22388692.4434
        53.0004         45.0004
  20391020.0774     151037.91244    125247.57442  20391021.0324   20391015.4794
        57.0004         50.0004
  23264982.0154    -311514.32043   -237073.01242  23264982.9454   23264980.2194
        46.0004         41.0004
  20424528.3764   -5501242.24243  -4274610.40442  20424530.3194   20424523.7374
        56.0004         51.0004
  22405751.5424  -18680714.06143 -14223378.27042  22405753.2824   22405747.4294
        52.0004         44.0004
 05  6 24 17 45  0.0000000  0  9G22G21G 3G19G18G15G 9G14G 1
  20967872.5424     392826.11743    306253.77142  20967872.6804   20967863.0304
        46.0004         38.0004
  23169794.8254   21587049.69043  16819931.47342  23169794.0134   23169787.2564
        46.0004         38.0004
  22366094.3554    7519435.82143   5871181.11042  22366096.2174   22366091.4744
        52.0004         45.0004
  22486153.3774   -4162784.64343  -3230078.65642  22486155.1884   22486146.1354
        54.0004         45.0004
  22399456.1744    8442207.75843   6572471.44142  22399456.8564   22399450.4344
        54.0004         45.0004
  20399112.0924     193558.22743    158380.28342  20399112.0014   20399106.6574
        56.0004         50.0004
  23271245.8234    -278597.12243   -211423.25342  23271246.8834   23271244.1734
        46.0004         40.0004
  20418871.2764   -5530969.55643  -4297774.54342  20418872.9444   20418866.9254
        55.0004         50.0004
  22389154.5354  -18767941.40043 -14291347.56142  22389155.9064   22389148.8324
        54.0004         44.0004
 05  6 24 17 45 30.0000000  0  9G22G21G 3G19G18G15G 9G14G 1
  20971908.9764     414032.60543    322778.28542  20971907.8794   20971899.5504
        47.0004         39.0004
  23187635.8104   21680803.90543  16892986.61342  23187637.5364   23187628.6104
        48.0004         39.0004
  22374286.4954    7562481.08143   5904722.83142  22374288.6214   22374282.8114
        53.0004         45.0004
  22482218.3124   -4183464.11443  -3246192.55142  22482219.9184   22482211.6344
        54.0004         45.0004
  22410230.7394    8498830.08543   6616592.70442  22410231.4684   22410224.6194
        53.0004         45.0004
  20407291.5694     236543.19843    191875.07042  20407291.7234   20407286.4894
        55.0004         49.0004
  23277623.6774    -245076.52143   -185303.30342  23277626.1744   23277622.8404
        46.0004         41.0004
  20413311.2284   -5560186.07343  -4320540.65742  20413313.5014   20413306.9464
        55.0004         50.0004
  22372614.7194  -18854854.59943 -14359072.06842  22372615.6614   22372610.4124
        54.0004         45.0004
 05  6 24 17 46  0.0000000  0  9G22G21G 3G19G18G15G 9G14G 1
  20975974.8074     435394.77643    339424.11142  20975974.2314   20975966.1074
        48.0004         40.0004
  23205527.1114   21774818.19343  16966244.37942  23205529.5904   23205521.6404
        49.0004         40.0004
  22382560.8024    7605963.05543   5938604.83042  22382562.5564   22382556.9074
        53.0004         45.0004
  22478389.3894   -4203586.70643  -3261872.52242  22478391.2874   22478381.9224
        54.0004         45.0004
  22421023.7274    8555548.52743   6660788.86742  22421024.9854   22421018.5554
        53.0004         45.0004
  20415559.7924     279993.54643    225732.48542  20415559.7804   20415554.5794
        56.0004         49.0004
  23284118.4884    -210952.19143   -158712.93342  23284120.0474   23284114.9914
        47.0004         41.0004
  20407849.8064   -5588891.02743  -4342908.13642  20407851.2644   20407844.5344
        55.0004         50.0004
  22356135.5024  -18941451.12943 -14426549.82942  22356138.0974   22356131.8414
        54.0004         45.0004
 05  6 24 17 46 30.0000000  0  9G22G21G 3G19G18G15G 9G14G 1
  20980068.8264     456913.00343    356191.54842  20980067.7984   20980060.1914
        48.0004         41.0004
  23223466.6934   21869091.92143  17039704.31542  23223469.1124   23223463.7654
        50.0004         41.0004
  22390918.1074    7649880.30243   5972826.00742  22390920.2464   22390913.5584
        53.0004         45.0004
  22474666.1234   -4223151.33143  -3277117.69842  22474667.6824   22474659.6974
        54.0004         46.0004
  22431835.1144    8612363.82843   6705060.51742  22431836.9224   22431830.7234
        52.0004         45.0004
  20423916.5574     323909.90344    259953.00442  20423917.1004   20423911.5924
        57.0004         49.0004
  23290726.9294    -176224.20643   -131652.18042  23290728.0544   23290724.4044
        47.0004         41.0004
  20402484.2194   -5617083.55743  -4364876.32242  20402486.4154   20402479.3074
        55.0004         50.0004
  22339715.5874  -19027728.71843 -14493779.07642  22339718.6124   22339713.8054
        52.0004         45.0004
 05  6 24 17 47  0.0000000  0  9G22G21G 3G19G18G15G 9G14G 1
  20984193.8234     478585.60843    373079.25942  20984193.3304   20984184.9984
        48.0004         41.0004
  23241455.8324   21963622.19343  17113364.18842  23241457.1494   23241453.0914
        49.0004         41.0004
  22399357.3334    7694229.25343   6007383.58442  22399358.9284   22399353.0514
        53.0004         45.0004
  22471048.4854   -4242158.94543  -3291928.82942  22471049.9334   22471043.3024
        53.0004         46.0004
  22442664.8954    8669273.61043   6749405.77342  22442666.3874   22442659.4874
        52.0004         45.0004
  20432361.6574     368290.97144    294535.62642  20432362.9904   20432357.6714
        58.0004         50.0004
  23297450.4634    -140895.06443   -104122.98542  23297451.5914   23297447.5914
        45.0004         41.0004
  20397216.7884   -5644765.26643  -4386446.46442  20397218.8064   20397212.2014
        55.0004         50.0004
  22323356.5054  -19113687.28043 -14560759.73242  22323358.9564   22323356.4774
        50.0004         44.0004
 05  6 24 17 47 30.0000000  0  9G22G21G 3G19G18G15G 9G14G 1
  20988345.6874     500412.18543    390086.99142  20988347.2414   20988337.8984
        48.0004         41.0004
  23259492.3664   22058407.70743  17187222.95142  23259493.2724   23259490.0114
        48.0004         40.0004
  22407878.2714    7739007.52543   6042275.70042  22407880.1954   22407874.7994
        52.0004         45.0004
  22467538.8144   -4260609.30143  -3306305.74142  22467540.1794   22467532.2064
        54.0004         46.0004
  22453512.8924    8726278.49643   6793825.14142  22453515.0194   22453507.1814
        51.0004         44.0004
  20440895.3954     413136.21144    329479.93442  20440896.7864   20440891.9264
        59.0004         51.0004
  23304287.4534    -104965.71643    -76126.11842  23304289.1074   23304285.7434
        48.0004         42.0004
  20392046.3084   -5671935.97043  -4407618.42642  20392048.4814   20392041.7204
        55.0004         51.0004
  22307060.8804  -19199325.26043 -14627490.62042  22307062.2784   22307059.3044
        50.0004         44.0004
 05  6 24 17 48  0.0000000  0  9G22G21G 3G19G18G15G 9G14G 1
  20992530.2464     522393.12043    407215.00642  20992528.4114   20992521.7184
        50.0004         42.0004
  23277576.3624   22153447.78243  17261280.08942  23277578.4284   23277574.3984
        45.0004         40.0004
  22416479.9834    7784213.74743   6077501.31142  22416481.6704   22416478.4454
        52.0004         45.0004
  22464133.6954   -4278501.28843  -3320247.56342  22464135.3574   22464127.0404
        54.0004         47.0004
  22464376.3514    8783378.76543   6838318.80742  22464379.0704   22464372.4544
        48.0004         42.0004
  20449517.8674     458446.26144    364786.41642  20449519.3654   20449514.3184
        60.0004         51.0004
  23311239.9624     -68436.02643    -47661.43742  23311241.0954   23311236.9844
        48.0004         42.0004
  20386972.6254   -5698595.18743  -4428391.82542  20386974.6194   20386968.5344
        55.0004         51.0004
  22290825.0004  -19284640.27743 -14693969.81542  22290826.3554   22290824.4794
        49.0004         44.0004
 05  6 24 17 48 30.0000000  0  9G22G21G 3G19G18G15G 9G14G 1
  20996741.3214     544528.34243    424463.24142  20996741.7734   20996734.4334
        50.0004         42.0004
  23295711.3984   22248741.38143  17335534.79042  23295714.6244   23295707.0844
        46.0004         39.0004
  22425164.4174    7829846.09143   6113058.95342  22425165.0814   22425162.1354
        52.0004         45.0004
  22460835.6254   -4295834.43243  -3333753.92242  22460836.5544   22460829.9494
        54.0004         47.0004
  22475260.4074    8840574.81743   6882887.13642  22475262.6384   22475256.5694
        48.0004         42.0004
  20458228.3794     504221.32044    400455.25242  20458230.0914   20458224.6124
        59.0004         51.0004
  23318304.8924     -31306.75843    -18729.56642  23318306.8524   23318302.4424
        48.0004         42.0004
  20381996.9544   -5724742.88343  -4448766.65942  20381998.9064   20381992.9864
        55.0004         51.0004
  22274653.6824  -19369630.75343 -14760196.12342  22274654.1254   22274650.5234
        50.0004         44.0004
 05  6 24 17 49  0.0000000  0  9G22G21G 3G19G18G15G 9G14G 1
  21000983.0584     566814.95543    441829.40942  21000984.1294   21000974.1534
        52.0004         43.0004
  23313893.2924   22344284.35443  17409983.75842  23313895.4124   23313886.5124
        48.0004         39.0004
  22433928.7074    7875899.50343   6148944.69242  22433930.5934   22433925.8354
        53.0004         46.0004
  22457642.2944   -4312611.21543  -3346826.75642  22457643.8544   22457637.2264
        54.0004         46.0004
  22486162.7824    8897863.60943   6927527.73742  22486165.3624   22486159.4974
        49.0004         43.0004
  20467027.5194     550458.39644    436484.12142  20467028.5824   20467023.1864
        58.0004         51.0004
  23325483.0154       6418.43543     10666.67742  23325483.1134   23325481.7454
        48.0004         42.0004
  20377119.0494   -5750381.71843  -4468744.97342  20377120.8224   20377114.3584
        56.0004         51.0004
  22258543.3844  -19454297.71943 -14826170.34542  22258543.6074   22258539.6244
        52.0004         44.0004
 05  6 24 17 49 30.0000000  0  9G22G21G 3G19G18G15G 9G14G 1
  21005252.7334     589255.28443    459315.36442  21005255.0604   21005243.9854
        51.0004         43.0004
  23332121.5944   22440077.88043  17484627.92642  23332124.1024   23332114.4064
        49.0004         38.0004
  22442772.6234    7922374.55043   6185158.97842  22442774.0424   22442769.3744
        54.0004         46.0004
  22454555.6014   -4328828.48843  -3359463.59942  22454557.3214   22454549.7364
        54.0004         46.0004
  22497084.3954    8955247.83543   6972242.70642  22497085.8894   22497081.1194
        52.0004         45.0004
  20475913.8914     597160.17443    472875.11142  20475914.8814   20475910.4814
        56.0004         51.0004
  23332775.4404      44741.43043     40528.75242  23332776.8804   23332774.0094
        48.0004         42.0004
  20372337.1244   -5775508.83143  -4488324.54342  20372339.3034   20372332.7944
        56.0004         52.0004
  22242495.3484  -19538636.83543 -14891889.07642  22242496.8394   22242490.2284
        54.0004         45.0004
 05  6 24 17 50  0.0000000  0  9G22G21G 3G19G18G15G 9G14G 1
  21009551.0624     611845.48843    476918.09242  21009552.1954   21009543.3354
        51.0004         43.0004
  23350398.4314   22536117.05943  17559463.46042  23350398.6304   23350394.1714
        49.0004         39.0004
  22451695.5594    7969265.20543   6221697.11942  22451697.2604   22451691.9934
        53.0004         46.0004
  22451576.0724   -4344489.75743  -3371667.20242  22451577.0274   22451570.4174
        53.0004         46.0004
  22508022.4884    9012723.58243   7017028.99342  22508023.9504   22508017.6614
        54.0004         46.0004
  20484889.8684     644322.46043    509624.95042  20484889.9514   20484885.6904
        55.0004         50.0004
  23340181.7204      83657.36643     70852.82842  23340182.8224   23340179.0164
        48.0004         42.0004
  20367652.3714   -5800128.37643  -4507508.60142  20367654.4554   20367647.4924
        56.0004         52.0004
  22226507.7504  -19622650.42043 -14957354.11542  22226510.0734   22226503.3874
        55.0004         45.0004
 05  6 24 17 50 30.0000000  0  9G22G21G 3G19G18G15G 9G14G 1
  21013879.1374     634589.62543    494640.78642  21013879.2664   21013871.1594
        51.0004         43.0004
  23368722.0754   22632404.97343  17634492.86842  23368721.9054   23368719.0654
        48.0004         39.0004
  22460697.6054    8016573.78443   6258560.91942  22460698.8414   22460694.3354
        53.0004         46.0004
  22448702.5064   -4359590.35243  -3383433.91042  22448703.9374   22448697.5504
        54.0004         47.0004
  22518977.7864    9070296.04443   7061890.64542  22518979.3744   22518973.5204
        52.0004         45.0004
  20493953.2024     691949.56143    546736.98642  20493953.3034   20493948.7684
        55.0004         50.0004
  23347701.7494     123169.84843    101641.78342  23347702.6454   23347698.4314
        46.0004         39.0004
  20363064.3454   -5824236.04043  -4526293.79442  20363066.4524   20363059.7974
        55.0004         51.0004
  22210582.8164  -19706332.42543 -15022560.76842  22210584.6704   22210579.5434
        54.0004         46.0004
 05  6 24 17 51  0.0000000  0  9G22G21G 3G19G18G15G 9G14G 1
  21018235.9304     657483.80943    512480.36542  21018237.2434   21018227.6604
        51.0004         43.0004
  23387090.9024   22728936.32943  17709711.99542  23387091.6864   23387087.5154
        45.0004         39.0004
  22469778.1174    8064294.02443   6295745.48042  22469779.8154   22469774.6004
        52.0004         45.0004
  22445934.4654   -4374133.50343  -3394766.24242  22445936.1104   22445929.7764
        53.0004         47.0004
  22529950.2474    9127960.65243   7106824.06842  22529951.9344   22529946.7484
        51.0004         45.0004
  20503102.9414     740037.39943    584208.04342  20503103.6514   20503098.7054
        56.0004         50.0004
  23355333.3134     163273.98043    132891.73842  23355334.6474   23355329.6134
        47.0004         39.0004
  20358574.1754   -5847835.71043  -4544683.14442  20358575.8564   20358569.2004
        56.0004         51.0004
  22194720.4214  -19789685.08043 -15087510.81342  22194722.1374   22194718.0694
        53.0004         46.0004
 05  6 24 17 51 30.0000000  0  9G22G21G 3G19G18G15G 9G14G 1
  21022623.1134     680533.80043    530441.39642  21022624.9104   21022614.5414
        51.0004         44.0004
  23405504.9444   22825715.97243  17785124.64042  23405505.6834   23405500.8694
        44.0004         38.0004
  22478938.1324    8112430.15743   6333254.13642  22478939.8834   22478935.4344
        51.0004         45.0004
  22443274.3254   -4388113.07543  -3405659.40042  22443275.7294   22443269.5714
        53.0004         47.0004
  22540941.0804    9185723.57443   7151834.12442  22540942.3784   22540937.5924
        50.0004         44.0004
  20512342.8474     788592.14744    622042.89842  20512343.6964   20512338.1404
        57.0004         50.0004
  23363077.3404     203975.08643    164606.88642  23363077.9354   23363073.7954
        45.0004         39.0004
  20354180.3714   -5870920.86743  -4562671.57442  20354182.3204   20354175.8034
        55.0004         50.0004
  22178920.2494  -19872700.54343 -15152198.17442  22178922.9194   22178921.5224
        50.0004         45.0004
 05  6 24 17 52  0.0000000  0  9G22G21G 3G19G18G15G 9G14G 1
  21027038.3174     703737.46843    548522.18142  21027038.1394   21027030.4924
        51.0004         44.0004
  23423968.4134   22922740.29943  17860727.95542  23423966.4784   23423965.3824
        44.0004         38.0004
  22488176.6154    8160978.13443   6371083.70442  22488177.6434   22488173.4884
        51.0004         45.0004
  22440721.3854   -4401530.77843  -3416114.77942  22440723.1034   22440716.1124
        53.0004         47.0004
  22551952.5724    9243582.88743   7196919.27142  22551953.5744   22551947.9364
        52.0004         45.0004
  20521670.7554     837611.52244    660239.77542  20521672.0424   20521665.8834
        58.0004         50.0004
  23370935.9234     245269.93643    196784.66842  23370938.1624   23370932.6844
        49.0004         42.0004
  20349885.1214   -5893494.05743  -4580261.06242  20349886.8394   20349880.3964
        54.0004         50.0004
  22163186.9084  -19955379.50143 -15216623.37542  22163188.3174   22163188.1764
        48.0004         44.0004
 05  6 24 17 52 30.0000000  0  9G22G21G 3G19G18G15G 9G14G 1
  21031480.0634     727088.09743    566717.47542  21031479.9824   21031473.8424
        49.0004         43.0004
  23442479.5864   23020001.94043  17936516.13442  23442479.3964   23442472.3914
        48.0004         39.0004
  22497492.0254    8209928.90343   6409227.14542  22497493.1884   22497488.4044
        52.0004         45.0004
  22438273.5574   -4414392.81443  -3426137.14342  22438275.1604   22438268.4904
        52.0004         46.0004
  22562980.5204    9301531.80743   7242074.22842  22562981.2044   22562974.9454
        53.0004         45.0004
  20531086.1244     887088.86844    698793.50342  20531087.5124   20531080.9814
        59.0004         50.0004
  23378906.2444     287151.46543    229419.61242  23378907.8684   23378902.1084
        49.0004         42.0004
  20345686.1614   -5915561.93343  -4597456.79542  20345687.7784   20345681.0844
        55.0004         49.0004
  22147519.7094  -20037726.90243 -15280790.19042  22147520.0494   22147518.0934
        51.0004         45.0004
 05  6 24 17 53  0.0000000  0  9G22G21G 3G19G18G15G 9G14G 1
  21035952.7704     750585.32843    585027.02742  21035953.3114   21035944.1754
        50.0004         44.0004
  23461032.5874   23117498.73243  18012487.51642  23461033.3834   23461025.8734
        49.0004         40.0004
  22506883.5484    8259279.87243   6447682.40042  22506885.3274   22506880.3034
        53.0004         45.0004
  22435930.8884   -4426699.86243  -3435727.05042  22435933.0674   22435925.8204
        51.0004         46.0004
  22574023.9014    9359570.28843   7287298.96842  22574026.1824   22574019.8644
        53.0004         45.0004
  20540588.1584     937023.30944    737703.41042  20540589.6304   20540583.2504
        59.0004         50.0004
  23386986.9944     329617.73743    262510.19842  23386988.8924   23386981.5754
        48.0004         41.0004
  20341582.1574   -5937125.08143  -4614259.22842  20341584.0374   20341577.5904
        54.0004         50.0004
  22131913.9944  -20119741.77843 -15344697.85342  22131915.1344   22131909.9284
        53.0004         46.0004
 05  6 24 17 53 30.0000000  0  9G22G21G 3G19G18G15G 9G14G 1
  21040453.1474     774235.79343    603455.96442  21040453.1194   21040444.5244
        52.0004         44.0004
  23479630.2894   23215236.47343  18088646.65542  23479632.3684   23479625.8764
        50.0004         40.0004
  22516351.5484    8309035.99143   6486453.33742  22516353.5894   22516348.7754
        54.0004         45.0004
  22433695.9144   -4438444.49443  -3444878.72042  22433697.4444   22433690.5864
        50.0004         45.0004
  22585087.1764    9417705.64843   7332599.23442  22585088.5974   22585083.2694
        52.0004         45.0004
  20550179.1084     987421.70344    776974.84442  20550180.2364   20550174.0574
        59.0004         50.0004
  23395179.7894     372674.76343    296061.12142  23395181.4344   23395176.8764
        48.0004         41.0004
  20337576.5474   -5958176.53343  -4630662.94342  20337578.4304   20337571.6824
        55.0004         50.0004
  22116371.8244  -20201415.50743 -15408339.66542  22116373.7804   22116367.1094
        54.0004         46.0004
 05  6 24 17 54  0.0000000  0  9G22G21G 3G19G18G15G 9G14G 1
  21044983.4574     798039.48743    622004.27542  21044984.6404   21044974.5414
        53.0004         45.0004
  23498275.4054   23313213.14243  18164991.95042  23498277.4584   23498269.5154
        49.0004         40.0004
  22525895.9874    8359194.67243   6525537.96542  22525898.2724   22525893.8764
        53.0004         45.0004
  22431567.6874   -4449626.37943  -3453591.87442  22431569.7104   22431562.7074
        50.0004         45.0004
  22596167.5754    9475937.55143   7377974.75142  22596169.5854   22596165.0324
        51.0004         44.0004
  20559857.6954    1038283.72044    816607.54942  20559858.6924   20559853.2154
        57.0004         50.0004
  23403485.6144     416321.40943    330071.49742  23403486.3374   23403481.7714
        48.0004         40.0004
  20333667.6784   -5978716.62543  -4646668.18542  20333669.6984   20333662.9804
        55.0004         50.0004
  22100895.1604  -20282746.53243 -15471714.41942  22100897.1834   22100888.4464
        54.0004         45.0004
 05  6 24 17 54 30.0000000  0  9G22G21G 3G19G18G15G 9G14G 1
  21049541.3264     821992.13443    640668.66342  21049541.6604   21049533.4314
        54.0004         46.0004
  23516963.4424   23411424.03843  18241519.77442  23516967.0334   23516961.3224
        47.0004         40.0004
  22535516.8424    8409749.44043   6564931.23642  22535517.7554   22535513.4004
        53.0004         45.0004
  22429546.9104   -4460249.91443  -3461869.96242  22429548.9164   22429541.2754
        50.0004         46.0004
  22607266.4394    9534261.70243   7423422.15142  22607267.4534   22607262.4364
        51.0004         44.0004
  20569623.5414    1089604.70043    856597.90442  20569624.4744   20569619.7594
        56.0004         50.0004
  23411901.8904     460552.40243    364537.17442  23411905.5794   23411897.9404
        47.0004         40.0004
  20329855.3764   -5998749.79743  -4662278.44342  20329857.2914   20329850.8334
        55.0004         50.0004
  22085481.9444  -20363737.67543 -15534824.31442  22085484.4404   22085478.2024
        53.0004         45.0004
 05  6 24 17 55  0.0000000  0  9G22G21G 3G19G18G15G 9G14G 1
  21054127.0024     846092.91943    659448.47542  21054127.5024   21054119.8724
        54.0004         46.0004
  23535695.6934   23509867.37443  18318228.73042  23535696.4304   23535693.3844
        46.0004         39.0004
  22545212.0804    8460697.86443   6604631.28742  22545213.2254   22545209.7334
        52.0004         45.0004
  22427632.4564   -4470314.91243  -3469712.82142  22427632.4194   22427627.0694
        51.0004         46.0004
  22618383.4244    9592677.87343   7468941.23542  22618384.9744   22618378.8504
        52.0004         43.0004
  20579476.7964    1141384.16843    896945.54942  20579477.0984   20579473.4584
        55.0004         50.0004
  23420430.1944     505366.22743    399457.04742  23420432.0254   23420426.0144
        48.0004         40.0004
  20326139.2154   -6018276.40943  -4677493.98142  20326141.5034   20326135.3124
        55.0004         51.0004
  22070133.8914  -20444387.54443 -15597668.32042  22070135.5984   22070131.3574
        52.0004         44.0004
 05  6 24 17 55 30.0000000  0  9G22G21G 3G19G18G15G 9G14G 1
  21058741.6904     870345.50343    678346.59242  21058742.2944   21058735.2124
        53.0004         46.0004
  23554471.0894   23608545.20943  18395120.44642  23554471.2024   23554472.0434
        43.0004         39.0004
  22554982.2284    8512041.27743   6644639.10542  22554984.9484   22554979.2644
        52.0004         44.0004
  22425824.0604   -4479818.16143  -3477117.93942  22425824.4664   22425818.5864
        51.0004         46.0004
  22629517.4304    9651190.14443   7514535.19642  22629519.1694   22629511.7284
        52.0004         43.0004
  20589418.3204    1193625.42943    937653.05542  20589418.4284   20589415.1324
        55.0004         50.0004
  23429070.3984     550765.48543    434833.08542  23429072.8444   23429066.2844
        49.0004         41.0004
  20322521.3064   -6037293.16643  -4692312.22442  20322523.2464   20322516.5114
        56.0004         51.0004
  22054852.9314  -20524691.08443 -15660242.49042  22054855.5844   22054850.4354
        53.0004         45.0004
 05  6 24 17 56  0.0000000  0  9G22G21G 3G19G18G15G 9G14G 1
  21063384.9844     894744.47043    697358.76942  21063385.5804   21063378.1834
        54.0004         46.0004
  23573295.9014   23707450.87243  18472189.70442  23573295.5914   23573292.1184
        45.0004         39.0004
  22564826.0574    8563771.96543   6684948.69842  22564828.9644   22564823.4784
        51.0004         44.0004
  22424121.0864   -4488764.48643  -3484089.11042  22424122.5204   22424116.1834
        51.0004         46.0004
  22640669.9174    9709792.98143   7560199.67942  22640671.6814   22640665.8014
        52.0004         43.0004
  20599446.2924    1246322.72343    978715.88442  20599446.9724   20599442.9474
        56.0004         50.0004
  23437819.3554     596743.67143    470660.24142  23437821.7044   23437815.1164
        49.0004         42.0004
  20318998.6094   -6055805.71943  -4706737.58142  20319000.6054   20318993.8044
        56.0004         51.0004
  22039637.7534  -20604652.17143 -15722549.80342  22039639.6454   22039634.2514
        54.0004         46.0004
 05  6 24 17 56 30.0000000  0  9G22G21G 3G19G18G15G 9G14G 1
  21068056.2774     919291.62743    716486.41642  21068056.9954   21068049.4404
        53.0004         46.0004
  23592160.4174   23806584.69843  18549436.72542  23592163.5354   23592157.6484
        48.0004         40.0004
  22574742.3014    8615889.44243   6725559.69942  22574744.9124   22574740.8964
        50.0004         44.0004
  22422525.4864   -4497152.22643  -3490625.01642  22422526.6414   22422520.3544
        51.0004         46.0004
  22651838.6474    9768488.15243   7605936.13942  22651839.7124   22651833.5984
        51.0004         43.0004
  20609561.3114    1299477.71344   1020135.33842  20609562.0794   20609557.4304
        57.0004         50.0004
  23446680.0014     643301.39143    506939.00842  23446681.6444   23446675.8644
        49.0004         41.0004
  20315571.6544   -6073812.60343  -4720768.90442  20315573.9664   20315567.2204
        56.0004         52.0004
  22024488.1144  -20684267.53643 -15784587.70542  22024489.9304   22024484.2524
        55.0004         47.0004
 05  6 24 17 57  0.0000000  0  9G22G21G 3G19G18G15G 9G14G 1
  21072756.4314     943989.80143    735731.75742  21072756.9874   21072749.2394
        54.0004         47.0004
  23611068.9934   23905947.74743  18626862.33842  23611071.4664   23611066.4424
        49.0004         41.0004
  22584734.3094    8668394.43843   6766472.65442  22584736.4374   22584731.2074
        51.0004         44.0004
  22421035.9124   -4504978.56843  -3496723.46242  22421036.8784   22421030.0884
        51.0004         46.0004
  22663026.2184    9827278.97343   7651747.14742  22663028.3434   22663021.6654
        51.0004         44.0004
  20619763.6474    1353092.81144   1061913.31042  20619764.8944   20619759.8064
        57.0004         50.0004
  23455650.1624     690440.19043    543670.52742  23455651.6754   23455645.5964
        50.0004         42.0004
  20312242.2004   -6091311.13843  -4734404.12042  20312244.0804   20312237.4184
        56.0004         52.0004
  22009403.1784  -20763532.95743 -15846352.92542  22009404.9294   22009401.0604
        54.0004         47.0004
 05  6 24 17 57 30.0000000  0  9G22G21G 3G19G18G15G 9G14G 1
  21077484.4464     968835.85943    755092.32642  21077484.5664   21077477.3094
        54.0004         47.0004
  23630020.2424   24005536.61843  18704463.90542  23630023.9484   23630017.7994
        50.0004         42.0004
  22594798.7854    8721281.57043   6807683.36042  22594799.9344   22594796.3954
        52.0004         45.0004
  22419653.0724   -4512246.13043  -3502386.51842  22419654.5994   22419648.1944
        52.0004         46.0004
  22674231.6554    9886162.20643   7697630.15542  22674233.8304   22674227.6814
        51.0004         44.0004
  20630053.4844    1407164.89744   1104047.35742  20630054.6934   20630048.6994
        57.0004         49.0004
  23464729.8884     738155.91443    580851.63042  23464731.1724   23464725.9704
        50.0004         42.0004
  20309008.3444   -6108304.29643  -4747645.53642  20309010.6794   20309003.4984
        56.0004         51.0004
  21994385.5654  -20842449.76443 -15907846.49942  21994387.7284   21994382.5194
        53.0004         46.0004
 05  6 24 17 58  0.0000000  0  9G22G21G 3G19G18G15G 9G14G 1
  21082239.9744     993828.86943    774567.40942  21082240.2174   21082233.5894
        54.0004         47.0004
  23649014.7574   24105348.63843  18782239.37442  23649017.4994   23649009.9724
        51.0004         42.0004
  22604935.6404    8774547.70143   6849189.37342  22604937.0894   22604932.4664
        53.0004         45.0004
  22418375.8184   -4518955.99643  -3507615.01242  22418377.4984   22418370.5934
        52.0004         46.0004
  22685454.4054    9945137.52143   7743584.92042  22685456.6944   22685450.0144
        50.0004         44.0004
  20640429.4854    1461692.67044   1146536.47742  20640431.0674   20640424.4474
        57.0004         48.0004
  23473919.8014     786446.42943    618480.61942  23473921.7704   23473914.8744
        51.0004         43.0004
  20305870.0434   -6124793.61943  -4760494.35442  20305872.2524   20305865.7484
        55.0004         51.0004
  21979434.3194  -20921017.31743 -15969067.93242  21979436.8594   21979431.6024
        52.0004         45.0004
 05  6 24 17 58 30.0000000  0  9G22G21G 3G19G18G15G 9G14G 1
  21087024.3004    1018971.25643    794158.86542  21087025.2534   21087018.7584
        54.0004         47.0004
  23668051.6774   24205384.51743  18860189.24142  23668053.6404   23668046.2244
        49.0004         42.0004
  22615144.5244    8828192.78543   6890990.68342  22615144.8934   22615141.3644
        52.0004         45.0004
  22417205.9614   -4525105.88843  -3512407.16642  22417207.8294   22417200.9354
        53.0004         46.0004
  22696695.8414   10004207.14143   7789613.16842  22696696.2264   22696690.8664
        50.0004         43.0004
  20650893.0944    1516678.06544   1189382.19042  20650894.2374   20650888.0154
        57.0004         48.0004
  23483218.2864     835313.01743    656558.48142  23483221.6324   23483214.1244
        51.0004         43.0004
  20302828.5364   -6140776.81743  -4772948.79042  20302830.4184   20302824.3234
        54.0004         51.0004
  21964550.6494  -20999231.95943 -16030014.35842  21964552.6324   21964547.1624
        52.0004         45.0004
 05  6 24 17 59  0.0000000  0  9G22G21G 3G19G18G15G 9G14G 1
  21091837.0904    1044260.91843    813865.07842  21091837.9274   21091830.9914
        55.0004         48.0004
  23687129.9484   24305640.86043  18938310.90942  23687131.2584   23687124.2324
        48.0004         40.0004
  22625423.6514    8882212.48843   6933083.93642  22625424.8544   22625420.8064
        52.0004         45.0004
  22416141.5184   -4530697.75543  -3516764.49042  22416142.7154   22416136.8854
        52.0004         46.0004
  22707952.1064   10063369.42443   7835713.60542  22707953.5434   22707947.5964
        48.0004         42.0004
  20661443.6994    1572118.64744   1232582.60342  20661444.6084   20661438.6284
        57.0004         49.0004
  23492625.5634     884752.35743    695082.64042  23492627.9224   23492621.5664
        50.0004         43.0004
  20299883.3484   -6156256.22143  -4785010.67042  20299885.0354   20299878.4744
        54.0004         51.0004
  21949732.9764  -21077094.18843 -16090686.20542  21949734.4354   21949731.8524
        52.0004         45.0004
 05  6 24 17 59 30.0000000  0  9G22G21G 3G19G18G15G 9G14G 1
  21096678.1724    1069700.30143    833687.94842  21096678.7284   21096672.0244
        55.0004         47.0004
  23706246.7524   24406119.16143  19016605.58442  23706247.2364   23706245.0704
        43.0004         39.0004
  22635773.7364    8936606.93743   6975469.19642  22635775.9124   22635772.5844
        51.0004         45.0004
  22415184.1814   -4535729.39743  -3520685.26542  22415185.0974   22415179.7524
        52.0004         46.0004
  22719228.2744   10122626.58843   7881887.96642  22719229.2824   22719224.9594
        48.0004         42.0004
  20672080.3904    1628016.26043   1276139.14742  20672081.6214   20672076.1834
        56.0004         49.0004
  23502142.2194     934765.34643    734053.78442  23502144.0954   23502139.6594
        49.0004         42.0004
  20297033.7384   -6171229.83343  -4796678.42042  20297035.6514   20297029.4544
        54.0004         51.0004
  21934984.4814  -21154600.25343 -16151080.51042  21934986.3214   21934983.4034
        53.0004         46.0004
 05  6 24 18  0  0.0000000  0  9G22G21G 3G19G18G15G 9G14G 1
  21101546.8544    1095286.06043    853624.88242  21101547.1974   21101539.9564
        55.0004         47.0004
  23725408.4494   24506814.33043  19095069.24842  23725405.7294   23725408.0614
        39.0004         37.0004
  22646195.8844    8991370.48243   7018142.06042  22646197.7594   22646193.4684
        52.0004         45.0004
  22414332.7844   -4540204.29643  -3524172.20442  22414334.2744   22414327.9954
        52.0004         46.0004
  22730521.9524   10181975.67543   7928133.98042  22730523.4604   22730518.4824
        48.0004         43.0004
  20682802.7714    1684367.39543   1320049.10642  20682804.2464   20682800.1514
        56.0004         49.0004
  23511766.7564     985347.29843    773468.27542  23511768.0454   23511765.8554
        48.0004         42.0004
  20294280.0454   -6185701.44143  -4807955.01142  20294281.9184   20294275.5074
        54.0004         50.0004
  21920304.0634  -21231752.05343 -16211198.76342  21920305.6684   21920301.1054
        54.0004         47.0004
 05  6 24 18  0 30.0000000  0  9G22G21G 3G19G18G15G 9G14G 1
  21106442.9464    1121015.37343    873673.67642  21106443.0834   21106434.8154
        55.0004         47.0004
  23744614.8274   24607722.16643  19173698.64442  23744610.5994   23744609.3484
        41.0004         37.0004
  22656686.4124    9046498.29943   7061098.77442  22656688.1754   22656683.9144
        52.0004         45.0004
  22413586.8234   -4544124.89543  -3527227.24142  22413588.0004   22413581.2494
        51.0004         45.0004
  22741834.0754   10241414.43543   7974449.84742  22741836.4624   22741830.0174
        50.0004         43.0004
  20693612.3484    1741169.12643   1364310.18842  20693612.9494   20693608.9174
        56.0004         50.0004
  23521500.5244    1036494.51743    813323.21642  23521502.2024   23521499.7124
        48.0004         42.0004
  20291621.3844   -6199673.97743  -4818842.70442  20291623.3944   20291616.2954
        54.0004         50.0004
  21905689.5584  -21308550.60043 -16271041.75042  21905691.3944   21905686.9534
        54.0004         47.0004
 05  6 24 18  1  0.0000000  0  9G22G21G 3G19G18G15G 9G14G 1
  21111368.1684    1146894.88143    893839.51142  21111368.4524   21111359.5534
        56.0004         47.0004
  23763859.6364   24708848.18543  19252498.04142  23763858.4084   23763853.7854
        44.0004         38.0004
  22667246.4054    9101994.27543   7104342.35742  22667247.8394   22667244.0584
        51.0004         44.0004
  22412946.6354   -4547485.14243  -3529845.63142  22412948.2574   22412941.4224
        51.0004         45.0004
  22753163.0344   10300949.14743   8020840.49742  22753165.4274   22753159.0894
        50.0004         44.0004
  20704508.4804    1798427.17244   1408926.83742  20704509.4264   20704505.0384
        57.0004         50.0004
  23531342.8324    1088211.84543    853622.40242  23531344.3044   23531339.6314
        48.0004         42.0004
  20289058.4114   -6213141.43143  -4829336.81742  20289060.4754   20289053.7944
        55.0004         50.0004
  21891143.6624  -21384988.16743 -16330603.43942  21891145.5754   21891141.5044
        54.0004         47.0004
 05  6 24 18  1 30.0000000  0  9G22G21G 3G19G18G15G 9G14G 1
  21116318.8194    1172918.73643    914117.82642  21116320.4774   21116312.5004
        55.0004         47.0004
  23783141.8934   24810185.05243  19331461.67842  23783142.8884   23783136.0214
        45.0004         38.0004
  22677876.4314    9157850.24843   7147866.45242  22677877.8684   22677874.3424
        52.0004         44.0004
  22412413.2204   -4550290.89043  -3532031.94642  22412414.0824   22412406.8614
        51.0004         45.0004
  22764509.7024   10360574.26843   8067301.58442  22764511.5224   22764503.8814
        51.0004         44.0004
  20715489.7394    1856135.35544   1453894.22342  20715491.2154   20715486.4034
        57.0004         50.0004
  23541290.7934    1140491.99243    894360.15342  23541292.2764   23541288.0954
        47.0004         41.0004
  20286590.2704   -6226110.13243  -4839442.29942  20286592.4314   20286586.2804
        55.0004         50.0004
  21876666.2644  -21461069.25743 -16389887.35242  21876668.3354   21876663.7944
        54.0004         46.0004
 05  6 24 18  2  0.0000000  0  9G22G21G 3G19G18G15G 9G14G 1
  21121300.2474    1199090.88343    934511.70042  21121300.7584   21121292.3294
        55.0004         47.0004
  23802465.5024   24911734.50643  19410590.95842  23802467.4864   23802460.7874
        45.0004         38.0004
  22688573.4644    9214067.87943   7191672.35742  22688575.7804   22688570.0084
        51.0004         43.0004
  22411985.2094   -4552538.49543  -3533783.38342  22411987.1974   22411978.9214
        50.0004         44.0004
  22775873.1444   10420294.01043   8113836.42342  22775874.9834   22775869.4934
        51.0004         44.0004
  20726557.6574    1914297.05444   1499214.98842  20726559.1504   20726554.1754
        57.0004         50.0004
  23551347.9224    1193337.59243    935538.54142  23551348.8004   23551343.7214
        47.0004         41.0004
  20284217.9194   -6238576.33143  -4849156.20742  20284219.8664   20284213.6854
        55.0004         50.0004
  21862256.9504  -21536788.57343 -16448889.36542  21862259.3074   21862253.3804
        53.0004         45.0004
 05  6 24 18  2 30.0000000  0  9G22G21G 3G19G18G15G 9G14G 1
  21126308.2874    1225409.43943    955019.66742  21126308.7384   21126301.4954
        55.0004         48.0004
  23821829.5274   25013493.73443  19489883.69742  23821830.6034   23821824.9334
        45.0004         37.0004
  22699340.6544    9270642.89143   7235756.72142  22699342.1804   22699334.9874
        52.0004         43.0004
  22411663.4704   -4554229.80143  -3535101.30742  22411664.8984   22411658.4784
        51.0004         44.0004
  22787255.6974   10480106.86243   8160443.78342  22787257.9364   22787250.0384
        51.0004         44.0004
  20737712.0264    1972910.14544   1544887.48742  20737713.2554   20737707.6954
        57.0004         50.0004
  23561510.3234    1246745.53343    977155.07142  23561511.3634   23561506.3464
        46.0004         41.0004
  20281940.7664   -6250542.26143  -4858480.29842  20281942.6144   20281936.4464
        55.0004         50.0004
  21847916.1394  -21612146.43443 -16507609.70942  21847918.6144   21847913.2694
        53.0004         45.0004
 05  6 24 18  3  0.0000000  0  9G22G21G 3G19G18G15G 9G14G 1
  21131344.6514    1251875.41843    975642.49642  21131345.4184   21131337.9244
        55.0004         48.0004
  23841232.2564   25115462.53543  19569339.74142  23841235.8524   23841229.1864
        45.0004         37.0004
  22710172.7234    9327573.73843   7280118.36642  22710175.6464   22710168.7964
        51.0004         43.0004
  22411447.5644   -4555364.34843  -3535985.39142  22411449.8754   22411442.7794
        52.0004         45.0004
  22798655.3204   10540013.70043   8207124.37042  22798656.8194   22798651.3574
        50.0004         43.0004
  20748951.6954    2031974.92043   1590911.94642  20748953.0234   20748947.3324
        56.0004         49.0004
  23571779.8944    1300715.15243   1019209.30842  23571781.9524   23571777.2654
        46.0004         40.0004
  20279759.0324   -6262007.64543  -4867414.34442  20279761.0194   20279754.6774
        56.0004         50.0004
  21833645.6624  -21687140.62143 -16566046.69542  21833647.2134   21833643.5334
        54.0004         46.0004
 05  6 24 18  3 30.0000000  0  9G22G21G 3G19G18G15G 9G14G 1
  21136409.3864    1278488.60743    996380.04342  21136409.8684   21136402.1784
        55.0004         48.0004
  23860676.4124   25217640.01243  19648958.37642  23860677.9324   23860670.3174
        46.0004         36.0004
  22721073.5604    9384857.61843   7324755.12042  22721074.7884   22721070.1284
        51.0004         43.0004
  22411338.0164   -4555942.61543  -3536436.00142  22411339.0634   22411332.0094
        51.0004         45.0004
  22810073.2824   10600014.34543   8253878.09042  22810073.2984   22810069.4124
        49.0004         43.0004
  20760277.0584    2091490.60143   1637287.76942  20760277.3964   20760272.5064
        55.0004         48.0004
  23582156.9094    1355244.57643   1061699.74442  23582158.6904   23582155.4434
        45.0004         41.0004
  20277672.8364   -6272973.26243  -4875958.96142  20277674.5384   20277668.2014
        56.0004         51.0004
  21819444.4954  -21761770.18743 -16624199.56542  21819446.1644   21819442.3104
        54.0004         47.0004
 05  6 24 18  4  0.0000000  0  9G22G21G 3G19G18G15G 9G14G 1
  21141501.6694    1305244.74543   1017228.99642  21141502.1064   21141493.7944
        56.0004         49.0004
  23880159.8234   25320018.61843  19728733.69742  23880162.3254   23880157.2214
        47.0004         37.0004
  22732040.0864    9442487.89643   7369661.78442  22732042.1454   22732037.5064
        52.0004         44.0004
  22411332.9814   -4555969.17743  -3536456.71042  22411334.2884   22411327.1544
        52.0004         46.0004
  22821507.5894   10660104.65543   8300701.72442  22821508.2844   22821505.3764
        49.0004         43.0004
  20771685.6304    2151452.27643   1684011.16342  20771685.8434   20771682.7024
        53.0004         47.0004
  23592639.3534    1410328.05043   1104621.90142  23592641.0364   23592636.5844
        44.0004         40.0004
  20275680.4114   -6283443.85643  -4884117.85142  20275682.3894   20275675.4634
        56.0004         51.0004
  21805311.5954  -21836038.15143 -16682070.68242  21805313.1774   21805309.7774
        54.0004         47.0004
 05  6 24 18  4 30.0000000  0  8G22G 3G19G18G15G 9G14G 1
  21146620.5704    1332146.34743   1038191.28042  21146621.2564   21146613.0684
        56.0004         49.0004
  22743074.1204    9500464.81143   7414838.54542  22743075.2964   22743070.6794
        52.0004         45.0004
  22411433.3084   -4555441.59343  -3536045.63342  22411435.1734   22411427.8294
        53.0004         46.0004
  22832960.3574   10720287.58543   8347597.51942  22832960.9094   22832956.6814
        50.0004         43.0004
  20783182.5614    2211862.09743   1731083.73442  20783182.1514   20783178.3794
        55.0004         47.0004
  23603227.3184    1465966.45543   1147976.46442  23603229.0284   23603224.3784
        45.0004         40.0004
  20273782.0724   -6293417.28443  -4891889.33542  20273784.1964   20273777.1114
        55.0004         50.0004
  21791248.3394  -21909940.52743 -16739656.93542  21791250.1884   21791246.1704
        53.0004         47.0004
 05  6 24 18  5  0.0000000  0  8G22G 3G19G18G15G 9G14G 1
  21151767.1844    1359193.64443   1059267.10342  21151767.8784   21151760.0314
        56.0004         49.0004
  22754172.0074    9558785.89043   7460283.50542  22754173.1714   22754169.7334
        51.0004         45.0004
  22411639.0054   -4554360.37943  -3535203.13142  22411640.5384   22411634.0164
        52.0004         46.0004
  22844430.9604   10780563.09143   8394565.44142  22844434.0964   22844427.1084
        51.0004         44.0004
  20794763.7764    2272719.40343   1778504.96442  20794764.3664   20794758.7994
        56.0004         48.0004
  23613920.7914    1522158.41343   1191762.38242  23613922.6744   23613917.8274
        46.0004         40.0004
  20271978.6084   -6302894.46543  -4899274.13842  20271980.4984   20271973.8674
        55.0004         50.0004
  21777253.8964  -21983476.07743 -16796957.36942  21777255.9724   21777252.6974
        52.0004         47.0004
 05  6 24 18  5 30.0000000  0  8G22G 3G19G18G15G 9G14G 1
  21156942.0774    1386388.11243   1080457.57942  21156942.7954   21156935.3144
        56.0004         49.0004
  22765334.3264    9617450.25343   7505995.96142  22765336.1334   22765332.3444
        51.0004         44.0004
  22411950.7264   -4552724.41243  -3533928.37542  22411951.9134   22411945.1344
        52.0004         46.0004
  22855918.5064   10840933.23543   8441607.08642  22855921.0894   22855912.7564
        52.0004         44.0004
  20806429.2754    2334025.16644   1826275.62142  20806430.8904   20806424.6864
        57.0004         49.0004
  23624719.1674    1578903.90943   1235979.64242  23624721.2094   23624717.3174
        48.0004         40.0004
  20270270.0204   -6311874.20643  -4906271.33242  20270272.1554   20270265.5304
        55.0004         51.0004
  21763330.9994  -22056641.91343 -16853969.72542  21763332.7674   21763329.8244
        52.0004         47.0004
 05  6 24 18  6  0.0000000  0  8G22G 3G19G18G15G 9G14G 1
  21162144.7444    1413727.36044   1101760.87042  21162145.2154   21162137.5484
        57.0004         49.0004
  22776562.0884    9676452.70743   7551971.87242  22776563.7664   22776561.5534
        51.0004         44.0004
  22412367.3124   -4550536.65943  -3532223.65942  22412368.3474   22412360.9114
        52.0004         46.0004
  22867424.6254   10901395.73243   8488720.67642  22867426.3134   22867419.1274
        52.0004         44.0004
  20818180.6064    2395776.16744   1874393.22242  20818181.7564   20818175.3424
        57.0004         49.0004
  23635622.4504    1636198.75443   1280624.97042  23635624.4204   23635618.7614
        48.0004         40.0004
  20268655.1904   -6320359.44043  -4912883.20442  20268657.1274   20268650.7814
        55.0004         51.0004
  21749479.4204  -22129439.48043 -16910695.09842  21749481.1024   21749477.2084
        54.0004         47.0004
 05  6 24 18  6 30.0000000  0  9G22G 3G19G18G25G15G 9G14G 1
  21167375.3114    1441214.19743   1123179.17242  21167375.8614   21167367.7464
        56.0004         49.0004
  22787855.1764    9735793.59843   7598211.50142  22787856.2594   22787853.5444
        51.0004         44.0004
  22412888.8284   -4547794.80943  -3530087.16342  22412889.9534   22412883.6094
        52.0004         46.0004
  22878948.7684   10961953.32043   8535908.35642  22878949.5804   22878943.0124
        52.0004         44.0004
  23924156.0464   -8382098.62753  -6519211.26252  23924157.1024   23924156.2524
        42.0004         38.0004
  20830016.1764    2457974.51144   1922859.42042  20830017.4794   20830011.6254
        57.0004         49.0004
  23646628.5034    1694043.96643   1325699.15942  23646630.7494   23646625.7404
        47.0004         40.0004
  20267134.7024   -6328348.08543  -4919108.12942  20267136.7104   20267130.7034
        54.0004         51.0004
  21735697.9814  -22201864.73443 -16967130.32742  21735699.3894   21735694.3134
        56.0004         47.0004
 05  6 24 18  7  0.0000000  0  9G22G 3G19G18G25G15G 9G14G 1
  21172632.9054    1468845.33943   1144709.92342  21172633.7724   21172625.4434
        56.0004         49.0004
  22799211.2054    9795467.49643   7644710.60942  22799212.7604   22799208.8254
        52.0004         45.0004
  22413515.1744   -4544502.13943  -3527521.46042  22413517.3514   22413509.7414
        52.0004         46.0004
  22890489.3674   11022603.28043   8583168.01642  22890490.3004   22890484.5414
        52.0004         44.0004
  23904745.4774   -8484106.24843  -6598697.62442  23904747.1684   23904748.1154
        42.0004         38.0004
  20841937.0714    2520616.68443   1971671.46842  20841937.4814   20841932.6964
        56.0004         49.0004
  23657738.9404    1752435.22243   1371198.82242  23657742.2314   23657736.3984
        45.0004         39.0004
  20265709.1634   -6335843.94143  -4924949.05842  20265710.5964   20265704.1344
        55.0004         51.0004
  21721986.2314  -22273919.42643 -17023276.79542  21721987.9964   21721982.3844
        56.0004         47.0004
 05  6 24 18  7 30.0000000  0  9G22G 3G19G18G25G15G 9G14G 1
  21177918.6764    1496621.53243   1166353.69542  21177919.2444   21177911.8754
        56.0004         49.0004
  22810628.8584    9855472.20143   7691467.47642  22810630.3074   22810627.1664
        52.0004         44.0004
  22414247.3444   -4540658.84343  -3524526.70942  22414249.4774   22414240.8844
        53.0004         46.0004
  22902048.2774   11083346.23543   8630500.14742  22902049.8214   22902042.8694
        52.0004         44.0004
  23885339.4934   -8586090.53743  -6678165.77642  23885341.0264   23885340.4074
        44.0004         39.0004
  20853941.7064    2583702.30343   2020829.09342  20853942.0384   20853937.6614
        55.0004         48.0004
  23668954.9344    1811370.87943   1417122.67142  23668956.1574   23668952.2254
        46.0004         39.0004
  20264376.3854   -6342847.11043  -4930406.07742  20264378.2084   20264371.4904
        55.0004         51.0004
  21708345.0894  -22345602.12043 -17079133.37142  21708346.6434   21708340.5454
        56.0004         47.0004
 05  6 24 18  8  0.0000000  0  9G22G 3G19G18G25G15G 9G14G 1
  21183231.7824    1524539.57443   1188108.00242  21183232.2944   21183224.4484
        56.0004         49.0004
  22822110.2394    9915802.17943   7738477.78442  22822111.6094   22822106.6864
        52.0004         44.0004
  22415082.3944   -4536268.31443  -3521105.54942  22415083.9324   22415076.3584
        52.0004         46.0004
  22913623.3564   11144178.87243   8677902.17442  22913624.7354   22913620.3714
        51.0004         43.0004
  23865938.8494   -8688052.01443  -6757616.16042  23865939.8054   23865936.1744
        46.0004         39.0004
  20866030.3854    2647227.45143   2070329.21542  20866030.2414   20866025.9464
        54.0004         48.0004
  23680273.1364    1870846.19943   1463467.06942  23680275.3814   23680270.4054
        47.0004         39.0004
  20263136.7064   -6349361.25143  -4935482.03242  20263138.5324   20263131.9564
        54.0004         51.0004
  21694774.7584  -22416914.51343 -17134701.42042  21694776.0634   21694769.8424
        55.0004         46.0004
 05  6 24 18  8 30.0000000  0  9G22G 3G19G18G25G15G 9G14G 1
  21188572.7264    1552603.75044   1209976.19442  21188573.6914   21188564.7334
        57.0004         49.0004
  22833653.2804    9976459.08743   7785742.83842  22833655.5644   22833648.8644
        52.0004         44.0004
  22416022.2494   -4531327.20943  -3517255.34942  22416023.9094   22416017.4974
        52.0004         46.0004
  22925217.6294   11205105.74443   8725377.60542  22925219.1274   22925213.7134
        51.0004         43.0004
  23846541.9834   -8789983.62343  -6837043.25442  23846543.7554   23846538.9494
        46.0004         40.0004
  20878202.6834    2711195.54743   2120174.48242  20878203.6774   20878198.1444
        54.0004         48.0004
  23691694.3374    1930863.48743   1510233.75842  23691696.7784   23691690.6204
        47.0004         39.0004
  20261990.6174   -6355383.55943  -4940174.75142  20261992.7754   20261985.7744
        54.0004         51.0004
  21681274.7964  -22487851.47043 -17189976.95042  21681276.3174   21681272.0624
        52.0004         46.0004
 05  6 24 18  9  0.0000000  0  9G22G 3G19G18G25G15G 9G14G 1
  21193940.7644    1580814.97544   1231958.97842  21193941.5854   21193933.6184
        57.0004         50.0004
  22845257.2824   10037441.14343   7833261.26342  22845258.8674   22845253.9994
        51.0004         43.0004
  22417067.6084   -4525835.20243  -3512975.87842  22417068.8504   22417062.8754
        51.0004         46.0004
  22936830.9774   11266128.08843   8772927.42842  22936832.7074   22936828.1164
        52.0004         44.0004
  23827150.2794   -8891881.15543  -6916443.81642  23827152.7604   23827147.7294
        46.0004         40.0004
  20890459.9224    2775606.77443   2170364.99942  20890460.7764   20890454.6284
        55.0004         47.0004
  23703218.3974    1991422.01843   1557422.21942  23703220.2584   23703216.9764
        47.0004         40.0004
  20260938.3954   -6360913.45043  -4944483.76042  20260940.3044   20260933.4864
        54.0004         51.0004
  21667846.3594  -22558410.75943 -17244958.23542  21667847.8514   21667845.0614
        51.0004         45.0004
 05  6 24 18  9 30.0000000  0  9G22G 3G19G18G25G15G 9G14G 1
  21199336.5084    1609169.89144   1254053.71942  21199337.2374   21199329.2404
        57.0004         50.0004
  22856919.9654   10098742.04243   7881028.14842  22856920.5344   22856917.7634
        48.0004         42.0004
  22418216.6294   -4519796.60043  -3508270.49442  22418218.1224   22418211.5474
        51.0004         46.0004
  22948460.9894   11327242.55943   8820549.04942  22948462.1604   22948457.4214
        52.0004         44.0004
  23807765.7704   -8993745.21543  -6995818.26542  23807767.8944   23807761.8234
        45.0004         39.0004
  20902800.0364    2840456.77343   2220897.38142  20902801.0914   20902795.1454
        56.0004         47.0004
  23714844.5094    2052516.39743   1605028.21242  23714846.8514   23714842.6184
        48.0004         40.0004
  20259978.1944   -6365954.88243  -4948412.16342  20259980.5544   20259973.9814
        54.0004         50.0004
  21654492.5944  -22628594.98543 -17299647.27042  21654493.8984   21654490.1324
        52.0004         46.0004
 05  6 24 18 10  0.0000000  0  9G22G 3G19G18G25G15G 9G14G 1
  21204759.3724    1637669.04744   1276260.84842  21204760.1804   21204752.2254
        57.0004         50.0004
  22868645.5034   10160360.04143   7929042.15742  22868647.0024   22868644.2574
        48.0004         41.0004
  22419469.6314   -4513210.95343  -3503138.83342  22419470.9744   22419464.8274
        51.0004         46.0004
  22960108.3014   11388450.01743   8868243.14242  22960110.3744   22960104.8954
        51.0004         44.0004
  23788387.8854   -9095572.34843  -7075163.97242  23788387.1454   23788384.1404
        43.0004         38.0004
  20915224.6304    2905745.42643   2271771.58642  20915225.0014   20915220.4974
        56.0004         48.0004
  23726571.7604    2114145.41143   1653050.82142  23726572.8264   23726569.5404
        47.0004         40.0004
  20259112.8394   -6370508.15743  -4951960.18142  20259114.4844   20259107.6664
        54.0004         51.0004
  21641209.8754  -22698402.44543 -17354042.68442  21641211.2004   21641206.2864
        54.0004         47.0004
 05  6 24 18 10 30.0000000  0  9G22G 3G19G18G25G15G 9G14G 1
  21210211.0074    1666316.77144   1298583.73242  21210211.6174   21210203.1504
        57.0004         49.0004
  22880433.5454   10222296.66243   7977304.40242  22880434.2824   22880430.7424
        49.0004         42.0004
  22420827.7264   -4506075.29843  -3497578.59742  22420828.3164   22420823.1254
        52.0004         46.0004
  22971774.0134   11449754.47443   8916012.82042  22971775.8034   22971769.5444
        51.0004         43.0004
  23769016.2284   -9197355.48243  -7154475.41142  23769018.1234   23769018.0244
        41.0004         38.0004
  20927732.2654    2971476.11743   2322990.25242  20927733.2024   20927729.5854
        56.0004         48.0004
  23738401.5254    2176311.32143   1701491.77742  23738404.0864   23738400.2494
        47.0004         39.0004
  20258339.3454   -6374570.52443  -4955125.65842  20258341.5754   20258334.6484
        55.0004         51.0004
  21627998.9224  -22767827.94143 -17408140.44242  21628000.1184   21627994.6184
        56.0004         48.0004
 05  6 24 18 11  0.0000000  0  8G22G 3G19G18G25G15G14G 1
  21215689.1444    1695105.23343   1321016.28042  21215689.3244   21215681.1934
        56.0004         49.0004
  22892278.6164   10284541.80843   8025807.04142  22892281.2124   22892277.5314
        51.0004         44.0004
  22422288.7014   -4498397.75643  -3491596.12042  22422290.3784   22422283.3734
        52.0004         46.0004
  22983456.7204   11511148.53043   8963852.32242  22983457.1454   22983452.1364
        50.0004         43.0004
  23749657.8754   -9299099.46043  -7233756.34942  23749659.1804   23749657.6034
        43.0004         38.0004
  20940323.5714    3037640.57443   2374546.92442  20940323.8624   20940320.5644
        55.0004         48.0004
  20257658.2774   -6378149.86543  -4957914.75342  20257660.5894   20257653.8054
        55.0004         51.0004
  21614859.1084  -22836877.96744 -17461945.60242  21614860.2434   21614854.7904
        57.0004         48.0004
 05  6 24 18 11 30.0000000  0  8G22G 3G19G18G25G15G14G 1
  21221193.8644    1724037.37643   1343560.79042  21221194.5874   21221186.9224
        55.0004         48.0004
  22904182.5914   10347095.53243   8074550.13442  22904184.1064   22904181.2604
        52.0004         45.0004
  22423853.5594   -4490176.25143  -3485189.78142  22423855.4774   22423847.6694
        52.0004         45.0004
  22995157.6344   11572635.00843   9011763.83042  22995158.4714   22995151.2004
        50.0004         42.0004
  23730306.1724   -9400798.54043  -7313002.29142  23730308.0024   23730303.6504
        45.0004         39.0004
  20952996.8084    3104240.55943   2426442.98642  20952997.3544   20952993.7964
        55.0004         48.0004
  20257069.7674   -6381244.20643  -4960325.92042  20257071.5494   20257064.8564
        55.0004         51.0004
  21601791.4114  -22905548.66943 -17515455.18142  21601792.7704   21601787.1824
        56.0004         48.0004
 05  6 24 18 12  0.0000000  0  8G22G 3G19G18G25G15G14G 1
  21226727.6444    1753117.02643   1366220.25042  21226728.2684   21226720.2664
        55.0004         48.0004
  22916144.8274   10409958.65843   8123534.35242  22916146.7294   22916143.8124
        51.0004         45.0004
  22425522.2514   -4481407.83343  -3478357.27142  22425523.5164   22425516.2674
        51.0004         45.0004
  23006876.3084   11634217.73443   9059750.32642  23006877.4614   23006870.6554
        50.0004         42.0004
  23710965.0924   -9502446.42343  -7392208.33042  23710965.3574   23710961.0124
        46.0004         40.0004
  20965753.4394    3171278.62743   2478680.42542  20965754.0224   20965750.3494
        54.0004         48.0004
  20256573.1204   -6383850.89943  -4962357.10442  20256575.2124   20256569.1104
        55.0004         51.0004
  21588796.4234  -22973835.41343 -17568665.58042  21588798.4534   21588792.4134
        56.0004         47.0004
 05  6 24 18 12 30.0000000  0  8G22G 3G19G18G25G15G14G 1
  21232289.0094    1782339.74443   1388991.19742  21232289.1704   21232281.4284
        55.0004         48.0004
  22928165.3444   10473124.37543   8172754.35542  22928167.0214   22928164.7954
        52.0004         45.0004
  22427292.8004   -4472097.78243  -3471102.70242  22427294.4934   22427288.7954
        51.0004         45.0004
  23018613.1094   11695893.10743   9107809.01742  23018614.3064   23018607.2094
        50.0004         42.0004
  23691630.5154   -9604044.33043  -7471375.42142  23691631.8944   23691628.3414
        47.0004         40.0004
  20978593.3904    3238749.59143   2531255.18142  20978593.8014   20978590.0244
        55.0004         48.0004
  20256169.2534   -6385975.06443  -4964012.29342  20256171.2074   20256165.0304
        55.0004         51.0004
  21575873.0854  -23041741.61343 -17621579.47742  21575874.9764   21575870.2274
        54.0004         47.0004
 05  6 24 18 13  0.0000000  0  8G22G 3G19G18G25G15G14G 1
  21237877.6744    1811706.84043   1411874.64542  21237877.9094   21237870.3884
        56.0004         48.0004
  22940242.4324   10536591.17943   8222208.96742  22940244.1584   22940240.6774
        51.0004         45.0004
  22429167.4674   -4462245.61743  -3463425.71242  22429169.4254   22429163.7454
        51.0004         45.0004
  23030366.2354   11757662.30943   9155940.83542  23030369.1514   23030360.0234
        49.0004         42.0004
  23672306.6114   -9705588.14143  -7550500.36442  23672309.6224   23672305.7564
        48.0004         40.0004
  20991515.4534    3306653.81843   2584167.53242  20991516.2384   20991511.6434
        56.0004         49.0004
  20255857.0474   -6387616.58343  -4965291.38542  20255858.9294   20255852.6434
        56.0004         51.0004
  21563024.0114  -23109265.04943 -17674195.12342  21563025.7224   21563021.8904
        53.0004         47.0004
 05  6 24 18 13 30.0000000  0  8G22G 3G19G18G25G15G14G 1
  21243494.0474    1841220.72344   1434872.46442  21243494.7644   21243486.7314
        57.0004         49.0004
  22952376.8624   10600358.76443   8271897.94642  22952378.8904   22952375.4674
        50.0004         44.0004
  22431146.4054   -4451849.88043  -3455325.14542  22431147.6814   22431142.0414
        51.0004         45.0004
  23042139.4804   11819527.80543   9204147.69342  23042140.6324   23042134.0124
        48.0004         41.0004
  23652995.2834   -9807072.62143  -7629579.05842  23652997.0864   23652992.8574
        49.0004         41.0004
  21004519.6754    3374992.59243   2637418.48442  21004520.8394   21004515.5194
        56.0004         49.0004
  20255636.7674   -6388774.04743  -4966193.28742  20255638.9374   20255631.9104
        56.0004         51.0004
  21550249.4934  -23176402.34443 -17726509.88442  21550250.7034   21550246.6564
        55.0004         48.0004
 05  6 24 18 14  0.0000000  0  8G22G 3G19G18G25G15G14G 1
  21249137.5914    1870877.38844   1457981.53842  21249138.4184   21249130.1014
        57.0004         49.0004
  22964567.4024   10664420.51843   8321816.13342  22964569.5014   22964565.2974
        50.0004         43.0004
  22433226.7944   -4440915.40143  -3446804.78442  22433228.0154   22433222.1104
        51.0004         46.0004
  23053928.1184   11881485.15143   9252426.13842  23053931.6004   23053924.8924
        48.0004         41.0004
  23633695.7634   -9908499.06643  -7708612.55842  23633698.0324   23633690.8234
        49.0004         41.0004
  21017605.7694    3443761.00643   2691004.20842  21017606.9534   21017601.1984
        56.0004         48.0004
  20255507.5874   -6389452.36743  -4966721.82542  20255509.6614   20255502.7054
        56.0004         50.0004
  21537545.8924  -23243156.65343 -17778526.20942  21537547.8634   21537543.5784
        56.0004         49.0004
 05  6 24 18 14 30.0000000  0  8G22G 3G19G18G25G15G14G 1
  21254807.9274    1900676.34944   1481201.49142  21254809.1154   21254800.4664
        57.0004         50.0004
  22976812.1584   10728773.31843   8371961.12142  22976812.9444   22976812.2794
        48.0004         42.0004
  22435411.2074   -4429443.54243  -3437865.69642  22435411.8804   22435405.4144
        53.0004         46.0004
  23065737.1854   11943534.56543   9300776.29642  23065739.9924   23065733.4394
        49.0004         41.0004
  23614406.2724  -10009864.92143  -7787598.85242  23614408.1444   23614402.3014
        50.0004         41.0004
  21030773.4814    3512957.75843   2744923.69942  21030774.7024   21030768.2794
        56.0004         48.0004
  20255469.1344   -6389652.84443  -4966878.01942  20255471.0394   20255464.7634
        55.0004         50.0004
  21524915.6204  -23309527.49443 -17830243.72242  21524917.1564   21524913.0044
        56.0004         49.0004
 05  6 24 18 15  0.0000000  0  8G22G 3G19G18G25G15G14G 1
  21260506.1754    1930619.99544   1504534.18542  21260506.8994   21260498.8304
        57.0004         50.0004
  22989113.0284   10793416.29243   8422332.23742  22989113.8894   22989111.7024
        47.0004         42.0004
  22437695.7284   -4417433.20743  -3428507.01542  22437698.0424   22437690.5964
        53.0004         46.0004
  23077563.2364   12005678.40643   9349200.03442  23077565.2134   23077557.8994
        50.0004         42.0004
  23595127.7614  -10111165.07943  -7866533.96742  23595132.0314   23595126.8194
        49.0004         41.0004
  21044023.2134    3582583.86943   2799177.75342  21044023.9674   21044018.6194
        55.0004         47.0004
  20255522.1714   -6389374.46743  -4966661.08442  20255524.3464   20255517.5354
        55.0004         50.0004
  21512359.5114  -23375511.93343 -17881660.14142  21512361.2804   21512355.6794
        56.0004         48.0004
 05  6 24 18 15 30.0000000  0  8G22G 3G19G18G25G15G14G 1
  21266231.7704    1960707.96444   1527979.34842  21266232.4704   21266224.5574
        57.0004         50.0004
  23001469.7094   10858346.56743   8472927.20942  23001470.8864   23001468.9114
        48.0004         42.0004
  22440083.6154   -4404885.58843  -3418729.67242  22440084.4724   22440078.3434
        53.0004         46.0004
  23089406.3394   12067916.45943   9397697.19742  23089408.1984   23089401.7474
        51.0004         42.0004
  23575864.1244  -10212397.19543  -7945416.07442  23575866.3024   23575862.3844
        48.0004         41.0004
  21057353.2094    3652637.81543   2853765.20642  21057354.2144   21057350.4504
        54.0004         47.0004
  20255666.3224   -6388618.61843  -4966072.09042  20255668.3024   20255661.2264
        55.0004         50.0004
  21499875.8514  -23441109.31943 -17932774.93242  21499877.6084   21499872.6754
        55.0004         47.0004
 05  6 24 18 16  0.0000000  0  8G22G 3G19G18G25G15G14G 1
  21271984.1914    1990939.30043   1551536.24042  21271984.6374   21271977.0404
        56.0004         50.0004
  23013880.2024   10923560.52743   8523743.22142  23013881.4504   23013878.1984
        50.0004         43.0004
  22442573.3014   -4391802.73643  -3408535.26442  22442574.8844   22442568.2154
        52.0004         46.0004
  23101268.4554   12130247.79543   9446267.03542  23101270.1734   23101263.7404
        51.0004         43.0004
  23556612.5614  -10313559.55243  -8024243.83642  23556615.3584   23556612.9904
        47.0004         40.0004
  21070765.5094    3723117.52943   2908684.44142  21070765.8344   21070762.7474
        54.0004         47.0004
  20255900.2004   -6387387.21643  -4965112.53942  20255902.0224   20255895.1544
        54.0004         49.0004
  21487467.6404  -23506319.96943 -17983588.36142  21487468.5214   21487463.0354
        55.0004         46.0004
 05  6 24 18 16 30.0000000  0  8G22G 3G19G18G25G15G14G 1
  21277763.9074    2021315.03743   1575205.65242  21277764.4724   21277757.3424
        56.0004         49.0004
  23026343.8734   10989056.39443   8574778.89842  23026346.0944   23026341.2794
        51.0004         43.0004
  22445164.3954   -4378184.83343  -3397923.92042  22445165.7244   22445159.7864
        53.0004         46.0004
  23113147.3684   12192673.49343   9494910.41542  23113148.6204   23113143.4624
        51.0004         43.0004
  23537375.5824  -10414648.39643  -8103014.31442  23537377.7854   23537375.1004
        47.0004         40.0004
  21084258.6574    3794023.00243   2963935.43542  21084259.1194   21084254.9744
        55.0004         48.0004
  20256224.9234   -6385680.50243  -4963782.62942  20256226.8874   20256219.8374
        54.0004         49.0004
  21475131.7774  -23571141.94343 -18034098.93342  21475132.7824   21475128.8694
        54.0004         46.0004
 05  6 24 18 17  0.0000000  0  8G22G 3G19G18G25G15G14G 1
  21283572.5274    2051834.71843   1598987.22642  21283572.4934   21283565.1024
        56.0004         50.0004
  23038860.5734   11054830.68943   8626031.53142  23038863.1004   23038857.1294
        51.0004         44.0004
  22447857.5004   -4364033.30743  -3386896.79842  22447859.2784   22447852.4284
        52.0004         46.0004
  23125044.5324   12255193.26743   9543627.06142  23125047.1264   23125040.7604
        51.0004         42.0004
  23518154.1804  -10515660.83443  -8181725.25042  23518158.5044   23518151.9274
        48.0004         40.0004
  21097832.2344    3865352.74943   3019517.02442  21097833.0164   21097828.7964
        55.0004         48.0004
  20256640.2714   -6383499.89343  -4962083.45042  20256642.0854   20256635.0074
        54.0004         50.0004
  21462870.3624  -23635574.93643 -18084306.42542  21462871.9574   21462868.6444
        55.0004         47.0004
 05  6 24 18 17 30.0000000  0  8G22G 3G19G18G25G15G14G 1
  21289409.5864    2082507.46244   1622888.06642  21289410.4214   21289402.3084
        57.0004         50.0004
  23051431.7374   11120890.14343   8677506.36642  23051433.3504   23051429.5074
        52.0004         44.0004
  22450654.3994   -4349340.14743  -3375447.59542  22450656.1424   22450648.4074
        52.0004         46.0004
  23136961.2624   12317815.91043   9592423.85142  23136963.2564   23136955.2604
        49.0004         40.0004
  23498949.9194  -10616584.75443  -8260367.17042  23498952.4884   23498945.2934
        48.0004         40.0004
  21111487.9214    3937114.89243   3075435.53342  21111489.0044   21111484.0684
        55.0004         48.0004
  20257146.5714   -6380837.04443  -4960008.50042  20257148.6744   20257141.7784
        54.0004         50.0004
  21450686.0124  -23699609.03243 -18134203.09542  21450687.2914   21450683.0404
        56.0004         48.0004
 05  6 24 18 18  0.0000000  0  8G22G 3G19G18G25G15G14G 1
  21295272.0744    2113315.58544   1646894.38842  21295273.2894   21295264.6914
        57.0004         50.0004
  23064052.7884   11187213.77443   8729187.06542  23064054.1804   23064050.1754
        51.0004         44.0004
  22453548.1994   -4334124.23443  -3363591.05042  22453550.0204   22453544.5704
        51.0004         46.0004
  23148893.6694   12380524.38243   9641287.51442  23148896.0214   23148888.1604
        48.0004         40.0004
  23479758.8234  -10717435.32743  -8338951.93842  23479760.8464   23479756.7644
        48.0004         40.0004
  21125222.9054    4009290.18843   3131675.97542  21125223.6664   21125218.5894
        56.0004         48.0004
  20257742.2604   -6377711.44143  -4957572.95642  20257744.1484   20257736.5154
        54.0004         50.0004
  21438573.2654  -23763261.35344 -18183802.28242  21438575.0464   21438570.5694
        57.0004         49.0004
 05  6 24 18 18 30.0000000  0  8G22G 3G19G18G25G15G14G 1
  21301161.7184    2144265.70944   1671011.35342  21301162.6184   21301154.9424
        57.0004         50.0004
  23076724.1444   11253805.58443   8781076.74942  23076725.1984   23076721.9474
        50.0004         43.0004
  22456544.9884   -4318379.93643  -3351322.79142  22456546.8034   22456540.6324
        51.0004         46.0004
  23160845.0674   12443325.59143   9690223.45142  23160846.3094   23160841.3044
        47.0004         40.0004
  23460582.0644  -10818202.94843  -8417472.08042  23460584.2924   23460582.3354
        48.0004         40.0004
  21139036.3224    4081884.20943   3188242.69742  21139037.6814   21139033.1944
        55.0004         48.0004
  20258425.9224   -6374117.36843  -4954772.37142  20258428.0244   20258420.6874
        55.0004         50.0004
  21426534.7974  -23826524.16644 -18233097.95042  21426536.3104   21426532.0134
        57.0004         50.0004
 05  6 24 18 19  0.0000000  0  8G22G 3G19G18G25G15G14G 1
  21307079.5814    2175362.71244   1695242.76242  21307080.1224   21307072.4914
        57.0004         50.0004
  23089446.0334   11320667.41943   8833176.84342  23089449.2904   23089444.1184
        50.0004         42.0004
  22459642.2444   -4302103.78143  -3338640.08342  22459643.1854   22459637.7864
        51.0004         46.0004
  23172813.0644   12506224.00443   9739235.18642  23172814.6834   23172811.4034
        45.0004         40.0004
  23441422.1184  -10918880.09743  -8495921.75942  23441424.7154   23441420.9384
        47.0004         41.0004
  21152931.2004    4154900.66743   3245138.60042  21152931.5274   21152928.2664
        54.0004         47.0004
  20259199.2254   -6370051.23543  -4951603.95742  20259201.4234   20259194.8484
        54.0004         50.0004
  21414570.9164  -23889392.12943 -18282085.96342  21414572.3574   21414568.6364
        56.0004         49.0004
 05  6 24 18 19 30.0000000  0  8G22G 3G19G18G25G15G14G 1
  21313023.6944    2206603.22543   1719586.00542  21313024.4244   21313017.0554
        56.0004         50.0004
  23102220.8014   11387793.36243   8885482.69242  23102223.1184   23102214.3904
        50.0004         41.0004
  22462839.4014   -4285300.32243  -3325546.49242  22462840.4044   22462835.6734
        51.0004         45.0004
  23184799.4484   12569216.40843   9788320.15442  23184800.9454   23184798.0674
        44.0004         40.0004
  23422282.0384  -11019467.07543  -8574301.15842  23422284.1904   23422280.8794
        47.0004         41.0004
  21166905.1014    4228334.86043   3302360.02742  21166905.4614   21166902.0484
        54.0004         47.0004
  20260061.7574   -6365517.40843  -4948071.11242  20260063.6634   20260057.6854
        54.0004         50.0004
  21402681.5844  -23951867.80543 -18330768.31342  21402683.2704   21402679.5764
        54.0004         49.0004
 05  6 24 18 20  0.0000000  0  8G22G 3G19G18G25G15G14G 1
  21318996.1264    2237988.99843   1744042.45742  21318996.8114   21318989.3704
        56.0004         49.0004
  23115045.5234   11455181.88643   8937993.13242  23115047.3604   23115039.6734
        50.0004         42.0004
  22466138.5144   -4267969.30643  -3312041.81542  22466139.0504   22466133.3054
        51.0004         45.0004
  23196805.2964   12632304.78943   9837479.90942  23196807.5494   23196801.9674
        45.0004         40.0004
  23403159.8334  -11119959.83343  -8652607.11642  23403159.9634   23403158.0124
        48.0004         41.0004
  21180959.8264    4302187.03443   3359907.14942  21180960.3624   21180955.3234
        55.0004         47.0004
  20261013.8434   -6360515.76343  -4944173.73842  20261015.4104   20261009.4864
        54.0004         50.0004
  21390867.7274  -24013949.12343 -18379143.37442  21390869.6074   21390865.2524
        53.0004         48.0004
 05  6 24 18 20 30.0000000  0  8G22G 3G19G18G25G15G14G 1
  21324997.1444    2269517.68443   1768610.27142  21324996.8864   21324989.0654
        56.0004         49.0004
  23127917.8114   11522828.21543   8990704.47142  23127920.4664   23127913.9254
        50.0004         42.0004
  22469534.7214   -4250113.93843  -3298128.56142  22469535.7704   22469530.7954
        51.0004         45.0004
  23208830.5674   12695486.75243   9886712.55542  23208830.8754   23208825.5934
        46.0004         40.0004
  23384054.3134  -11220357.33043  -8730838.85642  23384055.7984   23384052.8804
        47.0004         41.0004
  21195091.8184    4376453.98243   3417777.45342  21195093.3004   21195087.7464
        55.0004         47.0004
  20262053.7984   -6355049.45143  -4939914.28342  20262055.6634   20262049.4344
        54.0004         51.0004
  21379130.2914  -24075637.39643 -18427212.14342  21379131.6874   21379125.8094
        55.0004         47.0004
 05  6 24 18 21  0.0000000  0  8G22G 3G19G18G25G15G14G 1
  21331023.4354    2301189.48244   1793289.59742  21331024.3814   21331016.2984
        57.0004         49.0004
  23140838.4624   11590729.44943   9043614.48242  23140841.4514   23140837.7274
        49.0004         42.0004
  22473032.3314   -4231735.92643  -3283808.04542  22473033.3444   22473028.2394
        52.0004         45.0004
  23220870.6924   12758762.54143   9936018.29642  23220872.8814   23220865.3924
        46.0004         40.0004
  23364967.8384  -11320656.76143  -8808994.17542  23364970.0334   23364967.2874
        48.0004         41.0004
  21209302.4784    4451134.58843   3475970.08742  21209303.8244   21209299.7454
        55.0004         48.0004
  20263182.6514   -6349119.77043  -4935293.76142  20263184.5214   20263177.8694
        55.0004         51.0004
  21367466.0624  -24136932.08043 -18474974.19142  21367468.0094   21367461.5484
        56.0004         47.0004
 05  6 24 18 21 30.0000000  0  8G22G 3G19G18G25G15G14G 1
  21337078.6244    2333008.67544   1818083.75342  21337079.6264   21337071.0084
        57.0004         49.0004
  23153807.6914   11658886.96243   9096724.21142  23153810.1454   23153806.9624
        48.0004         43.0004
  22476630.2894   -4212831.67943  -3269077.48942  22476631.6764   22476626.1514
        52.0004         46.0004
  23232930.0024   12822136.72443   9985400.70942  23232931.7754   23232925.7414
        46.0004         39.0004
  23345901.9554  -11420851.39043  -8887067.81142  23345903.7014   23345897.9574
        47.0004         41.0004
  21223593.4894    4526231.77643   3534487.32742  21223594.4574   21223590.6184
        55.0004         48.0004
  20264399.3654   -6342723.82543  -4930309.90642  20264401.7524   20264394.9374
        55.0004         51.0004
  21355878.0204  -24197828.33244 -18522425.75742  21355879.5474   21355873.2234
        57.0004         47.0004
 05  6 24 18 22  0.0000000  0  8G22G 3G19G18G25G15G14G 1
  21343160.3404    2364969.67244   1842988.39642  21343161.5224   21343152.6664
        57.0004         49.0004
  23166824.2714   11727292.06743   9150026.86242  23166827.3584   23166824.7484
        48.0004         43.0004
  22480326.9064   -4193408.80043  -3253942.80642  22480327.4244   22480321.8754
        52.0004         45.0004
  23245008.4094   12885603.19143  10034855.01142  23245008.4014   23245003.6674
        45.0004         39.0004
  23326855.5584  -11520944.00343  -8965061.93142  23326857.0894   23326853.0874
        48.0004         41.0004
  21237961.8334    4601738.38643   3593323.60342  21237962.5254   21237958.0884
        55.0004         48.0004
  20265704.3674   -6335868.53643  -4924968.12342  20265706.3724   20265699.1354
        56.0004         51.0004
  21344364.1844  -24258331.33444 -18569570.88542  21344366.0144   21344360.4714
        57.0004         48.0004
 05  6 24 18 22 30.0000000  0  8G22G 3G19G18G25G15G14G 1
  21349270.4714    2397077.68843   1868007.59442  21349271.3384   21349262.2414
        56.0004         49.0004
  23179890.9684   11795947.02543   9203524.18042  23179893.1004   23179888.8994
        50.0004         43.0004
  22484121.9424   -4173463.37943  -3238400.94442  22484123.0124   22484117.0124
        52.0004         45.0004
  23257101.8794   12949167.63843  10084385.70642  23257103.4384   23257100.1984
        44.0004         39.0004
  23307830.3574  -11620926.20143  -9042970.01842  23307832.4574   23307828.0414
        50.0004         42.0004
  21252408.8044    4677658.42043   3652482.01342  21252409.5314   21252404.6994
        54.0004         47.0004
  20267096.9784   -6328549.94343  -4919265.31842  20267098.6914   20267091.5444
        56.0004         51.0004
  21332927.1874  -24318435.23244 -18616405.04142  21332928.4164   21332923.4014
        57.0004         48.0004
 05  6 24 18 23  0.0000000  0  8G22G 3G19G18G25G15G14G 1
  21355408.7524    2429334.97443   1893143.12342  21355409.1964   21355400.9064
        56.0004         49.0004
  23193002.6544   11864851.27543   9257215.75842  23193005.1244   23193001.8044
        50.0004         43.0004
  22488016.6674   -4152994.26243  -3222450.99142  22488019.1144   22488012.1484
        52.0004         45.0004
  23269217.2524   13012832.25643  10133994.46642  23269216.6534   23269215.0824
        45.0004         39.0004
  23288826.2124  -11720793.37943  -9120788.48042  23288828.5744   23288824.3284
        51.0004         43.0004
  21266934.8234    4753992.74543   3711963.26042  21266934.9894   21266930.8914
        53.0004         46.0004
  20268577.7684   -6320767.17643  -4913200.82342  20268579.9344   20268572.5534
        56.0004         52.0004
  21321566.1314  -24378137.16043 -18662925.98242  21321567.5654   21321562.4874
        56.0004         49.0004
 05  6 24 18 23 30.0000000  0  8G22G 3G19G18G25G15G14G 1
  21361573.2314    2461731.98643   1918387.54642  21361573.7604   21361566.0144
        56.0004         49.0004
  23206159.7404   11933992.55743   9311092.02742  23206160.9484   23206157.3214
        50.0004         43.0004
  22492009.6374   -4132012.55343  -3206101.63742  22492011.3304   22492004.3754
        53.0004         46.0004
  23281350.0864   13076587.72743  10183674.04242  23281350.9584   23281347.2554
        46.0004         40.0004
  23269842.2844  -11820552.16043  -9198522.47042  23269844.9224   23269840.5984
        51.0004         44.0004
  21281537.1434    4830730.22243   3771758.65742  21281537.9244   21281533.5774
        53.0004         46.0004
  20270144.7504   -6312531.15943  -4906783.14142  20270146.9554   20270140.0814
        56.0004         52.0004
  21310279.7724  -24437446.25343 -18709140.83542  21310281.5884   21310276.3854
        55.0004         49.0004
 05  6 24 18 24  0.0000000  0  8G22G 3G19G18G25G15G14G 1
  21367766.5724    2494280.25243   1943749.82842  21367767.4584   21367760.7434
        56.0004         49.0004
  23219363.1244   12003379.06743   9365159.38142  23219364.5084   23219361.1524
        50.0004         43.0004
  22496102.5604   -4110508.52643  -3189345.29742  22496104.3344   22496096.3834
        53.0004         46.0004
  23293502.3994   13140445.46243  10233433.28642  23293503.5524   23293499.0784
        46.0004         40.0004
  23250881.3084  -11920188.17543  -9276160.81842  23250884.5374   23250881.1534
        50.0004         44.0004
  21296219.4004    4907880.90343   3831876.02942  21296220.0154   21296214.8304
        55.0004         47.0004
  20271800.7034   -6303831.92643  -4900004.51942  20271802.5354   20271795.7184
        56.0004         52.0004
  21299069.9804  -24496350.54643 -18755040.27142  21299071.8884   21299067.7694
        54.0004         49.0004
 05  6 24 18 24 30.0000000  0  8G22G 3G19G18G25G15G14G 1
  21373986.8744    2526965.18943   1969218.61142  21373987.3774   21373980.1274
        56.0004         49.0004
  23232610.7104   12072993.80543   9419404.54242  23232612.9264   23232608.0494
        49.0004         42.0004
  22500290.0904   -4088497.98143  -3172194.25742  22500291.6454   22500285.1294
        52.0004         46.0004
  23305671.2374   13204391.19743  10283261.09142  23305673.2604   23305667.3864
        47.0004         39.0004
  23231940.7444  -12019713.08243  -9353712.62042  23231942.9124   23231941.8904
        48.0004         43.0004
  21310976.3694    4985429.04443   3892303.10742  21310977.4664   21310972.7224
        56.0004         48.0004
  20273540.9494   -6294685.15043  -4892877.16542  20273543.1724   20273536.5214
        56.0004         52.0004
  21287935.3944  -24554863.88143 -18800635.07942  21287937.1164   21287932.6224
        54.0004         49.0004
 05  6 24 18 25  0.0000000  0  8G22G 3G19G18G25G15G14G 1
  21380235.0484    2559797.75544   1994802.42342  21380235.5344   21380227.6164
        57.0004         49.0004
  23245902.9254   12142844.57943   9473833.64242  23245905.0114   23245899.5114
        49.0004         41.0004
  22504576.3624   -4065971.54243  -3154641.22042  22504577.8834   22504571.4374
        51.0004         45.0004
  23317858.2604   13268435.58343  10333165.76442  23317858.8324   23317853.2514
        47.0004         40.0004
  23213025.6584  -12119113.08443  -9431167.10342  23213026.9264   23213026.7914
        48.0004         42.0004
  21325810.8664    5063384.14843   3953047.29842  21325812.2374   21325807.4364
        56.0004         48.0004
  20275368.6684   -6285081.43343  -4885393.75342  20275370.8154   20275363.9414
        56.0004         52.0004
  21276877.1394  -24612974.83843 -18845916.33642  21276879.3804   21276874.8084
        55.0004         49.0004
 05  6 24 18 25 30.0000000  0  8G22G 3G19G18G25G15G14G 1
  21386510.0114    2592774.07144   2020498.23142  21386510.8514   21386502.5474
        57.0004         49.0004
  23259238.8904   12212924.34043   9528441.17042  23259240.2674   23259234.0674
        49.0004         42.0004
  22508960.1194   -4042934.93543  -3136690.63542  22508961.2254   22508955.9514
        51.0004         45.0004
  23330063.0974   13332574.65943  10383144.22442  23330066.0854   23330060.4644
        47.0004         39.0004
  23194133.8504  -12218389.70043  -9508525.43942  23194135.4824   23194134.3954
        47.0004         41.0004
  21340721.0204    5141740.57143   4014104.20142  21340722.4034   21340718.0904
        55.0004         48.0004
  20277282.3144   -6275026.30243  -4877558.59242  20277284.2314   20277277.2124
        56.0004         52.0004
  21265895.1174  -24670687.18744 -18890886.97642  21265897.1574   21265892.3434
        57.0004         49.0004
 05  6 24 18 26  0.0000000  0  8G22G 3G19G18G25G15G14G 1
  21392812.6074    2625893.05743   2046305.20142  21392813.0644   21392804.6844
        56.0004         49.0004
  23272618.2674   12283229.43943   9583224.29042  23272619.9004   23272614.9304
        50.0004         42.0004
  22513440.0914   -4019390.45643  -3118344.28742  22513441.7774   22513436.1764
        50.0004         45.0004
  23342287.1224   13396807.90943  10433196.07642  23342290.1594   23342284.0534
        47.0004         39.0004
  23175265.6014  -12317541.08943  -9585786.15642  23175267.9294   23175260.5474
        48.0004         40.0004
  21355707.6054    5220496.15843   4075472.16342  21355708.7154   21355704.8554
        55.0004         48.0004
  20279280.9854   -6264521.93043  -4869373.36342  20279283.2664   20279276.0724
        56.0004         52.0004
  21254988.3674  -24728001.27344 -18935547.25242  21254990.1754   21254984.7504
        57.0004         49.0004
 05  6 24 18 26 30.0000000  0  8G22G 3G19G18G25G15G14G 1
  21399142.4244    2659157.12243   2072225.23342  21399142.8064   21399134.7944
        56.0004         48.0004
  23286039.9414   12353759.13043   9638182.43842  23286042.2624   23286037.7954
        50.0004         43.0004
  22518019.6024   -3995337.39143  -3099601.66042  22518020.4754   22518013.6874
        51.0004         46.0004
  23354528.6574   13461138.00543  10483323.34742  23354530.1724   23354523.0694
        47.0004         38.0004
  23156421.1394  -12416561.78343  -9662945.03842  23156425.1574   23156416.6624
        47.0004         39.0004
  21370770.5214    5299651.81943   4137151.86442  21370771.4754   21370767.3354
        55.0004         48.0004
  20281365.2884   -6253567.53643  -4860837.47142  20281367.4744   20281360.3404
        56.0004         51.0004
  21244158.0604  -24784914.46544 -18979895.13042  21244159.9284   21244154.4814
        57.0004         48.0004
 05  6 24 18 27  0.0000000  0  8G22G 3G19G18G25G15G14G 1
  21405498.5934    2692564.65243   2098257.06942  21405499.3834   21405492.0564
        55.0004         48.0004
  23299502.4934   12424508.51843   9693311.78642  23299503.8944   23299501.4494
        50.0004         43.0004
  22522692.6564   -3970779.37243  -3080465.56342  22522695.0784   22522686.7944
        52.0004         46.0004
  23366788.3424   13525562.71943  10533524.31242  23366790.3074   23366779.9904
        46.0004         37.0004
  23137603.8754  -12515451.12243  -9740001.60442  23137602.8344   23137599.4964
        46.0004         39.0004
  21385909.2414    5379203.79243   4199140.37442  21385909.7594   21385905.6324
        54.0004         47.0004
  20283534.8504   -6242166.34943  -4851953.42842  20283536.6394   20283529.9224
        56.0004         51.0004
  21233404.4544  -24841428.18844 -19023931.72542  21233406.0624   21233400.9394
        57.0004         48.0004
 05  6 24 18 27 30.0000000  0  8G22G 3G19G18G25G15G14G 1
  21411884.6944    2726120.42943   2124404.42542  21411884.9614   21411877.6114
        55.0004         48.0004
  23313007.7664   12495479.59443   9748613.88942  23313008.9224   23313006.4824
        49.0004         43.0004
  22527461.7824   -3945713.05543  -3060933.39642  22527464.0994   22527456.3594
        52.0004         46.0004
  23379066.4544   13590087.37543  10583803.14842  23379066.4554   23379060.1654
        46.0004         38.0004
  23118812.1634  -12614201.25043  -9816949.72842  23118813.6814   23118811.6054
        46.0004         41.0004
  21401123.8894    5459155.66443   4261440.48942  21401124.1284   21401119.5764
        54.0004         47.0004
  20285790.1884   -6230315.19943  -4842718.76842  20285792.0484   20285784.8334
        56.0004         51.0004
  21222726.7194  -24897537.02943 -19067652.83642  21222728.8504   21222723.0074
        56.0004         47.0004
 05  6 24 18 28  0.0000000  0  8G22G 3G19G18G25G15G14G 1
  21418298.0864    2759822.64043   2150665.90042  21418298.5644   21418290.9444
        56.0004         48.0004
  23326554.2824   12566667.29643   9804084.78842  23326555.8894   23326553.5694
        50.0004         43.0004
  22532327.9494   -3920142.15443  -3041008.04642  22532329.6834   22532323.1194
        52.0004         45.0004
  23391364.1174   13654709.17143  10634157.70842  23391366.0014   23391358.8714
        47.0004         39.0004
  23100049.6914  -12712811.59343  -9893788.93642  23100050.9394   23100047.6584
        48.0004         42.0004
  21416412.8434    5539503.84943   4324049.43742  21416413.1934   21416409.0484
        53.0004         46.0004
  20288130.4134   -6218017.41643  -4833136.07542  20288132.2794   20288124.9944
        56.0004         51.0004
  21212126.5914  -24953242.64443 -19111059.76242  21212128.3304   21212122.9524
        55.0004         48.0004
 05  6 24 18 28 30.0000000  0  8G22G 3G19G18G25G15G14G 1
  21424739.4514    2793670.44743   2177040.81142  21424739.8654   21424731.7654
        56.0004         49.0004
  23340141.6334   12638068.23443   9859721.81842  23340144.1194   23340140.4304
        49.0004         42.0004
  22537288.5934   -3894068.74443  -3020691.12942  22537290.5964   22537283.4184
        51.0004         44.0004
  23403679.5334   13719428.45143  10684588.26842  23403683.1204   23403676.0114
        47.0004         39.0004
  23081312.4004  -12811279.64943  -9970517.25142  23081313.5924   23081308.2474
        50.0004         42.0004
  21431777.2494    5620246.36743   4386965.66342  21431777.9514   21431773.9064
        53.0004         46.0004
  20290555.5084   -6205274.90943  -4823206.83742  20290557.2044   20290549.9004
        56.0004         51.0004
  21201602.5724  -25008545.19343 -19154152.64842  21201604.7354   21201599.3664
        55.0004         49.0004
 05  6 24 18 29  0.0000000  0  8G22G 3G19G18G25G15G14G 1
  21431208.1234    2827664.27444   2203529.50742  21431208.7734   21431200.8834
        57.0004         49.0004
  23353768.4064   12709679.56243   9915522.79442  23353770.4594   23353765.0204
        50.0004         41.0004
  22542344.7734   -3867494.46743  -2999983.94342  22542346.2664   22542340.5374
        50.0004         44.0004
  23416013.9404   13784245.29543  10735094.87942  23416015.2734   23416011.3304
        47.0004         40.0004
  23062602.2984  -12909602.29843 -10047132.25042  23062604.1024   23062597.4744
        50.0004         42.0004
  21447217.9264    5701381.84643   4450188.07742  21447218.9284   21447213.7994
        55.0004         47.0004
  20293064.0714   -6192089.24243  -4812932.28642  20293066.1454   20293059.8044
        56.0004         51.0004
  21191155.8204  -25063444.20443 -19196931.09642  21191157.4964   21191152.5854
        55.0004         49.0004
 05  6 24 18 29 30.0000000  0  8G22G 3G19G18G25G15G14G 1
  21437704.7534    2861803.88744   2230131.78042  21437705.5684   21437697.7984
        57.0004         49.0004
  23367435.6104   12781497.80143   9971484.97342  23367436.6824   23367432.1064
        50.0004         42.0004
  22547498.2974   -3840421.60643  -2978888.24842  22547499.0304   22547492.2874
        52.0004         45.0004
  23428366.5104   13849159.21543  10785677.10742  23428368.7164   23428363.1964
        46.0004         40.0004
  23043918.4754  -13007777.71343 -10123632.50042  23043920.2284   23043913.4724
        50.0004         42.0004
  21462731.7734    5782908.17543   4513715.04042  21462733.4334   21462727.9644
        55.0004         47.0004
  20295657.6524   -6178462.67143  -4802314.17842  20295659.4864   20295653.0074
        55.0004         51.0004
  21180785.8094  -25117939.93143 -19239395.29142  21180787.3244   21180782.3584
        56.0004         50.0004
 05  6 24 18 30  0.0000000  0  8G22G 3G19G18G25G15G14G 1
  21444229.6914    2896089.98244   2256848.19042  21444230.0604   21444222.1034
        57.0004         48.0004
  23381141.2594   12853520.92343  10027606.80042  23381143.7464   23381138.4934
        50.0004         42.0004
  22552744.2894   -3812851.00443  -2957404.69642  22552745.3684   22552739.1084
        52.0004         45.0004
  23440738.6494   13914170.96643  10836335.55242  23440739.7364   23440733.7434
        46.0004         40.0004
  23025263.9404  -13105802.07143 -10200015.05842  23025266.8324   23025260.4894
        48.0004         41.0004
  21478319.2884    5864824.63943   4577545.99142  21478321.1364   21478316.3944
        55.0004         47.0004
  20298334.2654   -6164395.55943  -4791352.79042  20298336.2374   20298329.5944
        55.0004         51.0004
  21170492.9444  -25172031.20644 -19281544.32242  21170494.5644   21170488.7994
        57.0004         50.0004
 05  6 24 18 30 30.0000000  0  8G22G 3G19G18G25G15G14G 1
  21450781.4154    2930521.73444   2283678.10742  21450782.1784   21450773.8084
        57.0004         48.0004
  23394885.1524   12925745.00943  10083885.24142  23394887.8064   23394883.3344
        50.0004         43.0004
  22558085.2714   -3784785.14743  -2935535.23442  22558087.1934   22558080.0004
        52.0004         45.0004
  23453127.7364   13979279.99543  10887069.82342  23453130.0164   23453125.6964
        46.0004         40.0004
  23006640.2624  -13203673.47943 -10276278.45642  23006641.1054   23006639.1954
        48.0004         42.0004
  21493981.1984    5947128.72143   4641678.98942  21493981.9084   21493978.2544
        53.0004         47.0004
  20301094.3934   -6149890.10243  -4780049.83142  20301096.4114   20301090.1834
        55.0004         51.0004
  21160276.4484  -25225718.56244 -19323378.59942  21160278.2954   21160272.5414
        58.0004         50.0004
 05  6 24 18 31  0.0000000  0  8G22G 3G19G18G25G15G14G 1
  21457361.3694    2965100.45244   2310622.53542  21457362.2914   21457354.2724
        57.0004         48.0004
  23408666.6304   12998168.26843  10140318.87142  23408667.4234   23408665.1074
        48.0004         43.0004
  22563520.5884   -3756224.89143  -2913280.51542  22563521.6064   22563514.6514
        52.0004         45.0004
  23465536.2794   14044487.32943  10937880.69542  23465537.3134   23465534.1874
        46.0004         39.0004
  22988046.6924  -13301387.74743 -10352419.43242  22988049.7374   22988045.5374
        49.0004         42.0004
  21509717.4864    6029820.14943   4706113.82842  21509717.0704   21509713.5304
        52.0004         46.0004
  20303938.3784   -6134946.96043  -4768405.82242  20303940.4734   20303933.8374
        56.0004         51.0004
  21150136.6094  -25279000.55744 -19364897.00242  21150138.7724   21150132.8914
        58.0004         49.0004
 05  6 24 18 31 30.0000000  0  8G22G 3G19G18G25G15G14G 1
  21463969.2484    2999826.02244   2337681.39142  21463970.4814   21463962.5534
        57.0004         48.0004
  23422484.4464   13070787.65743  10196905.37542  23422484.8394   23422484.5094
        46.0004         41.0004
  22569048.2084   -3727171.81243  -2890641.77442  22569049.7174   22569044.1774
        51.0004         45.0004
  23477962.2924   14109793.52143  10988768.62142  23477963.1244   23477958.4394
        45.0004         38.0004
  22969483.2204  -13398942.37943 -10428436.00342  22969484.9424   22969480.7054
        50.0004         43.0004
  21525526.1974    6112897.14943   4770849.12442  21525526.4244   21525522.1144
        52.0004         45.0004
  20306865.0914   -6119567.60843  -4756421.90742  20306867.1414   20306860.6644
        56.0004         51.0004
  21140074.3194  -25331876.93844 -19406099.33442  21140075.6324   21140070.7384
        57.0004         48.0004
 05  6 24 18 32  0.0000000  0  9G22G 3G19G18G11G25G15G14G 1
  21470605.3184    3034696.80744   2364853.40242  21470605.8544   21470597.8184
        57.0004         48.0004
  23436339.1764   13143598.21243  10253640.86742  23436340.2944   23436339.0664
        47.0004         41.0004
  22574670.0414   -3697629.80243  -2867622.07642  22574671.8914   22574665.7764
        52.0004         45.0004
  23490408.9114   14175196.44343  11039731.86442  23490409.0224   23490405.0234
        46.0004         38.0004
  24062520.252    -1242586.12252                                  24062516.7994
        39.000          32.0004
  22950949.9554  -13496336.60243 -10504327.56842  22950952.0734   22950946.9154
        51.0004         44.0004
  21541409.1884    6196356.16443   4835882.08342  21541408.8744   21541404.0024
        53.0004         45.0004
  20309873.3424   -6103755.67943  -4744100.91942  20309875.6454   20309869.2124
        55.0004         51.0004
  21130089.3354  -25384349.36543 -19446986.89842  21130090.5924   21130085.1574
        56.0004         48.0004
 05  6 24 18 32 30.0000000  0  9G22G 3G19G18G11G25G15G14G 1
  21477268.6724    3069713.04344   2392138.76142  21477269.5174   21477260.9564
        57.0004         48.0004
  23450233.2514   13216597.41243  10310523.32042  23450233.9724   23450231.7274
        49.0004         42.0004
  22580385.5464   -3667600.71743  -2844222.82442  22580386.9294   22580379.8284
        51.0004         45.0004
  23502872.8714   14240696.01343  11090770.42642  23502875.6224   23502869.3644
        47.0004         38.0004
  24044456.741    -1316550.44052                                  24044455.4694
        36.000          31.0004
  22932447.9104  -13593567.06943 -10580091.53142  22932450.7314   22932445.0454
        51.0004         44.0004
  21557362.7294    6280195.91443   4901211.71342  21557363.7184   21557357.9694
        54.0004         46.0004
  20312964.3364   -6087512.55143  -4731443.93242  20312966.4484   20312959.7654
        54.0004         50.0004
  21120181.4704  -25436417.22243 -19487559.22742  21120183.2384   21120177.4144
        56.0004         48.0004
 05  6 24 18 33  0.0000000  0  8G22G 3G19G18G25G15G14G 1
  21483961.0174    3104879.97244   2419541.54642  21483961.8044   21483953.3794
        57.0004         48.0004
  23464160.2324   13289787.47043  10367554.46242  23464163.2944   23464157.8844
        51.0004         42.0004
  22586192.8344   -3637080.98943  -2820441.25342  22586194.9424   22586188.1774
        51.0004         45.0004
  23515357.5004   14306297.88843  11141888.68242  23515359.9374   23515356.1764
        47.0004         38.0004
  22913977.6054  -13690625.53243 -10655721.46142  22913979.1044   22913975.7664
        51.0004         44.0004
  21573389.4154    6364420.09943   4966840.89642  21573390.8014   21573386.0514
        54.0004         46.0004
  20316137.7574   -6070834.85343  -4718448.32942  20316139.7894   20316133.0624
        54.0004         50.0004
  21110350.5134  -25488075.13943 -19527812.11742  21110352.1274   21110347.2954
        55.0004         48.0004
 05  6 24 18 33 30.0000000  0  8G22G 3G19G18G25G15G14G 1
  21490679.9264    3140188.50943   2447054.69042  21490680.7414   21490672.3194
        56.0004         49.0004
  23478122.0974   13363155.85243  10424724.51942  23478125.1744   23478118.9334
        51.0004         42.0004
  22592091.8294   -3606081.63143  -2796285.92942  22592093.8304   22592087.4594
        51.0004         46.0004
  23527858.7654   14371992.98543  11193079.61242  23527861.2184   23527856.3384
        48.0004         39.0004
  22895536.7774  -13787519.03743 -10731222.87042  22895537.5794   22895537.1874
        48.0004         43.0004
  21589488.4594    6449017.30743   5032760.73842  21589489.1184   21589484.7914
        55.0004         46.0004
  20319391.7774   -6053733.27143  -4705122.42142  20319393.7324   20319387.5004
        54.0004         50.0004
  21100596.8254  -25539332.40743 -19567752.83742  21100598.6104   21100593.5354
        55.0004         49.0004
 05  6 24 18 34  0.0000000  0  8G22G 3G19G18G25G15G14G 1
  21497426.1664    3175646.83843   2474684.55742  21497427.0444   21497420.3204
        55.0004         48.0004
  23492119.1134   13436707.51043  10482037.41642  23492121.3434   23492115.7014
        52.0004         43.0004
  22598082.5304   -3574596.96643  -2771752.43342  22598084.4334   22598079.1634
        51.0004         46.0004
  23540379.9694   14437789.05243  11244349.23642  23540380.7844   23540378.7404
        47.0004         39.0004
  22877130.3014  -13884236.90043 -10806587.43742  22877131.6554   22877131.5734
        46.0004         42.0004
  21605658.2784    6533993.76143   5098976.10142  21605659.5494   21605655.3784
        54.0004         47.0004
  20322728.6274   -6036201.27643  -4691461.14142  20322730.6564   20322724.0074
        54.0004         50.0004
  21090920.2824  -25590181.06743 -19607375.16842  21090921.7284   21090917.7714
        56.0004         49.0004
 05  6 24 18 34 30.0000000  0  8G22G 3G19G18G25G15G14G 1
  21504201.9974    3211252.01843   2502428.85142  21504202.3884   21504195.6254
        54.0004         48.0004
  23506148.9104   13510436.75243  10539488.69342  23506151.3544   23506146.1214
        51.0004         43.0004
  22604167.0654   -3542631.02043  -2746843.91842  22604167.8564   22604161.0994
        52.0004         46.0004
  23552918.8914   14503683.65343  11295695.59742  23552918.3364   23552912.4084
        47.0004         37.0004
  22858760.1964  -13980779.09743 -10881815.13642  22858762.3984   22858760.2654
        45.0004         41.0004
  21621900.5174    6619344.92643   5165483.45442  21621900.8024   21621896.7534
        53.0004         46.0004
  20326147.0344   -6018243.44243  -4677468.02542  20326148.5934   20326141.1334
        54.0004         50.0004
  21081322.3584  -25640623.59444 -19646681.02342  21081323.2694   21081318.9074
        57.0004         50.0004
 05  6 24 18 35  0.0000000  0  8G22G 3G19G18G25G15G14G 1
  21511005.3554    3247005.71743   2530288.87942  21511005.9894   21510999.2504
        54.0004         48.0004
  23520212.2464   13584342.55243  10597077.56742  23520213.4634   23520211.5304
        50.0004         43.0004
  22610340.3094   -3510184.80343  -2721561.16642  22610342.4114   22610334.8464
        52.0004         46.0004
  23565476.9064   14569678.11443  11347119.75742  23565480.8794   23565473.2784
        46.0004         36.0004
  22840426.2214  -14077140.70343 -10956902.08142  22840427.0804   22840422.9314
        48.0004         41.0004
  21638212.7614    6705071.38943   5232283.24942  21638213.3414   21638210.1984
        51.0004         45.0004
  20329645.0174   -5999859.71143  -4663143.02742  20329647.1224   20329639.1004
        54.0004         50.0004
  21071800.9024  -25690657.77644 -19685668.68242  21071802.8774   21071798.1124
        58.0004         50.0004
 05  6 24 18 35 30.0000000  0  9G22G 3G19G18G11G25G15G14G 1
  21517837.6604    3282906.74043   2558263.71042  21517838.0714   21517830.7364
        54.0004         48.0004
  23534309.0524   13658420.08743  10654800.25742  23534311.3384   23534308.3494
        49.0004         42.0004
  22616605.4874   -3477261.84343  -2695906.94942  22616607.3254   22616599.9724
        52.0004         46.0004
  23578052.7704   14635771.14343  11398620.72342  23578054.3484   23578049.8804
        44.0004         36.0004
  23936773.929
        44.000
  22822123.7184  -14173320.94943 -11031847.64442  22822125.1014   22822117.5064
        50.0004         41.0004
  21654597.9914    6791169.17543   5299372.40142  21654597.1484   21654594.2194
        52.0004         45.0004
  20333223.5404   -5981053.56843  -4648488.88642  20333225.8124   20333218.1194
        54.0004         50.0004
  21062357.0084  -25740285.66744 -19724339.72542  21062358.8034   21062353.8084
        58.0004         50.0004
 05  6 24 18 36  0.0000000  0  9G22G 3G19G18G11G25G15G14G 1
  21524699.0934    3318960.40043   2586357.46242  21524699.4384   21524691.0864
        55.0004         49.0004
  23548437.0594   13732671.57043  10712658.49842  23548439.3484   23548437.4964
        47.0004         41.0004
  22622961.7654   -3443858.33043  -2669878.27942  22622964.6974   22622956.5954
        53.0004         46.0004
  23590650.9634   14701968.50743  11450203.04542  23590652.2624   23590648.3334
        45.0004         37.0004
  23918946.205
        45.000
  22803856.7934  -14269311.40443 -11106645.32442  22803859.0054   22803851.7134
        50.0004         42.0004
  21671054.4024    6877642.20743   5366753.93842  21671054.4844   21671049.8614
        53.0004         46.0004
  20336882.9844   -5961821.15043  -4633502.58442  20336885.4694   20336878.1834
        54.0004         50.0004
  21052991.7004  -25789501.28444 -19762689.52842  21052993.4274   21052987.5364
        57.0004         50.0004
 05  6 24 18 36 30.0000000  0  9G22G 3G19G18G11G25G15G14G 1
  21531586.7464    3355156.79643   2614562.43542  21531587.5814   21531579.4574
        56.0004         49.0004
  23562596.7864   13807084.38843  10770642.46642  23562599.1574   23562597.3694
        47.0004         41.0004
  22629407.5274   -3409986.71043  -2643484.84142  22629409.8554   22629403.2704
        52.0004         46.0004
  23603266.3594   14768260.10043  11501858.80442  23603267.0024   23603264.4594
        47.0004         38.0004
  23901152.515
        45.000
  22785624.7184  -14365119.59043 -11181300.98642  22785627.2134   22785619.4164
        50.0004         42.0004
  21687578.9014    6964478.84443   5434418.78342  21687580.4564   21687573.9864
        55.0004         47.0004
  20340621.4914   -5942174.22543  -4618193.29242  20340623.8344   20340617.0154
        54.0004         50.0004
  21043701.8494  -25838314.58344 -19800725.83042  21043703.7034   21043698.1874
        57.0004         49.0004
 05  6 24 18 37  0.0000000  0  9G22G 3G19G18G11G25G15G14G 1
  21538503.1994    3391500.88443   2642882.50142  21538503.8214   21538495.5084
        56.0004         49.0004
  23576788.5254   13881659.96443  10828753.21942  23576791.1404   23576789.1214
        48.0004         41.0004
  22635942.0744   -3375644.27443  -2616724.51042  22635944.3014   22635939.3814
        51.0004         46.0004
  23615900.4654   14834650.12943  11553591.25542  23615904.3644   23615897.1694
        48.0004         39.0004
  23883394.5704   -1924852.77553  -1257084.40252  23883396.7474   23883390.1074
        46.0004         37.0004
  22767429.6074  -14460737.89643 -11255808.70842  22767431.3304   22767424.7784
        50.0004         42.0004
  21704172.1874    7051681.88343   5502369.13842  21704174.8284   21704169.2344
        56.0004         48.0004
  20344439.6244   -5922109.76443  -4602558.65442  20344441.9124   20344434.8874
        54.0004         50.0004
  21034491.1774  -25886720.87343 -19838444.99242  21034492.7304   21034486.9374
        56.0004         49.0004
 05  6 24 18 37 30.0000000  0  9G22G 3G19G18G11G25G15G14G 1
  21545447.6064    3427995.43044   2671319.80342  21545448.5454   21545440.3754
        57.0004         49.0004
  23591012.0354   13956398.16843  10886990.70842  23591013.3254   23591011.6274
        48.0004         42.0004
  22642566.8664   -3340830.08543  -2589596.58442  22642569.2704   22642563.1934
        51.0004         45.0004
  23628554.9244   14901142.50443  11605403.41442  23628556.6554   23628553.5764
        48.0004         40.0004
  23865675.0374   -2017976.36643  -1329648.20242  23865675.6834   23865670.3994
        47.0004         38.0004
  22749270.9394  -14556160.89843 -11330164.22742  22749272.8154   22749266.6174
        50.0004         43.0004
  21720836.7144    7139252.69643   5570606.06742  21720838.1714   21720833.3094
        55.0004         47.0004
  20348337.8354   -5901626.61443  -4586597.76242  20348340.1214   20348332.5994
        55.0004         50.0004
  21025358.0924  -25934717.32743 -19875844.81642  21025359.4104   21025353.8004
        56.0004         49.0004
 05  6 24 18 38  0.0000000  0  9G22G 3G19G18G11G25G15G14G 1
  21552420.0084    3464637.64243   2699872.16042  21552420.7374   21552413.1854
        56.0004         49.0004
  23605264.4464   14031293.20943  10945350.40342  23605267.5604   23605262.5764
        49.0004         42.0004
  22649281.2764   -3305549.07843  -2562104.91942  22649281.8124   22649275.4864
        51.0004         44.0004
  23641225.6914   14967733.91843  11657292.73942  23641226.3224   23641222.1464
        48.0004         39.0004
  23847988.9944   -2110908.76343  -1402063.03142  23847991.8734   23847984.4944
        46.0004         39.0004
  22731149.4644  -14651388.24543 -11404367.31342  22731151.4274   22731146.8024
        50.0004         43.0004
  21737569.6424    7227186.20443   5639125.61642  21737570.3214   21737566.4214
        53.0004         46.0004
  20352314.2484   -5880729.61543  -4570314.38742  20352316.5744   20352309.6834
        55.0004         50.0004
  21016301.3144  -25982306.76543 -19912927.47542  21016303.0004   21016298.9264
        56.0004         49.0004
 05  6 24 18 38 30.0000000  0  9G22G 3G19G18G11G25G15G14G 1
  21559421.0724    3501430.19643   2728541.66642  21559421.4304   21559414.1524
        55.0004         48.0004
  23619546.7954   14106344.47643  11003831.83942  23619547.9254   23619544.9684
        49.0004         42.0004
  22656083.4704   -3269800.85243  -2534249.19442  22656085.1064   22656077.6044
        51.0004         44.0004
  23653916.3794   15034426.84943  11709261.17742  23653919.5534   23653913.4034
        47.0004         39.0004
  23830342.1474   -2203645.12743  -1474325.09742  23830344.9254   23830337.7084
        47.0004         39.0004
  22713066.3574  -14746414.86943 -11478413.99542  22713067.7524   22713064.7154
        50.0004         44.0004
  21754369.6844    7315483.04643   5707928.30942  21754369.7324   21754368.0184
        49.0004         44.0004
  20356369.6584   -5859417.62743  -4553707.64442  20356372.0424   20356364.8874
        55.0004         50.0004
  21007323.2264  -26029486.57943 -19949690.94342  21007324.7774   21007320.7014
        56.0004         49.0004
 05  6 24 18 39  0.0000000  0  9G22G 3G19G18G11G25G15G14G 1
  21566451.0644    3538373.28543   2757328.47342  21566451.7154   21566443.7184
        55.0004         48.0004
  23633857.6724   14181549.12743  11062432.79442  23633860.5824   23633856.9064
        49.0004         42.0004
  22662974.7234   -3233587.74043  -2506031.25542  22662976.2144   22662968.4894
        50.0004         43.0004
  23666627.0174   15101221.27343  11761308.72142  23666628.7284   23666622.3614
        45.0004         38.0004
  23812732.7614   -2296183.21143  -1546432.68542  23812736.1634   23812729.5344
        48.0004         40.0004
  22695021.9294  -14841237.97543 -11552302.08442  22695023.2724   22695020.7554
        50.0004         44.0004
  21771240.7504    7404141.40643   5777012.73842  21771239.5024   21771238.0744
        48.0004         43.0004
  20360503.5684   -5837692.51243  -4536778.98342  20360505.5194   20360499.0274
        55.0004         50.0004
  20998423.2634  -26076256.83744 -19986135.26942  20998424.7654   20998419.9064
        57.0004         49.0004
 05  6 24 18 39 30.0000000  0  9G22G 3G19G18G11G25G15G14G 1
  21573509.9714    3575461.83043   2786228.62342  21573510.6644   21573501.7294
        56.0004         48.0004
  23648194.2414   14256898.93243  11121146.89742  23648196.1704   23648193.7364
        48.0004         41.0004
  22669952.2774   -3196916.89443  -2477456.63642  22669953.6004   22669947.4534
        49.0004         44.0004
  23679355.4394   15168112.55743  11813431.73842  23679353.2804   23679354.7994
        45.0004         37.0004
  23795160.8814   -2388526.10043  -1618388.13742  23795163.8024   23795156.3454
        48.0004         40.0004
  22677016.2684  -14935860.03843 -11626033.52542  22677017.5614   22677014.8394
        51.0004         44.0004
  21788182.0244    7493154.32343   5846373.39342  21788181.2124   21788177.6314
        51.0004         44.0004
  20364714.6034   -5815561.29743  -4519533.88542  20364716.7874   20364710.5534
        54.0004         49.0004
  20989600.2054  -26122622.52044 -20022264.33442  20989602.2934   20989596.7654
        57.0004         49.0004
 05  6 24 18 40  0.0000000  0  9G22G 3G19G18G11G25G15G14G 1
  21580596.2044    3612700.27043   2815245.56742  21580596.7914   21580587.9454
        56.0004         48.0004
  23662561.7144   14332395.07243  11179975.01042  23662563.2504   23662559.0704
        48.0004         41.0004
  22677019.5784   -3159786.20443  -2448523.66042  22677020.0134   22677013.8724
        50.0004         44.0004
  23692105.4114   15235104.71743  11865633.37342  23692107.9834   23692099.8384
        46.0004         36.0004
  23777627.0024   -2480667.15343  -1690186.34142  23777630.8554   23777624.0464
        48.0004         39.0004
  22659049.4664  -15030274.08643 -11699602.86042  22659052.7714   22659047.7334
        51.0004         44.0004
  21805188.8714    7582524.45643   5916012.38942  21805189.8724   21805184.9854
        54.0004         46.0004
  20369003.8594   -5793021.25843  -4501970.22642  20369005.8814   20368999.4934
        54.0004         49.0004
  20980854.7394  -26168579.07444 -20058074.61042  20980856.4974   20980851.5424
        57.0004         49.0004
 05  6 24 18 40 30.0000000  0  9G22G 3G19G18G11G25G15G14G 1
  21587710.4254    3650089.30743   2844379.86942  21587711.5854   21587702.9234
        55.0004         48.0004
  23676955.9714   14408035.23243  11238915.32742  23676958.2364   23676953.8104
        48.0004         41.0004
  22684172.1054   -3122196.88843  -2419233.31142  22684173.9624   22684167.0064
        50.0004         45.0004
  23704872.5734   15302198.49243  11917914.11442  23704872.0494   23704865.8204
        45.0004         36.0004
  23760131.8274   -2572603.63243  -1761825.10342  23760134.5494   23760126.5164
        48.0004         39.0004
  22641124.0824  -15124476.70443 -11773007.44942  22641125.8784   22641120.0974
        51.0004         44.0004
  21822263.4074    7672250.52543   5985928.74142  21822264.8274   21822259.6474
        56.0004         47.0004
  20373371.4204   -5770073.39843  -4484088.77742  20373372.9464   20373366.1284
        53.0004         49.0004
  20972187.6784  -26214126.14644 -20093565.81342  20972189.4434   20972184.0914
        57.0004         49.0004
 05  6 24 18 41  0.0000000  0  9G22G 3G19G18G11G25G15G14G 1
  21594853.1004    3687626.66343   2873629.75542  21594853.0434   21594846.3954
        54.0004         47.0004
  23691376.1024   14483814.03443  11297963.66142  23691378.1584   23691372.0414
        49.0004         41.0004
  22691411.8894   -3084153.70443  -2389589.28942  22691412.6704   22691407.6784
        51.0004         46.0004
  23717658.6494   15369391.72843  11970272.34142  23717661.5554   23717652.0024
        46.0004         36.0004
  23742676.2614   -2664335.96043  -1833304.84842  23742678.0884   23742672.6274
        47.0004         39.0004
  22623236.8214  -15218467.61943 -11846247.05142  22623239.0654   22623233.8114
        50.0004         43.0004
  21839404.1464    7762328.01543   6056118.93942  21839405.9334   21839400.2984
        55.0004         47.0004
  20377815.3224   -5746722.25043  -4465893.07342  20377817.0334   20377810.1734
        54.0004         49.0004
  20963597.7764  -26259266.20044 -20128739.85542  20963599.7684   20963594.5164
        57.0004         50.0004
 05  6 24 18 41 30.0000000  0  9G22G 3G19G18G11G25G15G14G 1
  21602026.0644    3725319.24743   2903000.60842  21602026.2634   21602019.1684
        55.0004         48.0004
  23705823.7214   14559735.14443  11357122.85642  23705825.8344   23705819.5434
        50.0004         41.0004
  22698737.9464   -3045652.49843  -2359588.36742  22698739.3604   22698733.3814
        51.0004         46.0004
  23730465.4154   15436690.83743  12022713.12842  23730466.9154   23730461.0904
        44.0004         37.0004
  23725260.0034   -2755855.15743  -1904618.46642  23725263.5624   23725257.1124
        48.0004         38.0004
  22605392.5994  -15312237.50043 -11919314.41742  22605394.7454   22605389.9814
        50.0004         43.0004
  21856612.7854    7852761.76743   6126586.73442  21856614.2414   21856609.2494
        54.0004         46.0004
  20382336.2454   -5722962.85243  -4447379.25642  20382337.9224   20382331.5914
        54.0004         49.0004
  20955086.5254  -26303992.70544 -20163591.64942  20955088.6474   20955082.8924
        57.0004         50.0004
 05  6 24 18 42  0.0000000  0  9G22G 3G19G18G11G25G15G14G 1
  21609227.1254    3763159.63943   2932486.61142  21609227.6214   21609220.1404
        56.0004         48.0004
  23720296.5654   14635788.13943  11416384.83342  23720300.2744   23720290.6254
        49.0004         41.0004
  22706149.5314   -3006702.46643  -2329237.70442  22706151.0794   22706145.6624
        51.0004         46.0004
  23743291.1114   15504088.98643  12075231.06942  23743291.2604   23743286.6144
        45.0004         37.0004
  23707884.5764   -2847165.86343  -1975769.66542  23707887.3294   23707879.4334
        46.0004         38.0004
  22587589.8244  -15405790.42943 -11992212.75142  22587591.4404   22587587.5344
        49.0004         43.0004
  21873887.3024    7943542.74643   6197325.12042  21873887.6184   21873884.0944
        51.0004         45.0004
  20386933.3924   -5698804.29943  -4428554.41042  20386935.2954   20386928.4744
        54.0004         49.0004
  20946652.9164  -26348312.93044 -20198126.87042  20946654.6504   20946649.4864
        57.0004         50.0004
 05  6 24 18 42 30.0000000  0  9G22G 3G19G18G11G25G15G14G 1
  21616456.7094    3801148.78644   2962088.51542  21616457.6104   21616449.6614
        57.0004         48.0004
  23734792.4734   14711970.61143  11475747.72742  23734792.7374   23734790.3024
        47.0004         41.0004
  22713647.1294   -2967305.57143  -2298538.86742  22713648.7234   22713642.0724
        52.0004         46.0004
  23756135.1184   15571586.39443  12127826.35342  23756137.3344   23756132.9604
        45.0004         36.0004
  23690547.8954   -2938265.67443  -2046756.49842  23690549.7824   23690544.2524
        45.0004         38.0004
  22569829.2194  -15499123.61743 -12064939.83342  22569830.9234   22569828.2114
        49.0004         43.0004
  21891228.2744    8034669.40943   6268332.87942  21891227.0934   21891224.9424
        50.0004         44.0004
  20391605.5074   -5674247.99043  -4409419.62642  20391608.1504   20391601.7374
        53.0004         48.0004
  20938296.0394  -26392226.54543 -20232345.26142  20938297.5764   20938293.5104
        56.0004         50.0004
 05  6 24 18 43  0.0000000  0  9G22G 3G19G18G11G25G15G14G 1
  21623714.5664    3839292.34443   2991810.74542  21623715.1164   21623707.4454
        56.0004         48.0004
  23749314.8314   14788285.24243  11535213.62642  23749315.7904   23749314.4454
        46.0004         41.0004
  22721229.4644   -2927458.41343  -2267489.16342  22721231.0574   22721225.2524
        52.0004         46.0004
  23768999.5854   15639188.92943  12180503.57842  23768998.6574   23768995.6174
        45.0004         36.0004
  23673255.6114   -3029146.58943  -2117572.77442  23673257.2814   23673248.7634
        46.0004         39.0004
  22552112.2144  -15592228.75543 -12137489.22142  22552113.2274   22552109.2884
        49.0004         43.0004
  21908637.1364    8126145.41243   6339612.85942  21908635.5154   21908631.6014
        51.0004         44.0004
  20396354.9634   -5649290.05743  -4389971.89042  20396356.9164   20396350.5764
        53.0004         48.0004
  20930017.8714  -26435727.95043 -20266242.46942  20930019.6654   20930015.4334
        56.0004         50.0004
